Date StartTime U_cm/s V_cm/s W_cm/s Ustd_cm/s Vstd_cm/s Wstd_cm/s Uvar_(cm/s)^2 Vvar_(cm/s)^2 Wvar_(cm/s)^2 KE_(m/s)^2 TurbulentKE_(m/s)^2 HorizWindSpeed_cm/s FrictionSpeec_cm/s DragCoef SpeedOfSound_m/s SonicTemperature_C Pressure_mb 
03/07/2014  00:00:00       26.867       74.198       -4.998       28.330       37.693       22.946      802.572     1420.749      526.527        0.450        0.137       78.912       22.777        0.083      335.399        6.006      864.991
03/07/2014  00:01:00       24.678      108.584      -18.129       31.455       32.652       18.920      989.437     1066.144      357.976        0.757        0.121      111.353       16.473        0.022      335.371        5.960      865.001
03/07/2014  00:02:00       14.303      114.266      -17.601       21.688       31.633       16.169      470.372     1000.641      261.443        0.765        0.087      115.157       13.420        0.014      335.374        5.965      865.009
03/07/2014  00:03:00       26.976      112.874      -19.216       24.617       21.947       16.602      605.978      481.686      275.620        0.760        0.068      116.052       11.619        0.010      335.347        5.921      865.021
03/07/2014  00:04:00      -16.303      170.905      -25.274       28.922       28.015       13.453      836.456      784.834      180.988        1.596        0.090      171.681       11.274        0.004      335.384        5.982      865.039
03/07/2014  00:05:00       -6.833      148.761      -14.910       28.499       31.921       17.625      812.177     1018.953      310.652        1.227        0.107      148.918       10.025        0.005      335.441        6.078      865.046
03/07/2014  00:06:00      -20.391       94.925       -7.399       20.583       41.178       17.620      423.660     1695.660      310.476        0.596        0.121       97.090       14.638        0.023      335.561        6.277      865.055
03/07/2014  00:07:00        9.249      119.406      -14.199       28.123       41.119       22.158      790.883     1690.770      490.961        0.876        0.149      119.764       24.066        0.040      335.437        6.070      865.058
03/07/2014  00:08:00        3.344      134.523      -17.019       17.416       25.590       11.593      303.307      654.848      134.395        0.974        0.055      134.565        5.431        0.002      335.394        5.998      865.062
03/07/2014  00:09:00       12.550      139.467      -19.921       12.714       29.407       11.255      161.636      864.785      126.665        1.058        0.058      140.031       12.583        0.008      335.413        6.029      865.067
03/07/2014  00:10:00       19.248      108.422      -13.463       23.771       34.448       21.984      565.062     1186.640      483.315        0.727        0.112      110.117       20.840        0.036      335.403        6.014      865.084
03/07/2014  00:11:00       11.803      118.922      -18.327       23.121       38.580       20.243      534.603     1488.428      409.770        0.852        0.122      119.506       23.338        0.038      335.380        5.976      865.096
03/07/2014  00:12:00       12.222      115.070      -17.003       19.249       38.557       13.074      370.509     1486.675      170.918        0.785        0.101      115.717        7.911        0.005      335.341        5.911      865.102
03/07/2014  00:13:00       -0.115       76.680       -9.315       22.408       43.102       19.401      502.129     1857.773      376.416        0.435        0.137       76.680       23.094        0.091      335.375        5.966      865.104
03/07/2014  00:14:00      -25.796       43.636        2.609       34.845       42.721       24.350     1214.150     1825.117      592.900        0.310        0.182       50.691       21.550        0.181      335.467        6.119      865.105
03/07/2014  00:15:00        3.181       53.571        4.032       22.414       17.825       20.471      502.405      317.721      419.045        0.207        0.062       53.666       12.483        0.054      335.393        5.996      865.106
03/07/2014  00:16:00       11.251       18.991       13.362       18.068       12.391       12.450      326.437      153.529      154.994        0.065        0.032       22.073        9.313        0.178      335.411        6.026      865.099
03/07/2014  00:17:00       38.780       34.244       28.554       20.825       26.606       20.835      433.698      707.898      434.104        0.253        0.079       51.735       16.105        0.097      335.422        6.044      865.094
03/07/2014  00:18:00       42.329       38.671        4.078       28.229       17.723       14.997      796.903      314.108      224.904        0.232        0.067       57.333       16.015        0.078      335.331        5.891      865.095
03/07/2014  00:19:00      -14.778        7.942       -5.925       10.457       17.381       13.647      109.350      302.097      186.253        0.046        0.030       16.776       11.078        0.436      335.387        5.986      865.104
03/07/2014  00:20:00       -0.040       28.820       -3.360       15.096       18.874       13.428      227.881      356.225      180.300        0.080        0.038       28.820       13.572        0.222      335.365        5.952      865.113
03/07/2014  00:21:00        5.698       79.102      -12.522        9.606       20.576       11.079       92.271      423.391      122.750        0.354        0.032       79.307        7.841        0.010      335.345        5.917      865.120
03/07/2014  00:22:00      -18.376       26.918       -2.757       19.523       23.731       15.624      381.145      563.166      244.122        0.113        0.059       32.592        9.589        0.087      335.400        6.009      865.117
03/07/2014  00:23:00      -59.107       67.683      -16.647       22.833       44.925       17.689      521.366     2018.292      312.890        0.560        0.143       89.859       21.024        0.055      335.410        6.024      865.116
03/07/2014  00:24:00      -56.301       70.859       -9.762       43.179       36.491       20.919     1864.466     1331.593      437.621        0.596        0.182       90.503       18.279        0.041      335.571        6.294      865.112
03/07/2014  00:25:00      -75.796       59.353      -18.037       19.929       31.779       19.844      397.185     1009.879      393.773        0.570        0.090       96.270       21.490        0.050      335.425        6.050      865.109
03/07/2014  00:26:00      -59.263       54.335      -13.409       26.490       21.624       12.520      701.714      467.581      156.761        0.398        0.066       80.401        9.530        0.014      335.391        5.992      865.103
03/07/2014  00:27:00        2.290      137.966      -18.351       17.466       27.924       13.530      305.064      779.740      183.072        1.032        0.063      137.985       15.428        0.013      335.398        6.007      865.095
03/07/2014  00:28:00        1.527       71.824        9.323       21.112       43.139       16.936      445.734     1860.940      286.843        0.392        0.130       71.840       19.720        0.075      335.478        6.140      865.086
03/07/2014  00:29:00       18.801       42.416       -2.872       25.444       32.094       17.837      647.402     1030.018      318.168        0.208        0.100       46.396       18.290        0.155      335.356        5.933      865.082
03/07/2014  00:30:00       24.615       39.964       -8.419       16.982       19.892       16.707      288.405      395.673      279.119        0.162        0.048       46.936       13.113        0.078      335.336        5.900      865.082
03/07/2014  00:31:00        5.334       52.645       -5.245       14.835       25.199       12.822      220.073      634.970      164.405        0.192        0.051       52.914       14.599        0.076      335.361        5.943      865.089
03/07/2014  00:32:00        8.724       95.437      -14.448       11.344       22.868        7.791      128.684      522.942       60.692        0.505        0.036       95.835        6.578        0.005      335.309        5.856      865.099
03/07/2014  00:33:00       14.482       81.461      -10.321       16.571       27.868       14.667      274.590      776.614      215.130        0.411        0.063       82.739       13.289        0.026      335.334        5.895      865.101
03/07/2014  00:34:00        2.480        4.228       -2.116       18.469       11.862        9.155      341.106      140.712       83.818        0.030        0.028        4.901        7.432        2.299      335.299        5.836      865.099
03/07/2014  00:35:00      -24.524       16.755       -4.818       19.199       15.069       11.369      368.598      227.063      129.243        0.082        0.036       29.701        7.407        0.062      335.331        5.893      865.105
03/07/2014  00:36:00      -35.554       -3.570        2.033       17.038        9.075        8.930      290.284       82.362       79.739        0.087        0.023       35.733        5.898        0.027      335.397        6.003      865.108
03/07/2014  00:37:00      -34.016        3.964       -5.542       22.640       25.481       12.086      512.579      649.265      146.082        0.126        0.065       34.246        7.582        0.049      335.409        6.023      865.111
03/07/2014  00:38:00      -61.502      -35.697       -0.084       26.907       23.197       15.780      724.001      538.103      249.013        0.328        0.076       71.111       13.719        0.037      335.319        5.872      865.109
03/07/2014  00:39:00     -108.876      -56.395       -8.179       22.465       15.988       14.538      504.692      255.617      211.367        0.804        0.049      122.615       11.892        0.009      335.242        5.746      865.102
03/07/2014  00:40:00      -91.258      -50.322      -14.416       23.601       14.828       11.572      557.011      219.874      133.910        0.599        0.046      104.213        7.253        0.005      335.243        5.745      865.077
03/07/2014  00:41:00      -52.536      -32.615      -12.566       20.453       19.261       11.276      418.329      370.969      127.155        0.245        0.046       61.836        7.829        0.016      335.272        5.794      865.052
03/07/2014  00:42:00      -45.073       18.094       -8.802       18.045       20.161       12.650      325.639      406.472      160.029        0.166        0.045       48.570       10.852        0.050      335.226        5.717      865.030
03/07/2014  00:43:00      -44.213      -12.853        1.939       20.225       20.969       12.673      409.068      439.697      160.593        0.157        0.050       46.044       13.074        0.081      335.329        5.888      865.008
03/07/2014  00:44:00      -58.238      -36.202       -3.698       32.023       25.815       15.611     1025.498      666.423      243.718        0.333        0.097       68.573       17.281        0.064      335.368        5.954      864.989
03/07/2014  00:45:00      -45.476      -51.359        6.555       40.986       33.872       18.728     1679.857     1147.328      350.756        0.396        0.159       68.599       15.977        0.054      335.311        5.859      864.976
03/07/2014  00:46:00      -92.986      -29.244        2.400       34.188       36.057       19.874     1168.837     1300.089      394.990        0.619        0.143       97.477       12.088        0.015      335.242        5.745      864.959
03/07/2014  00:47:00      -51.716      -43.876       -8.815       53.425       22.560       20.966     2854.220      508.952      439.587        0.424        0.190       67.821       24.536        0.131      335.276        5.801      864.929
03/07/2014  00:48:00     -116.672      -44.886      -15.261       43.056       34.100       17.830     1853.795     1162.844      317.921        0.960        0.167      125.008       11.542        0.009      335.182        5.646      864.899
03/07/2014  00:49:00      -95.172      -57.740       -4.247       61.252       32.689       22.593     3751.804     1068.565      510.456        0.887        0.267      111.317       22.716        0.042      335.141        5.578      864.868
03/07/2014  00:50:00      -97.905      -47.516       -0.802       48.928       37.015       24.147     2393.978     1370.092      583.080        0.809        0.217      108.827       23.447        0.046      335.118        5.540      864.846
03/07/2014  00:51:00      -69.656      -46.845        3.410       67.526       48.114       29.491     4559.797     2314.962      869.693        0.740        0.387       83.943       34.229        0.166      335.100        5.512      864.838
03/07/2014  00:52:00      -88.070      -41.769        7.503       71.566       47.022       29.173     5121.758     2211.068      851.067        0.887        0.409       97.473       38.605        0.157      335.024        5.383      864.837
03/07/2014  00:53:00      -92.267      -64.957       -5.954       60.470       33.122       26.487     3656.675     1097.074      701.568        0.911        0.273      112.839       23.689        0.044      335.043        5.415      864.830
03/07/2014  00:54:00     -124.323      -83.119       -4.896       52.074       42.068       27.602     2711.719     1769.682      761.889        1.382        0.262      149.549       21.942        0.022      335.005        5.353      864.829
03/07/2014  00:55:00      -85.701      -21.528        0.719       47.217       39.569       23.233     2229.437     1565.692      539.754        0.607        0.217       88.363       20.926        0.056      335.015        5.368      864.819
03/07/2014  00:56:00     -118.879      -25.647       -7.742       48.014       31.216       27.826     2305.329      974.456      774.261        0.945        0.203      121.614       19.678        0.026      335.055        5.437      864.803
03/07/2014  00:57:00     -159.635      -52.994      -19.833       53.238       36.760       19.205     2834.301     1351.301      368.817        1.662        0.228      168.202        9.437        0.003      335.040        5.411      864.791
03/07/2014  00:58:00      -90.464      -55.569       -5.688       48.263       38.611       24.384     2329.358     1490.774      594.602        0.786        0.221      106.168       18.369        0.030      335.041        5.412      864.790
03/07/2014  00:59:00     -101.424       -9.841       -8.942       34.461       26.565       15.657     1187.548      705.700      245.132        0.630        0.107      101.900       11.537        0.013      335.028        5.390      864.805
03/07/2014  01:00:00      -72.353      -28.324       -2.997       34.826       26.836       17.556     1212.820      720.176      308.217        0.414        0.112       77.699       16.760        0.047      335.027        5.389      864.817
03/07/2014  01:01:00      -37.764       -5.681       -1.380       20.737       27.174       11.053      430.042      738.434      122.163        0.138        0.065       38.189        9.321        0.060      335.086        5.488      864.825
03/07/2014  01:02:00      -72.592        5.297      -10.794       10.358       19.002       11.305      107.296      361.062      127.795        0.301        0.030       72.785        8.906        0.015      335.100        5.512      864.813
03/07/2014  01:03:00      -61.792        3.379       -9.698       18.739       23.591       12.421      351.155      556.551      154.273        0.249        0.053       61.885       10.182        0.027      335.087        5.490      864.816
03/07/2014  01:04:00      -92.904       -0.116       -8.720       17.949       21.727       12.103      322.180      472.056      146.485        0.482        0.047       92.904        8.065        0.008      335.099        5.509      864.821
03/07/2014  01:05:00      -93.968      -36.220       -9.945       28.085       22.350       16.545      788.746      499.518      273.721        0.590        0.078      100.707       17.968        0.032      334.980        5.310      864.839
03/07/2014  01:06:00     -121.932      -44.534       -8.211       20.460       24.789       13.780      418.628      614.473      189.878        0.907        0.061      129.810       11.477        0.008      334.960        5.277      864.863
03/07/2014  01:07:00     -102.957      -28.961       -1.992       35.098       32.841       16.596     1231.898     1078.520      275.442        0.701        0.129      106.952       18.598        0.030      334.866        5.120      864.887
03/07/2014  01:08:00     -120.163        3.481      -15.000       26.323       30.195       14.338      692.914      911.759      205.583        0.824        0.091      120.213        6.694        0.003      334.825        5.052      864.912
03/07/2014  01:09:00     -136.805       23.230      -15.586       24.004       23.818       17.104      576.180      567.275      292.556        1.047        0.072      138.764        9.037        0.004      334.784        4.986      864.943
03/07/2014  01:10:00     -115.606       19.517       -6.401       22.481       20.166       11.857      505.387      406.649      140.591        0.742        0.053      117.241       10.627        0.008      334.904        5.185      864.973
03/07/2014  01:11:00      -92.468      -32.735      -10.764       30.550       25.339       16.845      933.301      642.071      283.763        0.580        0.093       98.092       14.529        0.022      334.847        5.088      864.992
03/07/2014  01:12:00     -128.127      -54.297      -11.075       20.468       21.847       13.242      418.921      477.306      175.346        1.028        0.054      139.157        6.785        0.002      334.854        5.101      864.987
03/07/2014  01:13:00     -141.937      -38.556      -13.676       21.319       26.512       12.641      454.514      702.866      159.786        1.157        0.066      147.081       12.049        0.007      334.786        4.987      864.980
03/07/2014  01:14:00     -130.111      -61.114      -18.333       54.576       39.396       21.390     2978.579     1552.042      457.547        1.299        0.249      143.749       14.955        0.011      334.834        5.066      864.961
03/07/2014  01:15:00     -126.539      -73.106       -8.632       66.301       34.669       25.527     4395.878     1201.934      651.629        1.384        0.312      146.139       27.447        0.035      334.797        5.006      864.955
03/07/2014  01:16:00     -124.638      -50.174       -0.608       41.857       24.359       21.125     1752.028      593.373      446.287        1.042        0.140      134.358       23.987        0.032      334.716        4.872      864.962
03/07/2014  01:17:00     -122.473      -60.324       -4.129       55.066       27.472       23.182     3032.221      754.716      537.394        1.149        0.216      136.524       25.424        0.035      334.628        4.726      864.959
03/07/2014  01:18:00     -129.535      -47.476       -8.341       49.417       38.193       22.086     2442.054     1458.730      487.807        1.174        0.219      137.961       21.175        0.024      334.608        4.693      864.964
03/07/2014  01:19:00     -118.893      -18.133       -3.608       39.116       35.125       23.195     1530.075     1233.751      538.011        0.889        0.165      120.268       17.625        0.021      334.597        4.675      864.983
03/07/2014  01:20:00     -116.817      -32.390        6.556       48.905       37.148       23.412     2391.676     1379.970      548.117        0.953        0.216      121.224       24.589        0.041      334.541        4.582      865.006
03/07/2014  01:21:00     -140.139      -33.026       -6.705       39.457       25.248       19.736     1556.853      637.461      389.516        1.168        0.129      143.978       20.206        0.020      334.566        4.624      865.033
03/07/2014  01:22:00     -124.559      -14.956      -12.452       28.028       23.410       14.817      785.549      548.033      219.532        0.872        0.078      125.454       12.517        0.010      334.585        4.656      865.068
03/07/2014  01:23:00      -56.527      -33.856       -1.761       26.366       17.848       10.741      695.163      318.554      115.370        0.274        0.056       65.891       10.839        0.027      334.549        4.594      865.094
03/07/2014  01:24:00      -34.504      -22.277       -0.950       33.926       21.402       14.112     1150.943      458.066      199.144        0.175        0.090       41.071       17.933        0.191      334.613        4.701      865.108
03/07/2014  01:25:00        3.549      -27.829       17.344       10.643       14.596       10.040      113.264      213.042      100.794        0.076        0.021       28.054        1.783        0.004      334.756        4.938      865.115
03/07/2014  01:26:00      -13.150       -7.122       -3.065       16.011        8.015        7.769      256.367       64.240       60.354        0.031        0.019       14.955        3.414        0.052      334.692        4.833      865.131
03/07/2014  01:27:00      -28.208       14.670        2.656       17.386       16.271       16.702      302.285      264.735      278.968        0.093        0.042       31.795       15.948        0.252      334.671        4.798      865.146
03/07/2014  01:28:00       60.872       43.548        3.142       16.184       11.352       12.777      261.916      128.879      163.247        0.308        0.028       74.846        6.755        0.008      334.644        4.752      865.144
03/07/2014  01:29:00       94.907       56.342       13.014       30.930       21.048       24.145      956.657      443.013      582.974        0.717        0.099      110.371       17.180        0.024      334.585        4.654      865.145
03/07/2014  01:30:00      121.766       67.502        4.796       18.764       20.649       17.438      352.085      426.379      304.098        1.024        0.054      139.225        8.360        0.004      334.544        4.586      865.141
03/07/2014  01:31:00       91.071       52.594       10.259       24.851       18.871       15.907      617.563      356.120      253.034        0.620        0.061      105.167       11.040        0.011      334.464        4.455      865.150
03/07/2014  01:32:00       95.438       75.468       13.360       22.841       18.356       18.148      521.698      336.938      329.337        0.808        0.059      121.671       13.296        0.012      334.442        4.418      865.163
03/07/2014  01:33:00       88.085       63.282       -0.625       19.133       19.582       18.821      366.067      383.447      354.224        0.643        0.055      108.460        9.828        0.008      334.441        4.417      865.172
03/07/2014  01:34:00       92.422       51.101        8.873       17.468       18.027       18.139      305.132      324.965      329.019        0.610        0.048      105.608        9.161        0.008      334.489        4.494      865.181
03/07/2014  01:35:00       44.283       38.237       16.385       31.127       24.494       16.440      968.904      599.947      270.279        0.276        0.092       58.507       10.793        0.034      334.535        4.573      865.185
03/07/2014  01:36:00       25.092       21.710       -3.219        7.504       16.993        8.398       56.309      288.762       70.521        0.076        0.021       33.181        6.714        0.041      334.552        4.601      865.183
03/07/2014  01:37:00        5.085       30.758       -5.507        9.310       14.700        7.503       86.682      216.098       56.297        0.068        0.018       31.175        8.689        0.078      334.589        4.662      865.162
03/07/2014  01:38:00       14.157       39.639       -2.248       14.493       11.706        9.411      210.045      137.034       88.558        0.111        0.022       42.091        7.254        0.030      334.605        4.688      865.151
03/07/2014  01:39:00       31.899       50.985       -5.292       14.232       18.600       13.956      202.538      345.970      194.758        0.219        0.037       60.141       12.274        0.042      334.582        4.650      865.153
03/07/2014  01:40:00       36.497       46.616       -4.609       18.993       13.928       14.461      360.747      193.990      209.124        0.214        0.038       59.204        9.972        0.028      334.549        4.593      865.172
03/07/2014  01:41:00       27.196       34.556        4.220       22.819       24.964       17.274      520.711      623.207      298.386        0.170        0.072       43.975       17.858        0.165      334.529        4.562      865.178
03/07/2014  01:42:00       22.940       27.972        6.242       14.772       24.522       16.532      218.217      601.346      273.309        0.122        0.055       36.176       12.501        0.119      334.498        4.508      865.172
03/07/2014  01:43:00       31.206       31.055       -0.291       17.110       20.356       13.971      292.759      414.358      195.186        0.142        0.045       44.025        5.843        0.018      334.471        4.465      865.169
03/07/2014  01:44:00       21.877       46.204       -2.190       19.017       29.372       16.242      361.662      862.698      263.801        0.205        0.074       51.122       17.834        0.122      334.512        4.533      865.166
03/07/2014  01:45:00       24.221       45.114       -1.632       17.769       21.402       14.367      315.744      458.049      206.409        0.180        0.049       51.205       13.172        0.066      334.531        4.566      865.160
03/07/2014  01:46:00       21.353       54.056       -0.828       16.724       22.560       15.608      279.680      508.955      243.600        0.221        0.052       58.121       13.297        0.052      334.534        4.569      865.147
03/07/2014  01:47:00       23.114       52.844       -4.307       12.937       16.919       13.873      167.366      286.251      192.448        0.200        0.032       57.677       12.063        0.044      334.513        4.536      865.140
03/07/2014  01:48:00       14.261       69.543      -11.245       10.837       10.276        7.616      117.443      105.592       57.998        0.272        0.014       70.991        4.208        0.004      334.546        4.590      865.135
03/07/2014  01:49:00        9.315       82.105      -13.095       11.289       14.990        9.748      127.447      224.689       95.024        0.372        0.022       82.632        8.002        0.009      334.522        4.548      865.137
03/07/2014  01:50:00       -2.568       49.016       -7.864       12.920       26.567       13.602      166.935      705.787      185.005        0.176        0.053       49.083       13.584        0.077      334.520        4.547      865.147
03/07/2014  01:51:00      -30.325       37.322       -9.196       18.718       25.090       11.483      350.379      629.519      131.853        0.175        0.056       48.089        8.758        0.033      334.539        4.577      865.143
03/07/2014  01:52:00      -35.447       23.428       -5.068       19.450       18.153        9.693      378.290      329.543       93.954        0.132        0.040       42.490        8.943        0.044      334.545        4.588      865.151
03/07/2014  01:53:00      -32.727       25.515       -4.874       14.571       26.021       13.747      212.302      677.085      188.967        0.141        0.054       41.498       14.224        0.117      334.522        4.551      865.163
03/07/2014  01:54:00      -25.472       35.872       -7.531       18.251       18.150       10.077      333.097      329.419      101.543        0.138        0.038       43.996        5.724        0.017      334.594        4.669      865.171
03/07/2014  01:55:00      -19.632       42.399       -2.490       16.791       15.254       11.558      281.941      232.699      133.596        0.142        0.032       46.723        6.607        0.020      334.684        4.819      865.196
03/07/2014  01:56:00       -1.875       76.362       -7.706       25.168       23.300       17.922      633.430      542.882      321.188        0.370        0.075       76.385       14.685        0.037      334.701        4.847      865.221
03/07/2014  01:57:00       -5.140       99.784      -13.540       12.013       16.521        9.048      144.309      272.942       81.868        0.533        0.025       99.916        5.627        0.003      334.637        4.739      865.243
03/07/2014  01:58:00       -6.539       80.116      -14.514       11.883       15.944       10.662      141.198      254.206      113.672        0.359        0.025       80.382        9.469        0.014      334.610        4.697      865.255
03/07/2014  01:59:00       10.089       75.472       -9.483       10.033        7.809        8.218      100.669       60.986       67.541        0.306        0.011       76.143        4.841        0.004      334.620        4.715      865.270
03/07/2014  02:00:00       15.664       61.412       -5.251       14.090       21.534        8.451      198.538      463.729       71.417        0.239        0.037       63.378       10.290        0.026      334.565        4.621      865.290
03/07/2014  02:01:00       39.812       30.819       -5.574       16.792       16.138       10.245      281.960      260.444      104.960        0.161        0.032       50.347        7.647        0.023      334.466        4.456      865.312
03/07/2014  02:02:00       64.736       39.289       -4.821       14.878       12.347       10.424      221.368      152.458      108.652        0.312        0.024       75.726        5.717        0.006      334.389        4.330      865.335
03/07/2014  02:03:00       91.458       42.770       -4.413       24.705       16.741       18.588      610.338      280.266      345.518        0.572        0.062      100.964       15.544        0.024      334.273        4.139      865.354
03/07/2014  02:04:00      112.023       52.839        7.133       30.145       16.637       26.190      908.708      276.779      685.920        0.863        0.094      123.859       12.793        0.011      334.184        3.991      865.368
03/07/2014  02:05:00       87.293       45.056        0.453       22.790       24.082       16.655      519.372      579.930      277.400        0.551        0.069       98.235       11.635        0.014      334.038        3.747      865.373
03/07/2014  02:06:00       35.678       37.831       -6.340       18.547       16.922       16.422      343.995      286.341      269.690        0.182        0.045       52.001        9.898        0.036      334.016        3.711      865.365
03/07/2014  02:07:00       18.686       31.680       -3.329       13.854       21.243       12.985      191.941      451.259      168.620        0.109        0.041       36.780       13.627        0.137      334.082        3.819      865.345
03/07/2014  02:08:00        1.815       71.627      -16.229       15.025       17.993        7.937      225.736      323.739       62.994        0.300        0.031       71.650       10.387        0.021      334.201        4.017      865.323
03/07/2014  02:09:00       -1.445       73.560        2.258       14.017       43.407       17.758      196.471     1884.200      315.352        0.391        0.120       73.574       22.601        0.094      334.310        4.198      865.311
03/07/2014  02:10:00      -15.996       39.839        1.972       25.507       27.387       15.886      650.592      750.026      252.377        0.175        0.083       42.930       13.312        0.096      334.307        4.196      865.301
03/07/2014  02:11:00      -31.071       60.957      -13.365       21.780       25.381       13.832      474.358      644.220      191.325        0.308        0.065       68.419        7.094        0.011      334.441        4.416      865.282
03/07/2014  02:12:00      -16.108      104.314      -14.294       20.913       29.131       16.548      437.334      848.636      273.834        0.645        0.078      105.551        9.371        0.008      334.480        4.480      865.269
03/07/2014  02:13:00      -30.868       41.772        7.707       21.193       45.466       15.998      449.148     2067.152      255.932        0.276        0.139       51.939        9.889        0.036      334.386        4.325      865.259
03/07/2014  02:14:00      -63.489       42.216       -6.502       20.404       31.529       18.693      416.313      994.058      349.441        0.381        0.088       76.243       17.519        0.053      334.270        4.132      865.250
03/07/2014  02:15:00      -70.234       10.016      -10.130       16.659       14.800        9.851      277.515      219.031       97.033        0.286        0.030       70.945        4.880        0.005      334.281        4.149      865.238
03/07/2014  02:16:00      -59.086       23.682       -7.785       16.058       19.242       12.901      257.846      370.238      166.430        0.245        0.040       63.656        7.156        0.013      334.468        4.462      865.227
03/07/2014  02:17:00      -61.934        7.860       -7.464       16.371       21.188       12.210      268.012      448.952      149.093        0.241        0.043       62.431        8.479        0.018      334.367        4.293      865.218
03/07/2014  02:18:00      -75.196       22.095      -19.298       24.544       32.181       15.227      602.411     1035.586      231.865        0.419        0.093       78.375        8.212        0.011      334.253        4.104      865.198
03/07/2014  02:19:00      -69.699       59.543      -16.866       24.597       50.248       17.669      605.029     2524.874      312.202        0.606        0.172       91.670       15.651        0.029      334.360        4.281      865.178
03/07/2014  02:20:00      -76.801       42.554      -18.755       25.740       27.076       19.839      662.559      733.117      393.568        0.492        0.089       87.802       14.979        0.029      334.489        4.496      865.170
03/07/2014  02:21:00      -70.955       40.201      -12.970       28.520       28.440       16.799      813.372      808.839      282.206        0.436        0.095       81.552       16.944        0.043      334.526        4.556      865.176
03/07/2014  02:22:00      -51.226       17.552      -10.482       28.938       21.563       13.302      837.436      464.983      176.955        0.226        0.074       54.149       11.346        0.044      334.472        4.466      865.181
03/07/2014  02:23:00      -47.373        2.700       -5.555       16.944       21.183       15.217      287.085      448.733      231.557        0.162        0.048       47.450       12.452        0.069      334.401        4.349      865.178
03/07/2014  02:24:00      -60.841        0.658       -6.283       12.310       24.662       13.964      151.529      608.225      194.992        0.235        0.048       60.845        8.799        0.021      334.406        4.357      865.180
03/07/2014  02:25:00      -79.802       80.341      -18.431       33.776       40.750       22.770     1140.821     1660.536      518.456        0.824        0.166      113.239       21.132        0.035      334.516        4.540      865.181
03/07/2014  02:26:00      -63.155       55.231      -13.205       25.179       37.130       20.381      633.985     1378.630      415.375        0.482        0.121       83.899       15.229        0.033      334.438        4.410      865.183
03/07/2014  02:27:00      -64.771       -6.152       -5.020       19.784       30.173       15.365      391.400      910.410      236.074        0.290        0.077       65.062        9.092        0.020      334.448        4.428      865.187
03/07/2014  02:28:00     -104.528      -57.506       -9.799       27.415       20.585       13.147      751.593      423.750      172.832        0.784        0.067      119.303       10.885        0.008      334.340        4.249      865.196
03/07/2014  02:29:00     -107.939      -50.119       -0.830       43.042       29.489       22.432     1852.606      869.620      503.178        0.869        0.161      119.007       24.120        0.041      334.244        4.088      865.190
03/07/2014  02:30:00      -81.428      -51.779        6.107       45.600       33.341       21.614     2079.402     1111.648      467.155        0.650        0.183       96.496       23.359        0.059      334.226        4.059      865.183
03/07/2014  02:31:00      -99.303      -58.874        2.368       33.121       27.110       20.638     1097.006      734.954      425.940        0.779        0.113      115.444       19.213        0.028      334.224        4.056      865.166
03/07/2014  02:32:00      -61.218      -40.946       10.984       47.810       25.885       22.044     2285.750      670.046      485.934        0.449        0.172       73.649       22.126        0.090      334.276        4.143      865.156
03/07/2014  02:33:00      -68.845      -47.075        3.465       48.756       34.071       22.649     2377.196     1160.837      512.979        0.551        0.203       83.400       22.845        0.075      334.202        4.019      865.154
03/07/2014  02:34:00      -68.617      -57.207       -7.954       60.941       29.414       25.251     3713.859      865.179      637.637        0.663        0.261       89.336        8.225        0.008      334.207        4.027      865.172
03/07/2014  02:35:00     -112.511      -54.638       -5.120       30.046       26.392       17.814      902.732      696.528      317.342        0.879        0.096      125.076       14.107        0.013      334.120        3.884      865.197
03/07/2014  02:36:00      -90.600      -29.468        0.491       58.073       30.425       22.295     3372.436      925.673      497.072        0.694        0.240       95.272       24.053        0.064      334.081        3.817      865.219
03/07/2014  02:37:00      -88.326      -73.961       -5.621       34.293       29.749       21.418     1175.999      884.974      458.750        0.791        0.126      115.203       16.783        0.021      334.110        3.869      865.231
03/07/2014  02:38:00      -56.123      -51.628        0.813       31.931       29.428       19.440     1019.559      866.025      377.912        0.404        0.113       76.258       18.949        0.062      334.165        3.957      865.228
03/07/2014  02:39:00      -34.511      -38.634        2.026       33.972       18.720       19.012     1154.093      350.430      361.460        0.228        0.093       51.804       19.839        0.147      334.148        3.928      865.217
03/07/2014  02:40:00      -26.906      -27.472       13.424       37.140       21.407       20.469     1379.357      458.261      418.963        0.196        0.113       38.454       21.429        0.311      334.121        3.885      865.194
03/07/2014  02:41:00      -87.944      -37.889      -11.017       18.094       18.441       12.721      327.375      340.082      161.829        0.506        0.041       95.759        9.833        0.011      334.041        3.753      865.167
03/07/2014  02:42:00      -82.752      -48.779       -2.541       21.491       16.022       12.892      461.867      256.706      166.194        0.506        0.044       96.059        8.782        0.008      334.016        3.709      865.142
03/07/2014  02:43:00      -65.984      -30.229       -1.190       33.059       31.387       16.650     1092.906      985.122      277.237        0.381        0.118       72.579       17.004        0.055      334.048        3.765      865.113
03/07/2014  02:44:00      -79.577      -64.503       -6.451       28.542       36.399       13.488      814.648     1324.853      181.917        0.643        0.116      102.436        9.120        0.008      334.008        3.696      865.085
03/07/2014  02:45:00      -50.901      -53.334        2.412       43.275       25.776       18.631     1872.706      664.406      347.105        0.416        0.144       73.725       16.872        0.052      334.102        3.854      865.063
03/07/2014  02:46:00      -22.747      -42.064       10.638       24.315       26.802       14.058      591.212      718.340      197.635        0.195        0.075       47.821       15.164        0.101      334.104        3.857      865.056
03/07/2014  02:47:00      -56.272      -34.842        2.181       36.518       14.606       17.971     1333.599      213.343      322.974        0.313        0.093       66.185       17.038        0.066      334.094        3.840      865.068
03/07/2014  02:48:00      -73.190       -7.377       -8.856       14.168       16.102       10.669      200.725      259.288      113.821        0.303        0.029       73.560        8.499        0.013      334.049        3.765      865.100
03/07/2014  02:49:00      -84.060       -4.285       -5.048       13.518       16.767        9.664      182.726      281.140       93.389        0.383        0.028       84.169        7.099        0.007      333.939        3.584      865.113
03/07/2014  02:50:00      -74.959      -21.333       -1.465       29.469       15.084       14.291      868.437      227.514      204.224        0.369        0.065       77.936       11.515        0.022      333.960        3.618      865.123
03/07/2014  02:51:00     -108.092      -24.593       -2.593       19.117       19.412       15.949      365.477      376.818      254.357        0.665        0.050      110.855       13.141        0.014      333.919        3.551      865.128
03/07/2014  02:52:00     -107.517      -31.196       -8.675       18.127       22.808       12.215      328.573      520.199      149.214        0.680        0.050      111.951        5.393        0.002      333.909        3.532      865.133
03/07/2014  02:53:00     -132.727      -45.109       -5.611       21.648       24.785       14.977      468.644      614.292      224.298        1.049        0.065      140.183       11.865        0.007      333.823        3.391      865.142
03/07/2014  02:54:00     -109.812      -17.358       -6.735       24.509       17.982       16.275      600.687      323.369      264.883        0.680        0.059      111.175       12.704        0.013      333.800        3.352      865.146
03/07/2014  02:55:00      -90.647      -27.681      -11.971       20.520       21.566       11.132      421.071      465.085      123.932        0.507        0.051       94.779        7.000        0.005      333.856        3.446      865.146
03/07/2014  02:56:00      -94.867        0.193      -11.113       32.437       20.779       19.494     1052.168      431.775      380.014        0.549        0.093       94.867       17.279        0.033      333.699        3.183      865.144
03/07/2014  02:57:00     -103.685       -3.116       -6.051       26.444       20.426       16.238      699.306      417.207      263.680        0.609        0.069      103.732       16.939        0.027      333.692        3.173      865.143
03/07/2014  02:58:00     -104.419       -5.528       -4.316       18.381       14.048       11.597      337.856      197.336      134.501        0.581        0.033      104.566        7.136        0.005      333.709        3.201      865.144
03/07/2014  02:59:00     -117.679       -1.773      -13.676       21.171       19.454       11.895      448.205      378.457      141.487        0.750        0.048      117.693        7.657        0.004      333.699        3.185      865.141
03/07/2014  03:00:00     -118.635       -2.314      -12.104       22.507       21.974       19.126      506.549      482.847      365.811        0.779        0.068      118.657       12.272        0.011      333.649        3.100      865.147
03/07/2014  03:01:00     -161.381       -0.486      -15.287       19.232       25.976       17.824      369.859      674.752      317.682        1.382        0.068      161.382        9.619        0.004      333.612        3.039      865.165
03/07/2014  03:02:00     -142.875      -12.466      -13.736       30.414       32.004       18.969      924.982     1024.272      359.827        1.153        0.115      143.418       14.515        0.010      333.625        3.061      865.169
03/07/2014  03:03:00     -168.919      -12.769      -24.616       30.466       24.564       15.276      928.193      603.414      233.346        1.553        0.088      169.401        7.791        0.002      333.595        3.013      865.168
03/07/2014  03:04:00     -154.280      -17.136      -17.650       33.205       31.182       23.154     1102.558      972.287      536.115        1.351        0.131      155.228       17.271        0.012      333.543        2.926      865.168
03/07/2014  03:05:00     -144.593      -37.477       -6.748       36.041       51.344       23.980     1298.964     2636.241      575.017        1.343        0.226      149.371       21.430        0.021      333.469        2.802      865.173
03/07/2014  03:06:00     -148.408       14.729      -13.020       53.649       34.699       25.340     2878.189     1204.045      642.130        1.357        0.236      149.137       27.055        0.033      333.462        2.791      865.184
03/07/2014  03:07:00     -178.409        0.298      -18.031       36.472       35.112       21.883     1330.202     1232.818      478.846        1.760        0.152      178.409       15.008        0.007      333.423        2.725      865.191
03/07/2014  03:08:00     -157.039        0.616      -10.020       35.336       42.691       25.705     1248.653     1822.550      660.772        1.425        0.187      157.040       18.836        0.014      333.413        2.711      865.199
03/07/2014  03:09:00     -162.493       19.362      -17.139       45.538       34.191       24.843     2073.750     1169.041      617.179        1.547        0.193      163.642       26.222        0.026      333.382        2.659      865.204
03/07/2014  03:10:00     -154.138       11.554      -13.944       30.738       38.865       16.409      944.806     1510.491      269.259        1.340        0.136      154.570        8.897        0.003      333.367        2.636      865.207
03/07/2014  03:11:00     -156.048       -1.906      -16.703       27.699       25.978       15.556      767.220      674.859      241.978        1.316        0.084      156.060       10.282        0.004      333.332        2.577      865.215
03/07/2014  03:12:00      -93.284        4.521      -11.942       32.884       32.636       17.117     1081.347     1065.092      292.985        0.565        0.122       93.394       11.026        0.014      333.339        2.589      865.226
03/07/2014  03:13:00     -109.624      -19.730      -12.504       28.824       31.019       19.313      830.801      962.178      372.994        0.736        0.108      111.385       14.026        0.016      333.397        2.684      865.224
03/07/2014  03:14:00     -129.976      -24.370      -14.316       21.535       26.775       16.044      463.745      716.918      257.403        0.957        0.072      132.241        9.637        0.005      333.408        2.702      865.225
03/07/2014  03:15:00     -132.362      -27.085      -18.403       39.556       39.360       19.351     1564.644     1549.247      374.445        1.104        0.174      135.105       13.102        0.009      333.339        2.589      865.225
03/07/2014  03:16:00     -162.804      -29.609      -15.456       42.823       40.928       25.365     1833.785     1675.087      643.361        1.589        0.208      165.475       22.958        0.019      333.257        2.452      865.235
03/07/2014  03:17:00     -136.109      -27.402      -10.154       44.413       23.416       20.493     1972.473      548.307      419.944        1.116        0.147      138.840       19.819        0.020      333.313        2.546      865.246
03/07/2014  03:18:00     -102.146      -28.735      -16.480       33.535       22.294       20.954     1124.596      497.015      439.082        0.680        0.103      106.111       16.916        0.025      333.331        2.576      865.264
03/07/2014  03:19:00      -89.259      -29.675       -3.754       41.251       43.255       19.811     1701.616     1870.992      392.456        0.641        0.198       94.063       21.486        0.052      333.309        2.539      865.287
03/07/2014  03:20:00     -130.980       -0.884      -16.327       43.992       26.937       21.976     1935.275      725.582      482.957        1.028        0.157      130.983       23.843        0.033      333.305        2.533      865.310
03/07/2014  03:21:00     -106.410       16.037      -16.870       30.927       21.840       15.027      956.490      477.007      225.806        0.676        0.083      107.611       15.474        0.021      333.270        2.474      865.322
03/07/2014  03:22:00      -86.461       -9.557      -11.606       39.134       26.375       16.329     1531.487      695.658      266.632        0.510        0.125       86.987       15.932        0.034      333.335        2.583      865.333
03/07/2014  03:23:00      -62.562      -13.062       -4.875       32.167       22.090       13.369     1034.704      487.969      178.739        0.290        0.085       63.911       12.186        0.036      333.348        2.603      865.351
03/07/2014  03:24:00      -76.253      -21.618       -6.791       19.715       19.230       14.088      388.685      369.808      198.483        0.364        0.048       79.258        8.829        0.012      333.470        2.805      865.364
03/07/2014  03:25:00      -86.717       -0.967      -12.794       14.166       26.928       16.197      200.668      725.095      262.335        0.444        0.059       86.723        6.822        0.006      333.415        2.714      865.354
03/07/2014  03:26:00      -78.387       10.457      -10.439       17.697       22.883       15.597      313.199      523.610      243.251        0.372        0.054       79.082        4.854        0.004      333.424        2.730      865.346
03/07/2014  03:27:00      -83.563       10.863       -9.576       22.516       21.911       18.867      506.987      480.089      355.948        0.427        0.067       84.266       16.749        0.040      333.547        2.932      865.335
03/07/2014  03:28:00      -72.182       18.588       -7.403       19.965       15.767       16.645      398.603      248.605      277.058        0.327        0.046       74.537        9.952        0.018      333.610        3.037      865.313
03/07/2014  03:29:00      -54.857       25.943       -5.609       19.829       20.150       15.268      393.181      406.021      233.099        0.237        0.052       60.683        7.669        0.016      333.627        3.065      865.290
03/07/2014  03:30:00      -48.306       -4.201       -7.104       15.160       18.847       12.136      229.825      355.207      147.275        0.157        0.037       48.488       11.231        0.054      333.591        3.005      865.283
03/07/2014  03:31:00      -41.036      -31.604       -0.757       16.954       15.329       11.561      287.446      234.985      133.663        0.167        0.033       51.796        7.615        0.022      333.573        2.977      865.283
03/07/2014  03:32:00      -42.914      -19.821       -0.424       10.543       12.160       11.296      111.165      147.874      127.593        0.131        0.019       47.270        5.399        0.013      333.545        2.928      865.297
03/07/2014  03:33:00      -49.516      -22.650      -10.428        8.504       10.179        7.971       72.315      103.603       63.537        0.166        0.012       54.451        6.159        0.013      333.378        2.652      865.300
03/07/2014  03:34:00      -46.442       -9.705       -7.321       14.546       10.412        8.901      211.577      108.417       79.222        0.135        0.020       47.445        7.472        0.025      333.347        2.602      865.312
03/07/2014  03:35:00      -44.849       -5.252       -9.137       13.913        9.744        7.383      193.575       94.939       54.516        0.123        0.017       45.156        6.474        0.021      333.433        2.745      865.322
03/07/2014  03:36:00      -30.507      -26.168       -6.588        8.978       10.529        7.009       80.608      110.851       49.124        0.095        0.012       40.193        6.253        0.024      333.319        2.555      865.336
03/07/2014  03:37:00      -13.703        0.202       -4.772        8.491       10.694        9.340       72.095      114.368       87.230        0.024        0.014       13.705        7.188        0.275      333.504        2.862      865.348
03/07/2014  03:38:00       43.553       30.876        0.641       17.843       16.985       20.214      318.390      288.501      408.604        0.193        0.051       53.387        8.810        0.027      333.775        3.310      865.354
03/07/2014  03:39:00       39.697       28.165        6.285       17.641       11.783       20.911      311.187      138.847      437.271        0.165        0.044       48.673       14.518        0.089      333.715        3.212      865.350
03/07/2014  03:40:00       26.272       13.900        4.248       11.317       16.129       12.061      128.082      260.160      145.471        0.072        0.027       29.723        8.160        0.075      333.578        2.985      865.348
03/07/2014  03:41:00       45.332       29.190        0.224       13.608       11.997       10.668      185.174      143.933      113.811        0.167        0.022       53.917        6.808        0.016      333.582        2.991      865.344
03/07/2014  03:42:00       19.395       49.539       -6.216       16.010       20.227       10.286      256.320      409.136      105.812        0.182        0.039       53.200       10.284        0.037      333.689        3.169      865.340
03/07/2014  03:43:00       23.224      108.724      -19.215       12.935       19.700        7.616      167.313      388.104       58.008        0.667        0.031      111.177        5.067        0.002      333.824        3.390      865.343
03/07/2014  03:44:00       -6.454      130.799      -18.318       11.233       16.131        5.592      126.175      260.196       31.269        0.895        0.021      130.958        4.049        0.001      333.894        3.507      865.350
03/07/2014  03:45:00      -10.877      139.772      -16.844       11.269       18.260        7.591      126.998      333.436       57.627        1.023        0.026      140.194        5.523        0.002      333.885        3.491      865.359
03/07/2014  03:46:00      -21.720      142.150      -16.029       18.165       37.389       19.480      329.982     1397.926      379.489        1.152        0.105      143.800       15.701        0.012      334.022        3.722      865.372
03/07/2014  03:47:00      -27.204      148.170      -19.156       20.053       32.301       16.855      402.105     1043.370      284.107        1.240        0.086      150.647       17.413        0.013      333.945        3.593      865.392
03/07/2014  03:48:00      -13.660      127.283      -14.002       22.763       25.751       15.206      518.173      663.098      231.225        0.900        0.071      128.013       12.408        0.009      334.020        3.717      865.416
03/07/2014  03:49:00       14.841       72.316       -8.389       16.337       27.095       16.894      266.904      734.154      285.399        0.340        0.064       73.823       16.686        0.051      333.851        3.435      865.447
03/07/2014  03:50:00       37.224       37.333       -2.834       17.188       16.338       12.702      295.414      266.923      161.338        0.176        0.036       52.720        7.153        0.018      333.744        3.259      865.480
03/07/2014  03:51:00       32.003       23.954      -12.349       17.436       21.569       14.535      304.023      465.206      211.260        0.137        0.049       39.975        6.490        0.026      333.725        3.228      865.510
03/07/2014  03:52:00       30.767       12.508       -7.859       10.361       15.823       16.034      107.351      250.357      257.083        0.089        0.031       33.212        8.592        0.067      333.668        3.133      865.520
03/07/2014  03:53:00       24.641       17.376       12.816       15.019       12.884       14.983      225.560      166.004      224.496        0.084        0.031       30.152        9.587        0.101      333.603        3.024      865.522
03/07/2014  03:54:00        3.938       17.256       24.488       18.014       14.468       13.475      324.513      209.312      181.571        0.081        0.036       17.700       12.630        0.509      333.620        3.055      865.509
03/07/2014  03:55:00       29.973       41.747       25.570       26.000       16.146       14.568      675.977      260.692      212.229        0.222        0.057       51.393        9.585        0.035      333.808        3.367      865.497
03/07/2014  03:56:00       -8.696      -13.390        1.848        8.545       20.548       10.058       73.021      422.239      101.164        0.043        0.030       15.966        8.837        0.306      333.785        3.329      865.484
03/07/2014  03:57:00      -11.515      -25.727        6.476       15.107       28.757       11.901      228.214      826.980      141.645        0.102        0.060       28.187       15.186        0.290      333.721        3.221      865.462
03/07/2014  03:58:00      -16.533        5.375        0.342       18.215       10.597        9.198      331.774      112.302       84.606        0.042        0.026       17.385        8.892        0.262      333.831        3.404      865.453
03/07/2014  03:59:00      -17.569       -3.098       -5.972       13.434       10.201       11.723      180.466      104.069      137.439        0.039        0.021       17.840        5.415        0.092      333.509        2.870      865.441
03/07/2014  04:00:00       -6.821      -18.832        3.015       12.170       23.004       13.550      148.111      529.205      183.599        0.064        0.043       20.029        7.130        0.127      333.511        2.873      865.443
03/07/2014  04:01:00      -27.314      -30.974       -6.723       19.858       16.463        9.183      394.332      271.019       84.328        0.125        0.037       41.297        4.219        0.010      333.643        3.092      865.449
03/07/2014  04:02:00      -29.824      -24.690       -3.307       33.314       15.834       14.855     1109.855      250.720      220.680        0.155        0.079       38.718       10.402        0.072      333.586        2.997      865.460
03/07/2014  04:03:00      -29.668       -1.121       -8.036       14.972        9.204        7.017      224.158       84.721       49.239        0.065        0.018       29.689        5.611        0.036      333.349        2.605      865.478
03/07/2014  04:04:00      -30.754      -21.331       -0.294       14.182       12.995        6.916      201.118      168.870       47.828        0.091        0.021       37.428        6.549        0.031      333.498        2.851      865.490
03/07/2014  04:05:00      -31.798      -17.337       -1.351       13.705       13.938        9.884      187.831      194.279       97.685        0.090        0.024       36.217        7.672        0.045      333.484        2.829      865.508
03/07/2014  04:06:00      -11.287        1.038        7.532       10.081        9.623        6.751      101.630       92.594       45.577        0.021        0.012       11.334        3.991        0.124      333.464        2.795      865.521
03/07/2014  04:07:00      -23.144       11.782        7.531       13.685        9.316       17.116      187.267       86.783      292.960        0.065        0.028       25.970       10.969        0.178      333.489        2.836      865.525
03/07/2014  04:08:00       -8.629       16.767       36.516        7.710       14.765        8.427       59.443      218.015       71.009        0.102        0.017       18.858        8.426        0.200      333.435        2.749      865.532
03/07/2014  04:09:00      -21.290       28.647        4.001       30.647       11.252       18.761      939.221      126.610      351.986        0.135        0.071       35.692       19.659        0.303      333.473        2.810      865.534
03/07/2014  04:10:00      -43.467       -3.862       -4.293       23.663       22.504       15.327      559.933      506.427      234.929        0.161        0.065       43.638       10.281        0.056      333.503        2.859      865.541
03/07/2014  04:11:00        0.980      -43.524       -6.346       17.239       19.091       10.084      297.197      364.467      101.695        0.135        0.038       43.535        6.369        0.021      333.647        3.098      865.535
03/07/2014  04:12:00       -8.532       -7.368        7.887        9.081        8.475        8.215       82.457       71.831       67.491        0.021        0.011       11.273        4.951        0.193      333.713        3.209      865.527
03/07/2014  04:13:00      -16.215      -31.742        7.858       10.152       34.169       11.903      103.067     1167.552      141.689        0.137        0.071       35.644        2.597        0.005      333.752        3.273      865.524
03/07/2014  04:14:00       -0.673      -40.829        0.511       20.813       24.906       18.470      433.202      620.313      341.157        0.153        0.070       40.834       15.727        0.148      333.789        3.335      865.522
03/07/2014  04:15:00      -17.997      -28.012        3.525       14.266       18.059       12.666      203.505      326.141      160.420        0.091        0.035       33.295        4.647        0.019      333.608        3.035      865.519
03/07/2014  04:16:00      -13.430       -8.968        7.971       25.224       19.184       13.420      636.264      368.038      180.102        0.075        0.059       16.149       12.919        0.640      333.512        2.875      865.516
03/07/2014  04:17:00      -40.725      -27.846       -5.109       20.857       19.634       10.343      435.003      385.495      106.979        0.169        0.046       49.334        4.863        0.010      333.536        2.914      865.515
03/07/2014  04:18:00      -22.110      -10.495       -1.965       23.892       16.965        9.609      570.804      287.808       92.332        0.078        0.048       24.474        8.210        0.113      333.589        3.003      865.510
03/07/2014  04:19:00        6.888      -13.122        4.512       18.557       12.112       17.252      344.373      146.692      297.624        0.051        0.039       14.819       11.289        0.580      333.682        3.157      865.514
03/07/2014  04:20:00      -36.280       -8.643       -4.720       22.995       16.004       15.051      528.769      256.135      226.545        0.121        0.051       37.295       11.850        0.101      333.693        3.176      865.509
03/07/2014  04:21:00      -50.630      -28.186       -4.533       33.029       26.726       18.716     1090.916      714.256      350.286        0.277        0.108       57.947       14.272        0.061      333.511        2.873      865.512
03/07/2014  04:22:00      -70.068      -18.990        2.623       30.716       22.287       16.195      943.448      496.690      262.271        0.349        0.085       72.595       14.987        0.043      333.365        2.632      865.522
03/07/2014  04:23:00        8.368       -0.747        5.593       17.473       16.271       12.537      305.319      264.734      157.173        0.041        0.036        8.401       10.762        1.641      333.327        2.568      865.537
03/07/2014  04:24:00      -22.320      -10.546       -8.344       22.992       18.147       13.843      528.616      329.327      191.621        0.086        0.052       24.686       12.161        0.243      333.307        2.535      865.547
03/07/2014  04:25:00      -32.693      -25.583        4.792       35.175       27.994       19.770     1237.303      783.639      390.841        0.208        0.121       41.513       16.115        0.151      333.213        2.380      865.561
03/07/2014  04:26:00      -99.090      -85.594       -3.875       49.169       44.404       23.037     2417.622     1971.727      530.684        1.104        0.246      130.939       25.993        0.039      333.156        2.286      865.576
03/07/2014  04:27:00     -121.277      -81.838       -5.403       40.105       37.074       29.706     1608.408     1374.514      882.443        1.265        0.193      146.307       24.717        0.029      333.103        2.197      865.586
03/07/2014  04:28:00      -65.105      -56.447       10.037       65.931       36.656       30.415     4346.949     1343.678      925.063        0.707        0.331       86.169       25.442        0.087      333.136        2.254      865.601
03/07/2014  04:29:00     -125.021     -114.855       -2.084       51.372       51.065       36.835     2639.100     2607.607     1356.844        1.771        0.330      169.770       34.821        0.042      333.046        2.104      865.613
03/07/2014  04:30:00     -124.876     -103.796       -4.416       46.414       41.580       31.544     2154.268     1728.864      995.053        1.563        0.244      162.381       25.503        0.025      333.013        2.050      865.623
03/07/2014  04:31:00     -122.365     -109.872       -5.331       40.499       35.708       28.227     1640.138     1275.074      796.749        1.539        0.186      164.454       23.454        0.020      333.072        2.147      865.631
03/07/2014  04:32:00      -83.570     -101.990        4.418       41.274       46.036       29.016     1703.572     2119.358      841.943        1.103        0.233      131.856       29.903        0.051      333.085        2.169      865.639
03/07/2014  04:33:00      -66.913      -87.525        0.297       30.052       32.734       16.340      903.121     1071.494      266.990        0.719        0.112      110.172       13.102        0.014      333.109        2.209      865.661
03/07/2014  04:34:00      -38.728      -56.962        3.714       36.677       31.762       20.355     1345.188     1008.804      414.346        0.376        0.138       68.881       12.924        0.035      333.193        2.347      865.690
03/07/2014  04:35:00      -31.853      -49.190        4.611       42.393       25.052       18.548     1797.188      627.617      344.039        0.311        0.138       58.603       21.059        0.129      333.127        2.238      865.723
03/07/2014  04:36:00      -53.275      -46.857       -7.882       34.470       34.827       18.846     1188.196     1212.891      355.173        0.393        0.138       70.950        9.823        0.019      333.092        2.182      865.745
03/07/2014  04:37:00      -50.749      -56.803        8.431       34.010       27.152       18.639     1156.698      737.244      347.431        0.406        0.112       76.172       18.653        0.060      333.041        2.095      865.754
03/07/2014  04:38:00      -65.846      -66.825        1.349       39.513       31.182       25.452     1561.262      972.294      647.786        0.599        0.159       93.815       22.404        0.057      333.034        2.086      865.757
03/07/2014  04:39:00      -67.701      -46.612        3.587       35.748       31.902       17.009     1277.929     1017.716      289.292        0.468        0.129       82.196       14.502        0.031      332.952        1.949      865.752
03/07/2014  04:40:00      -66.626      -26.451        2.444       37.069       23.739       19.626     1374.147      563.532      385.196        0.373        0.116       71.684       17.089        0.057      333.036        2.088      865.739
03/07/2014  04:41:00      -19.794      -34.175        6.945       30.277       22.898       16.856      916.674      524.336      284.121        0.167        0.086       39.493       17.756        0.202      333.057        2.123      865.734
03/07/2014  04:42:00       -8.947       -3.294        0.763       16.158       15.615        8.241      261.069      243.842       67.921        0.033        0.029        9.534        6.146        0.416      332.946        1.940      865.738
03/07/2014  04:43:00      -10.554        2.489        6.614       13.225        9.489        8.947      174.900       90.036       80.044        0.025        0.017       10.844        6.592        0.370      333.000        2.029      865.742
03/07/2014  04:44:00      -13.366       38.065        3.071       14.115       29.791       14.336      199.236      887.489      205.515        0.146        0.065       40.343       13.408        0.110      332.963        1.969      865.742
03/07/2014  04:45:00      -23.178       -4.382       -9.701       10.631       11.337        7.969      113.017      128.536       63.501        0.048        0.015       23.588        2.823        0.014      333.052        2.118      865.736
03/07/2014  04:46:00      -44.632       -4.077       -9.589       11.955        6.875        7.238      142.918       47.262       52.386        0.117        0.012       44.818        4.723        0.011      333.084        2.167      865.729
03/07/2014  04:47:00      -33.763       18.563        0.265       16.699       10.988        9.077      278.849      120.728       82.386        0.098        0.024       38.530        8.738        0.051      333.024        2.069      865.720
03/07/2014  04:48:00      -45.209       15.856       -6.821        8.716        8.313        8.352       75.977       69.102       69.756        0.128        0.011       47.909        4.159        0.008      332.913        1.884      865.713
03/07/2014  04:49:00      -42.143       14.418       -1.431       14.583       12.012        8.572      212.672      144.291       73.481        0.121        0.022       44.541        5.761        0.017      332.931        1.916      865.709
03/07/2014  04:50:00      -51.249       13.397       -5.042       20.728       18.148       11.032      429.655      329.357      121.713        0.186        0.044       52.971        7.623        0.021      332.977        1.990      865.703
03/07/2014  04:51:00      -51.101        8.841       -5.669       22.928       23.019       11.758      525.704      529.874      138.262        0.196        0.060       51.860        6.417        0.015      332.893        1.853      865.699
03/07/2014  04:52:00     -104.890      -17.185       -9.410       20.456       19.000       12.159      418.458      361.017      147.835        0.616        0.046      106.288        7.910        0.006      332.832        1.751      865.683
03/07/2014  04:53:00     -101.796      -20.273       -0.834       22.953       20.478       15.441      526.847      419.362      238.412        0.598        0.059      103.795       12.187        0.014      332.768        1.645      865.671
03/07/2014  04:54:00      -65.386      -21.356       -0.369       31.968       22.987       17.043     1021.980      528.402      290.463        0.329        0.092       68.785       15.508        0.051      332.853        1.788      865.665
03/07/2014  04:55:00      -73.753      -14.358       -1.097       22.164       15.588       14.267      491.256      242.991      203.535        0.329        0.047       75.138       12.845        0.029      332.819        1.732      865.668
03/07/2014  04:56:00      -83.519       -9.413       -9.328       24.279       23.294       13.480      589.457      542.606      181.704        0.423        0.066       84.047        8.343        0.010      332.733        1.588      865.677
03/07/2014  04:57:00      -46.044      -15.608       -1.830       28.327       16.909       10.970      802.411      285.907      120.341        0.179        0.060       48.617        8.557        0.031      332.707        1.545      865.686
03/07/2014  04:58:00      -41.440      -22.738        2.024       25.502       23.588       15.636      650.330      556.413      244.499        0.184        0.073       47.268       10.263        0.047      332.779        1.665      865.691
03/07/2014  04:59:00      -10.356      -18.172       10.873       23.660       16.396       14.002      559.781      268.821      196.063        0.079        0.051       20.916       12.909        0.381      332.894        1.855      865.697
03/07/2014  05:00:00      -44.281      -30.748       -3.235       29.431       22.227        9.953      866.201      494.053       99.058        0.219        0.073       53.909        9.342        0.030      332.855        1.790      865.690
03/07/2014  05:01:00      -41.041      -25.185       -1.942       21.365       21.431       12.203      456.474      459.270      148.905        0.169        0.053       48.153       11.875        0.061      332.889        1.846      865.691
03/07/2014  05:02:00      -39.513      -15.062       -1.828       17.867       19.571       11.084      319.241      383.027      122.852        0.131        0.041       42.286        8.600        0.041      332.881        1.833      865.695
03/07/2014  05:03:00      -63.529      -10.089       -5.230       34.289       19.466       12.499     1175.735      378.913      156.221        0.294        0.086       64.326       15.298        0.057      332.786        1.677      865.703
03/07/2014  05:04:00      -92.208      -15.713       -8.012       26.800       20.541       13.132      718.217      421.939      172.442        0.506        0.066       93.537       11.658        0.016      332.772        1.654      865.707
03/07/2014  05:05:00      -89.730      -17.352       -2.633       35.261       23.223       15.734     1243.327      539.328      247.559        0.519        0.102       91.392       15.296        0.028      332.667        1.479      865.706
03/07/2014  05:06:00      -61.413        8.732        6.131       38.970       37.342       21.522     1518.632     1394.406      463.210        0.363        0.169       62.031       21.590        0.121      332.684        1.507      865.716
03/07/2014  05:07:00     -103.885       13.456       -4.780       41.770       31.814       21.315     1744.755     1012.135      454.347        0.710        0.161      104.753       17.673        0.028      332.693        1.523      865.717
03/07/2014  05:08:00      -71.843        3.406       -9.236       29.129       27.525       18.058      848.520      757.607      326.091        0.359        0.097       71.924       11.339        0.025      332.723        1.572      865.721
03/07/2014  05:09:00      -45.912        0.363       -6.213       28.205       28.388       19.702      795.550      805.870      388.181        0.207        0.099       45.914       11.874        0.067      332.736        1.593      865.734
03/07/2014  05:10:00      -44.353       32.034      -10.603       24.407       29.877       11.616      595.718      892.617      134.931        0.236        0.081       54.711       13.046        0.057      332.894        1.854      865.741
03/07/2014  05:11:00      -64.234       66.782      -21.124       16.950       23.707       12.705      287.307      562.041      161.420        0.502        0.051       92.660        8.996        0.009      332.880        1.831      865.738
03/07/2014  05:12:00      -62.384       39.925      -14.996       22.521       36.408       17.128      507.192     1325.577      293.373        0.392        0.106       74.066       14.576        0.039      332.810        1.714      865.729
03/07/2014  05:13:00     -101.832       -0.194      -10.036       60.605       36.892       20.733     3672.970     1361.033      429.872        0.797        0.273      101.832       21.881        0.046      332.731        1.584      865.716
03/07/2014  05:14:00      -95.929      -16.391       -7.362       39.300       25.888       16.841     1544.454      670.166      283.632        0.601        0.125       97.319       17.484        0.032      332.631        1.419      865.699
03/07/2014  05:15:00      -68.431      -23.746        1.149       34.630       26.767       16.348     1199.232      716.464      267.253        0.372        0.109       72.434       14.087        0.038      332.637        1.429      865.697
03/07/2014  05:16:00      -97.428      -36.320       -2.159       26.449       35.221       19.095      699.557     1240.528      364.636        0.656        0.115      103.978       15.167        0.021      332.625        1.410      865.704
03/07/2014  05:17:00      -89.331      -46.313       -1.096       27.024       23.216       16.934      730.317      539.003      286.759        0.584        0.078      100.623        7.536        0.006      332.674        1.490      865.714
03/07/2014  05:18:00      -69.884      -23.553       -3.397       27.945       30.897       13.334      780.911      954.599      177.797        0.368        0.096       73.746       10.300        0.020      332.726        1.577      865.713
03/07/2014  05:19:00      -81.784      -26.291        0.988       30.305       28.988       18.695      918.415      840.285      349.495        0.474        0.105       85.906       16.012        0.035      332.676        1.494      865.708
03/07/2014  05:20:00     -102.394      -30.750       -0.106       28.680       23.737       19.041      822.570      563.443      362.545        0.659        0.087      106.911       15.978        0.022      332.691        1.517      865.710
03/07/2014  05:21:00      -57.914      -51.331        5.863       46.905       29.917       23.434     2200.100      895.004      549.164        0.483        0.182       77.388       17.942        0.054      332.768        1.646      865.711
03/07/2014  05:22:00      -65.770      -21.224        3.473       35.116       29.619       20.371     1233.163      877.289      414.989        0.366        0.126       69.110       18.444        0.071      332.785        1.675      865.714
03/07/2014  05:23:00      -72.008      -48.120       -0.567       29.681       26.192       20.158      880.933      686.018      406.331        0.474        0.099       86.606       19.323        0.050      332.806        1.709      865.726
03/07/2014  05:24:00     -122.926      -46.493       -8.067       29.130       19.774       17.472      848.542      390.995      305.255        0.944        0.077      131.424       12.680        0.009      332.846        1.775      865.738
03/07/2014  05:25:00     -126.337      -54.261       -8.205       30.773       33.986       19.680      946.996     1155.075      387.289        1.073        0.124      137.497       15.044        0.012      332.870        1.815      865.740
03/07/2014  05:26:00     -112.146      -43.330        6.298       30.780       36.116       20.380      947.384     1304.372      415.340        0.858        0.133      120.226       16.987        0.020      332.863        1.804      865.743
03/07/2014  05:27:00     -121.088      -21.460       -4.447       36.826       22.793       19.024     1356.140      519.523      361.913        0.869        0.112      122.975       20.749        0.028      332.816        1.725      865.744
03/07/2014  05:28:00     -117.116      -20.521       -2.381       30.390       21.388       16.332      923.564      457.464      266.741        0.790        0.082      118.901       15.984        0.018      332.798        1.696      865.738
03/07/2014  05:29:00     -116.891      -13.362       -2.148       28.723       22.832       18.478      824.990      521.315      341.434        0.777        0.084      117.652       17.218        0.021      332.712        1.553      865.743
03/07/2014  05:30:00     -101.315      -36.811       -3.079       35.167       24.018       18.746     1236.697      576.885      351.423        0.690        0.108      107.795       16.334        0.023      332.757        1.629      865.750
03/07/2014  05:31:00     -160.698      -58.095       -1.755       35.626       29.677       24.484     1269.229      880.700      599.457        1.598        0.137      170.877       21.177        0.015      332.544        1.274      865.757
03/07/2014  05:32:00     -148.411      -27.676      -12.995       26.335       23.889       16.719      693.528      570.707      279.540        1.225        0.077      150.970       12.449        0.007      332.466        1.147      865.764
03/07/2014  05:33:00     -138.117      -34.279        0.685       43.953       30.582       23.823     1931.837      935.256      567.548        1.184        0.172      142.307       21.861        0.024      332.436        1.098      865.754
03/07/2014  05:34:00     -151.048      -41.598       -2.447       34.825       28.507       20.141     1212.786      812.650      405.668        1.349        0.122      156.671       15.830        0.010      332.428        1.083      865.745
03/07/2014  05:35:00     -126.650      -38.917       -6.181       29.046       37.032       19.062      843.690     1371.356      363.367        1.009        0.129      132.494       14.669        0.012      332.469        1.152      865.729
03/07/2014  05:36:00     -113.407       -4.037       -1.539       46.898       36.933       24.319     2199.426     1364.035      591.392        0.852        0.208      113.479       24.978        0.048      332.453        1.125      865.718
03/07/2014  05:37:00     -110.429      -26.707       -2.020       31.183       31.273       18.915      972.395      978.012      357.787        0.761        0.115      113.612       16.658        0.021      332.459        1.134      865.708
03/07/2014  05:38:00      -69.484      -24.738        3.150       38.611       27.340       17.487     1490.781      747.459      305.797        0.400        0.127       73.756       18.899        0.066      332.565        1.311      865.708
03/07/2014  05:39:00      -88.597      -34.935       -3.704       41.980       31.329       15.902     1762.355      981.477      252.884        0.604        0.150       95.236       14.302        0.023      332.535        1.262      865.725
03/07/2014  05:40:00      -84.236      -29.160       -5.579       27.218       24.364       17.881      740.806      593.626      319.729        0.482        0.083       89.141       18.425        0.043      332.474        1.158      865.728
03/07/2014  05:41:00      -56.746      -12.609       -1.198       36.859       23.940       17.475     1358.617      573.121      305.390        0.281        0.112       58.130       16.577        0.081      332.565        1.309      865.742
03/07/2014  05:42:00      -44.542        7.398       -1.633       35.034       20.983       16.939     1227.356      440.302      286.935        0.200        0.098       45.153       17.075        0.143      332.520        1.235      865.737
03/07/2014  05:43:00      -81.748       12.019      -10.420       23.358       26.010       21.832      545.609      676.537      476.628        0.432        0.085       82.627       16.085        0.038      332.570        1.321      865.727
03/07/2014  05:44:00      -72.939        2.284      -12.970       26.622       31.963       20.224      708.717     1021.655      409.004        0.382        0.107       72.974        9.763        0.018      332.517        1.231      865.721
03/07/2014  05:45:00      -83.416        4.885      -12.577       31.156       34.911       22.547      970.677     1218.748      508.370        0.492        0.135       83.559       16.279        0.038      332.565        1.309      865.718
03/07/2014  05:46:00     -123.022       13.537      -13.083       43.396       35.151       22.123     1883.186     1235.624      489.446        0.955        0.180      123.765       21.095        0.029      332.538        1.265      865.723
03/07/2014  05:47:00     -131.792       17.848      -17.492       43.202       27.817       20.523     1866.452      773.801      421.180        1.053        0.153      132.995       21.136        0.025      332.553        1.289      865.713
03/07/2014  05:48:00     -133.763       -3.422      -14.863       33.689       34.186       21.678     1134.946     1168.694      469.947        1.045        0.139      133.807       18.198        0.018      332.537        1.262      865.699
03/07/2014  05:49:00     -117.414        3.412       -8.921       32.389       38.988       21.426     1049.033     1520.096      459.087        0.845        0.151      117.464       19.223        0.027      332.597        1.362      865.677
03/07/2014  05:50:00     -123.563        3.294      -18.632       29.871       28.074       22.024      892.261      788.141      485.061        0.890        0.108      123.607       13.081        0.011      332.500        1.203      865.668
03/07/2014  05:51:00     -122.521      -14.241      -11.456       24.601       29.647       17.796      605.201      878.941      316.697        0.857        0.090      123.346       13.092        0.011      332.558        1.298      865.672
03/07/2014  05:52:00      -92.550       -2.988       -8.820       32.177       35.917       21.617     1035.375     1290.020      467.308        0.572        0.140       92.598       19.099        0.043      332.614        1.391      865.683
03/07/2014  05:53:00      -80.801        8.416      -14.690       50.619       31.062       21.779     2562.233      964.872      474.324        0.541        0.200       81.239       24.558        0.091      332.717        1.561      865.689
03/07/2014  05:54:00     -100.819       19.842      -15.100       39.764       31.936       21.722     1581.141     1019.939      471.852        0.693        0.154      102.753       16.868        0.027      332.835        1.757      865.704
03/07/2014  05:55:00      -93.743        5.459      -10.156       31.577       25.519       18.638      997.092      651.227      347.367        0.546        0.100       93.902       15.754        0.028      332.783        1.670      865.713
03/07/2014  05:56:00     -114.846        7.950      -14.681       38.308       34.953       21.120     1467.480     1221.688      446.052        0.830        0.157      115.121       16.372        0.020      332.791        1.685      865.722
03/07/2014  05:57:00     -134.329       -0.554      -10.686       50.116       31.276       25.211     2511.571      978.198      635.611        1.114        0.206      134.331       26.225        0.038      332.630        1.418      865.724
03/07/2014  05:58:00     -119.584       -8.881       -9.463       56.494       26.299       18.670     3191.608      691.637      348.567        0.935        0.212      119.913       22.473        0.035      332.599        1.365      865.708
03/07/2014  05:59:00     -114.627        5.090      -10.336       41.112       33.882       23.706     1690.197     1147.983      561.984        0.834        0.170      114.740       22.751        0.039      332.634        1.424      865.695
03/07/2014  06:00:00     -115.511       22.032      -10.158       30.536       28.980       20.836      932.419      839.845      434.152        0.807        0.110      117.593       16.773        0.020      332.623        1.406      865.699
03/07/2014  06:01:00     -124.031       19.872      -13.286       42.298       38.602       22.501     1789.133     1490.096      506.281        0.987        0.189      125.613       16.904        0.018      332.549        1.283      865.703
03/07/2014  06:02:00     -106.403       -0.244      -10.645       43.698       27.552       21.798     1909.547      759.122      475.167        0.729        0.157      106.403       20.459        0.037      332.492        1.190      865.709
03/07/2014  06:03:00     -134.738      -14.074      -12.851       37.856       32.251       19.813     1433.094     1040.111      392.553        1.069        0.143      135.471       19.618        0.021      332.474        1.160      865.722
03/07/2014  06:04:00     -115.435        3.772      -22.250       28.268       26.648       23.012      799.095      710.116      529.554        0.794        0.102      115.497       22.102        0.037      332.479        1.167      865.732
03/07/2014  06:05:00     -106.365      -25.379       -8.148       32.014       25.671       16.342     1024.883      658.987      267.066        0.699        0.098      109.350       13.377        0.015      332.449        1.119      865.744
03/07/2014  06:06:00     -121.058      -38.222       -8.859       28.709       29.425       21.702      824.203      865.837      470.960        0.918        0.108      126.949       17.342        0.019      332.415        1.062      865.745
03/07/2014  06:07:00     -109.633       16.898      -10.348       39.234       35.485       22.432     1539.344     1259.150      503.186        0.786        0.165      110.927       21.712        0.038      332.435        1.095      865.746
03/07/2014  06:08:00     -115.330        8.440      -12.634       47.503       35.544       26.332     2256.537     1263.354      693.384        0.887        0.211      115.638       25.139        0.047      332.473        1.157      865.750
03/07/2014  06:09:00     -109.601       10.737       -6.231       26.777       31.304       20.263      717.019      979.918      410.585        0.714        0.105      110.126       12.966        0.014      332.775        1.658      865.758
03/07/2014  06:10:00      -78.149       12.126       -3.603       39.323       35.700       20.355     1546.330     1274.461      414.326        0.475        0.162       79.084       18.711        0.056      332.854        1.788      865.751
03/07/2014  06:11:00      -59.652        4.279       -7.484       24.749       23.927       19.915      612.488      572.507      396.589        0.261        0.079       59.805       10.776        0.032      332.733        1.589      865.757
03/07/2014  06:12:00      -56.405        9.946       -7.142       28.368       40.046       14.356      804.721     1603.648      206.094        0.297        0.131       57.276       12.359        0.047      332.633        1.423      865.762
03/07/2014  06:13:00      -45.799       10.075      -10.693       17.821       24.309       11.816      317.583      590.939      139.614        0.168        0.052       46.894       10.866        0.054      332.621        1.402      865.760
03/07/2014  06:14:00      -17.488       -2.158      -13.720       14.230       14.771        8.385      202.483      218.196       70.315        0.049        0.025       17.620        5.596        0.101      332.627        1.412      865.783
03/07/2014  06:15:00      -40.417      -19.724      -11.468       26.331       12.824        9.616      693.320      164.467       92.469        0.155        0.048       44.973        4.183        0.009      332.486        1.179      865.780
03/07/2014  06:16:00      -60.766      -22.780       -3.757       23.054       15.692       16.265      531.504      246.230      264.563        0.263        0.052       64.895       11.034        0.029      332.479        1.166      865.770
03/07/2014  06:17:00      -25.458      -26.258        8.167       40.785       23.883       21.571     1663.400      570.380      465.323        0.205        0.135       36.573       22.738        0.387      332.469        1.152      865.771
03/07/2014  06:18:00      -84.605      -25.033       -8.498       33.251       20.291       14.150     1105.645      411.738      200.232        0.479        0.086       88.231        7.262        0.007      332.403        1.042      865.761
03/07/2014  06:19:00      -63.427      -31.539       -5.083       27.236       19.872       15.412      741.798      394.884      237.522        0.321        0.069       70.836       10.425        0.022      332.447        1.114      865.756
03/07/2014  06:20:00      -71.564      -12.902       -1.969       26.085       15.742       13.858      680.425      247.799      192.041        0.321        0.056       72.718       12.275        0.028      332.458        1.134      865.761
03/07/2014  06:21:00      -68.347       -5.210       -1.840       22.197       22.582       13.241      492.727      509.938      175.322        0.294        0.059       68.545        8.941        0.017      332.498        1.199      865.781
03/07/2014  06:22:00      -66.171      -19.059       -6.548       15.672       16.516       13.626      245.597      272.784      185.673        0.274        0.035       68.861        9.748        0.020      332.535        1.259      865.786
03/07/2014  06:23:00      -58.643      -14.255       -3.540       13.481       15.837       12.604      181.736      250.795      158.857        0.212        0.030       60.350        7.586        0.016      332.484        1.176      865.798
03/07/2014  06:24:00      -53.869       -5.782       -7.213       10.502       10.592       11.744      110.301      112.200      137.918        0.167        0.018       54.179        7.313        0.018      332.492        1.189      865.809
03/07/2014  06:25:00      -45.641       -8.820       -9.959        8.467        6.741        6.616       71.693       45.438       43.766        0.121        0.008       46.486        4.241        0.008      332.512        1.223      865.806
03/07/2014  06:26:00      -31.598       -0.292       -4.498        9.431        7.425        6.248       88.937       55.134       39.038        0.060        0.009       31.600        4.661        0.022      332.572        1.322      865.792
03/07/2014  06:27:00      -23.054      -12.623        1.695       13.626       10.874        5.609      185.676      118.233       31.458        0.051        0.017       26.284        6.138        0.055      332.609        1.384      865.783
03/07/2014  06:28:00      -29.933      -17.531       -2.475       10.367        9.959        6.009      107.469       99.188       36.113        0.073        0.012       34.689        3.950        0.013      332.626        1.410      865.787
03/07/2014  06:29:00      -34.906       -2.474       -3.080        7.907        7.217        7.456       62.524       52.083       55.587        0.070        0.009       34.994        2.736        0.006      332.537        1.261      865.792
03/07/2014  06:30:00      -41.935       -4.175       -1.750        9.408        7.239        7.427       88.506       52.401       55.167        0.099        0.010       42.142        1.430        0.001      332.534        1.257      865.789
03/07/2014  06:31:00      -28.709       -4.563       -1.738        9.265        5.231        5.891       85.838       27.367       34.701        0.050        0.007       29.069        3.971        0.019      332.567        1.312      865.790
03/07/2014  06:32:00      -39.896       -8.357       -3.107        7.665        9.874        8.124       58.745       97.505       65.994        0.095        0.011       40.762        6.047        0.022      332.505        1.210      865.784
03/07/2014  06:33:00      -53.531      -14.443       -9.020       11.844        8.657        7.144      140.279       74.942       51.036        0.171        0.013       55.446        3.578        0.004      332.445        1.111      865.779
03/07/2014  06:34:00      -59.266      -32.379       -7.310       15.873       14.168        5.936      251.939      200.736       35.236        0.255        0.024       67.534        3.488        0.003      332.472        1.156      865.773
03/07/2014  06:35:00      -25.180      -24.223       -0.396       18.892       13.712       11.603      356.899      188.006      134.639        0.095        0.034       34.940       10.345        0.088      332.516        1.229      865.767
03/07/2014  06:36:00      -28.781      -31.536        4.708       33.306       19.929       17.887     1109.286      397.160      319.933        0.184        0.091       42.695       19.521        0.209      332.524        1.242      865.760
03/07/2014  06:37:00      -26.369      -21.427       14.780       26.503       20.733       20.051      702.393      429.841      402.055        0.145        0.077       33.977       14.456        0.181      332.550        1.285      865.753
03/07/2014  06:38:00      -60.830      -31.591        2.392       20.579       13.301       14.871      423.501      176.924      221.133        0.276        0.041       68.544        8.133        0.014      332.503        1.209      865.754
03/07/2014  06:39:00      -46.286      -27.964       -3.692       17.072       10.899       10.972      291.454      118.792      120.393        0.173        0.027       54.077        6.566        0.015      332.586        1.345      865.754
03/07/2014  06:40:00      -55.739      -30.993       -4.453       21.404       15.736       11.037      458.138      247.610      121.806        0.246        0.041       63.776        8.308        0.017      332.644        1.439      865.753
03/07/2014  06:41:00      -39.022       -8.153        2.620       14.576       15.476       10.584      212.453      239.504      112.028        0.108        0.028       39.864        6.048        0.023      332.626        1.410      865.756
03/07/2014  06:42:00      -53.867      -19.995       -3.289       17.596       17.629        9.179      309.629      310.796       84.254        0.201        0.035       57.458        5.830        0.010      332.611        1.386      865.765
03/07/2014  06:43:00      -44.715      -28.154       -0.467       19.887       19.862       10.349      395.507      394.518      107.095        0.184        0.045       52.840        7.358        0.019      332.672        1.487      865.775
03/07/2014  06:44:00      -41.136      -12.232       -1.743       14.539       16.412       15.094      211.385      269.365      227.828        0.128        0.035       42.916       10.914        0.065      332.616        1.394      865.780
03/07/2014  06:45:00      -39.108      -19.877       -4.627       20.264       18.739       14.277      410.615      351.156      203.837        0.146        0.048       43.870       17.062        0.151      332.618        1.397      865.787
03/07/2014  06:46:00      -26.181       -2.536        0.463       11.749       10.278        8.626      138.042      105.637       74.413        0.051        0.016       26.304        5.423        0.043      332.618        1.399      865.810
03/07/2014  06:47:00      -34.025        9.760        0.962       13.171       10.911        9.412      173.485      119.058       88.581        0.082        0.019       35.397        5.089        0.021      332.633        1.422      865.821
03/07/2014  06:48:00      -28.731        0.123       -3.599        9.383        9.963        5.738       88.043       99.268       32.924        0.053        0.011       28.731        4.274        0.022      332.639        1.433      865.835
03/07/2014  06:49:00      -28.928        1.063       -1.311       12.824        6.304        8.826      164.449       39.738       77.891        0.056        0.014       28.948        5.781        0.040      332.741        1.601      865.852
03/07/2014  06:50:00        3.934       12.484       11.489       12.390       14.114        6.757      153.507      199.192       45.655        0.035        0.020       13.089        3.487        0.071      333.009        2.044      865.866
03/07/2014  06:51:00       37.640       41.916       35.723       17.283       13.152       11.065      298.702      172.966      122.441        0.252        0.030       56.336        6.796        0.015      332.895        1.856      865.872
03/07/2014  06:52:00       68.353       40.288       24.282       18.020       10.619       15.266      324.723      112.761      233.060        0.378        0.034       79.343       11.876        0.022      332.785        1.674      865.867
03/07/2014  06:53:00       82.558       53.990        2.650       24.630       12.872       10.005      606.642      165.686      100.096        0.530        0.044       98.645        7.148        0.005      332.731        1.585      865.884
03/07/2014  06:54:00      101.709       48.114       13.135       37.326       19.673       24.542     1393.225      387.045      602.295        0.761        0.119      112.515       13.204        0.014      332.832        1.752      865.911
03/07/2014  06:55:00       83.748       62.230       33.309       28.631       21.903       26.015      819.746      479.745      676.772        0.699        0.099      104.338       20.771        0.040      332.890        1.847      865.941
03/07/2014  06:56:00       55.933       38.937       37.895       25.075       29.261       22.442      628.732      856.235      503.645        0.403        0.099       68.151       13.593        0.040      332.981        1.997      865.988
03/07/2014  06:57:00       54.945       42.094       16.019       27.079       21.494       29.110      733.299      462.011      847.402        0.354        0.102       69.216       22.235        0.103      333.009        2.045      866.008
03/07/2014  06:58:00       80.192       53.350       34.880       38.389       16.739       30.246     1473.729      280.201      914.837        0.658        0.133       96.318       18.629        0.037      332.942        1.934      866.020
03/07/2014  06:59:00       94.510       54.038       13.872       34.756       29.047       24.551     1207.971      843.708      602.733        0.735        0.133      108.868       17.717        0.026      332.878        1.830      866.007
03/07/2014  07:00:00       85.765       51.724        1.626       19.105       19.739       19.150      364.998      389.615      366.735        0.558        0.056      100.156       10.793        0.012      332.922        1.899      866.009
03/07/2014  07:01:00       74.973       59.381       34.123       37.934       25.006       27.269     1439.005      625.315      743.575        0.656        0.140       95.640       23.209        0.059      333.036        2.088      866.015
03/07/2014  07:02:00       48.969       65.345       59.382       25.647       25.552       23.428      657.743      652.886      548.888        0.603        0.093       81.657       10.560        0.017      333.039        2.095      866.016
03/07/2014  07:03:00       96.147       59.320       35.152       35.449       33.610       30.698     1256.624     1129.655      942.339        0.866        0.166      112.974       20.447        0.033      332.926        1.906      866.010
03/07/2014  07:04:00       14.821        7.037       36.240       28.477       27.437       15.904      810.935      752.792      252.942        0.170        0.091       16.406       17.774        1.174      333.229        2.406      865.993
03/07/2014  07:05:00       17.713      -29.347       19.506       19.495       31.462       19.039      380.050      989.851      362.490        0.164        0.087       34.278       19.431        0.321      333.213        2.379      865.974
03/07/2014  07:06:00       42.305       19.008       37.734       37.422       35.409       28.327     1400.391     1253.810      802.425        0.352        0.173       46.379       23.886        0.265      333.174        2.315      865.978
03/07/2014  07:07:00       73.965       36.826       28.879       33.790       19.473       28.464     1141.793      379.189      810.225        0.500        0.117       82.626       22.704        0.076      332.915        1.889      865.984
03/07/2014  07:08:00       82.219       55.901       29.653       28.664       18.075       26.464      821.603      326.694      700.322        0.631        0.092       99.423       19.416        0.038      333.007        2.041      866.002
03/07/2014  07:09:00       68.679       60.720       21.848       16.623       20.695       18.195      276.316      428.302      331.062        0.496        0.052       91.672        4.816        0.003      332.896        1.860      866.015
03/07/2014  07:10:00       38.997       43.367       38.229       16.439       21.016       19.146      270.248      441.679      366.584        0.297        0.054       58.322        9.850        0.029      333.115        2.219      866.038
03/07/2014  07:11:00       21.429        7.496       28.592       36.252       19.600       22.592     1314.174      384.171      510.419        0.177        0.110       22.702       25.965        1.308      333.313        2.547      866.041
03/07/2014  07:12:00       38.514       49.954       17.594       35.899       17.856       26.203     1288.768      318.854      686.618        0.329        0.115       63.077       16.783        0.071      333.261        2.460      866.053
03/07/2014  07:13:00       29.912       45.536       -2.951       25.229       27.265       20.156      636.488      743.359      406.280        0.238        0.089       54.482       16.039        0.087      333.229        2.407      866.043
03/07/2014  07:14:00       16.820       40.188       -4.131       21.963       29.285       19.181      482.365      857.619      367.923        0.181        0.085       43.566       14.323        0.108      333.159        2.291      866.021
03/07/2014  07:15:00        9.542       39.691        0.334       16.839       29.321       18.441      283.537      859.740      340.053        0.157        0.074       40.822       20.286        0.247      333.297        2.519      866.013
03/07/2014  07:16:00       43.672       37.004       10.809       23.714       23.331       21.904      562.338      544.353      479.770        0.249        0.079       57.241       15.701        0.075      333.217        2.387      866.003
03/07/2014  07:17:00       25.351       50.247       -3.721       18.349       21.113       18.381      336.685      445.760      337.850        0.215        0.056       56.280       14.507        0.066      333.156        2.286      866.004
03/07/2014  07:18:00       57.665       54.890       -3.438       27.898       29.956       23.790      778.278      897.374      565.955        0.430        0.112       79.612       13.913        0.031      333.140        2.260      865.997
03/07/2014  07:19:00       81.162       61.219       -7.525       14.925       19.745       21.584      222.761      389.852      465.888        0.573        0.054      101.662       10.845        0.011      332.986        2.007      865.986
03/07/2014  07:20:00       43.388       41.637      -12.515       23.248       25.870       19.063      540.456      669.283      363.394        0.267        0.079       60.134       11.384        0.036      333.097        2.190      865.969
03/07/2014  07:21:00       55.159       41.425       -6.244       22.512       27.736       18.757      506.801      769.280      351.833        0.321        0.081       68.983       10.922        0.025      333.124        2.234      865.965
03/07/2014  07:22:00       40.921       25.031       12.299       24.552       21.908       20.485      602.777      479.965      419.646        0.198        0.075       47.970       12.970        0.073      333.320        2.558      865.977
03/07/2014  07:23:00       82.370       33.630        4.210       17.937       21.225       19.199      321.725      450.493      368.587        0.454        0.057       88.971       13.414        0.023      333.078        2.157      866.001
03/07/2014  07:24:00       62.342       36.336        1.583       27.757       22.301       24.846      770.471      497.356      617.342        0.355        0.094       72.158       13.195        0.033      333.237        2.420      866.030
03/07/2014  07:25:00       45.654       48.185        0.821       25.748       25.550       21.192      662.976      652.820      449.112        0.309        0.088       66.378       15.642        0.056      333.264        2.465      866.047
03/07/2014  07:26:00       78.750       74.421       33.747       29.918       23.231       20.516      895.111      539.691      420.893        0.737        0.093      108.351       15.583        0.021      333.291        2.508      866.068
03/07/2014  07:27:00      103.832       60.419        5.441       13.966       19.864       23.855      195.044      394.583      569.077        0.781        0.058      120.131        8.509        0.005      333.085        2.168      866.086
03/07/2014  07:28:00       77.351       50.960       17.988       20.021       17.542       26.750      400.856      307.723      715.558        0.516        0.071       92.628        9.180        0.010      333.305        2.533      866.089
03/07/2014  07:29:00       59.061       33.205        7.491       29.660       28.265       29.924      879.700      798.913      895.468        0.361        0.129       67.755       12.495        0.034      333.418        2.721      866.091
03/07/2014  07:30:00       35.113       58.343        6.157       30.687       32.129       29.420      941.698     1032.263      865.555        0.376        0.142       68.094       22.906        0.113      333.513        2.876      866.085
03/07/2014  07:31:00       89.834       63.091       10.703       26.974       26.307       23.590      727.584      692.076      556.489        0.707        0.099      109.775       15.621        0.020      333.227        2.405      866.094
03/07/2014  07:32:00       98.686       50.440       -3.001       25.527       20.788       16.253      651.641      432.143      264.166        0.682        0.067      110.830        9.268        0.007      333.220        2.392      866.121
03/07/2014  07:33:00       98.501       55.678        0.268       30.031       26.852       21.105      901.841      721.011      445.414        0.743        0.103      113.148       10.749        0.009      333.279        2.489      866.146
03/07/2014  07:34:00      108.519       65.296        1.209       29.560       27.347       24.883      873.774      747.834      619.153        0.914        0.112      126.649       17.141        0.018      333.278        2.488      866.169
03/07/2014  07:35:00       66.256       58.473       -3.180       31.285       23.432       30.213      978.747      549.073      912.812        0.513        0.122       88.369       17.180        0.038      333.326        2.567      866.177
03/07/2014  07:36:00       64.210       58.921       -5.816       34.292       26.062       25.076     1175.968      679.218      628.801        0.506        0.124       87.147       10.829        0.015      333.319        2.557      866.170
03/07/2014  07:37:00       94.270       54.711        2.858       11.985       13.380       13.505      143.647      179.024      182.398        0.620        0.025      108.996        5.051        0.002      333.175        2.316      866.173
03/07/2014  07:38:00       53.006       35.516        5.692       18.496       13.332       11.489      342.106      177.730      131.987        0.238        0.033       63.805       12.031        0.036      333.154        2.283      866.183
03/07/2014  07:39:00       62.916       40.389       -7.710       28.339       19.450       17.069      803.110      378.284      291.341        0.356        0.074       74.765       15.206        0.041      333.293        2.513      866.199
03/07/2014  07:40:00       31.350       30.657        6.901       17.987       18.639       14.068      323.542      347.397      197.897        0.142        0.043       43.848        8.817        0.040      333.422        2.726      866.210
03/07/2014  07:41:00       66.992       48.185       11.218       16.288       17.339       18.647      265.297      300.652      347.710        0.392        0.046       82.521       10.840        0.017      333.530        2.905      866.204
03/07/2014  07:42:00       44.867       44.517       31.673       29.203       32.053       27.773      852.800     1027.418      771.366        0.382        0.133       63.205       11.881        0.035      333.732        3.239      866.200
03/07/2014  07:43:00       10.586       36.249       67.200       40.132       45.059       29.287     1610.542     2030.287      857.731        0.522        0.225       37.763       30.201        0.640      333.724        3.227      866.197
03/07/2014  07:44:00        7.408       14.781       54.588       21.115       39.197       24.268      445.855     1536.435      588.954        0.291        0.129       16.534       25.117        2.308      333.858        3.450      866.192
03/07/2014  07:45:00       25.699       47.028       65.113       38.803       41.223       25.803     1505.675     1699.371      665.795        0.549        0.194       53.591       27.564        0.265      333.764        3.292      866.184
03/07/2014  07:46:00       40.018       14.367       40.344       44.672       30.131       26.951     1995.610      907.890      726.357        0.353        0.181       42.518       29.565        0.484      333.845        3.427      866.188
03/07/2014  07:47:00       31.282       24.589       29.286       31.049       23.119       22.883      964.014      534.477      523.621        0.223        0.101       39.789       16.406        0.170      333.831        3.404      866.205
03/07/2014  07:48:00       45.631       38.583       38.674       35.559       32.052       40.018     1264.454     1027.350     1601.404        0.448        0.195       59.757       25.820        0.187      333.885        3.494      866.219
03/07/2014  07:49:00       73.555       61.112       25.546       37.246       24.714       36.293     1387.246      610.797     1317.217        0.656        0.166       95.630       26.217        0.075      333.592        3.007      866.217
03/07/2014  07:50:00       58.809       61.914       23.521       39.664       29.007       27.796     1573.234      841.394      772.631        0.552        0.159       85.392       17.943        0.044      333.749        3.267      866.202
03/07/2014  07:51:00       54.796       63.435       49.944       45.831       27.706       22.499     2100.491      767.601      506.216        0.645        0.169       83.825       16.927        0.041      333.896        3.511      866.198
03/07/2014  07:52:00       43.411       28.080       35.659       35.446       44.912       18.538     1256.423     2017.080      343.672        0.378        0.181       51.701       16.672        0.104      333.795        3.344      866.204
03/07/2014  07:53:00       31.480      -14.368       29.315       32.145       38.075       18.266     1033.276     1449.681      333.656        0.244        0.141       34.604       15.129        0.191      333.843        3.424      866.220
03/07/2014  07:54:00       25.045       24.777       39.270       34.385       32.565       28.350     1182.298     1060.447      803.726        0.291        0.152       35.230       23.679        0.452      334.160        3.950      866.212
03/07/2014  07:55:00       12.124       39.730       31.493       21.116       31.354       32.892      445.904      983.066     1081.912        0.261        0.126       41.539       24.857        0.358      334.070        3.800      866.212
03/07/2014  07:56:00       39.568       90.430       -6.001       35.775       43.948       26.202     1279.872     1931.448      686.523        0.684        0.195       98.708       26.724        0.073      333.965        3.626      866.200
03/07/2014  07:57:00       99.718       64.245       11.629       46.481       30.537       30.724     2160.511      932.499      943.982        0.912        0.202      118.622        6.192        0.003      333.783        3.325      866.185
03/07/2014  07:58:00       66.039       62.437       39.126       38.530       48.842       24.322     1484.599     2385.502      591.539        0.713        0.223       90.882       21.018        0.053      333.863        3.456      866.172
03/07/2014  07:59:00       56.132       55.124       42.960       28.565       31.353       31.519      815.960      982.993      993.431        0.541        0.140       78.673       24.145        0.094      333.785        3.328      866.173
03/07/2014  08:00:00       30.616      -21.639       30.592       32.736       38.551       28.271     1071.642     1486.167      799.237        0.285        0.168       37.491       27.356        0.532      334.205        4.023      866.196
03/07/2014  08:01:00       34.215       63.919       57.756       62.881       36.764       32.739     3954.040     1351.592     1071.826        0.748        0.319       72.500       25.169        0.121      334.196        4.009      866.208
03/07/2014  08:02:00      124.743       76.544        3.804       29.431       31.480       28.658      866.213      990.998      821.288        1.206        0.134      146.355       13.806        0.009      333.878        3.480      866.219
03/07/2014  08:03:00      107.900       76.773        6.714       39.248       22.664       23.184     1540.415      513.677      537.520        1.009        0.130      132.425        9.669        0.005      333.714        3.210      866.242
03/07/2014  08:04:00       64.326       61.422       36.599       54.789       38.372       30.723     3001.825     1472.446      943.923        0.733        0.271       88.941       29.158        0.107      334.118        3.879      866.251
03/07/2014  08:05:00       90.425       59.741       10.534       36.438       41.538       29.264     1327.727     1725.369      856.376        0.788        0.195      108.377       18.346        0.029      334.047        3.761      866.257
03/07/2014  08:06:00      102.494       45.450      -13.259       20.670       24.581       17.244      427.248      604.223      297.363        0.704        0.066      112.119        9.979        0.008      333.795        3.344      866.267
03/07/2014  08:07:00       79.504       22.277      -10.872       30.583       20.505       23.107      935.315      420.473      533.951        0.441        0.094       82.566       14.507        0.031      334.015        3.709      866.272
03/07/2014  08:08:00       -0.488        1.707      -11.718       20.485       12.125       18.551      419.653      147.021      344.124        0.053        0.046        1.775       16.060       81.821      334.101        3.851      866.269
03/07/2014  08:09:00        6.991       19.575       12.872       18.796       16.523       13.818      353.284      273.003      190.945        0.071        0.041       20.786        8.243        0.157      334.516        4.540      866.265
03/07/2014  08:10:00       21.895       43.903        5.216       29.008       32.769       24.590      841.449     1073.837      604.647        0.248        0.126       49.060       21.912        0.199      334.520        4.546      866.251
03/07/2014  08:11:00       -4.315       20.127       28.931       20.101       23.726       16.085      404.030      562.906      258.731        0.124        0.061       20.585       12.695        0.380      334.747        4.924      866.239
03/07/2014  08:12:00       22.693       45.806       24.231       33.463       36.086       26.707     1119.799     1302.172      713.249        0.317        0.157       51.119       25.848        0.256      334.650        4.762      866.243
03/07/2014  08:13:00       70.566       87.486       -6.782       64.050       47.961       31.909     4102.380     2300.231     1018.206        1.005        0.371      112.398       27.458        0.060      334.495        4.505      866.236
03/07/2014  08:14:00       63.068       35.493        7.244       58.056       39.653       35.868     3370.466     1572.390     1286.486        0.576        0.311       72.369       29.203        0.163      334.310        4.200      866.227
03/07/2014  08:15:00       46.411       45.994        9.044       40.045       30.121       25.041     1603.572      907.250      627.044        0.374        0.157       65.341       19.424        0.088      334.697        4.840      866.211
03/07/2014  08:16:00       20.151       29.595       10.149       24.676       27.473       23.524      608.929      754.777      553.373        0.165        0.096       35.804       14.832        0.172      334.639        4.743      866.207
03/07/2014  08:17:00       21.667        8.336       22.296       24.692       17.061       17.161      609.697      291.073      294.507        0.112        0.060       23.215        7.688        0.110      334.741        4.915      866.215
03/07/2014  08:18:00       36.729       11.419       10.328       15.571        9.765       24.492      242.446       95.351      599.858        0.126        0.047       38.463       10.782        0.079      334.185        3.992      866.217
03/07/2014  08:19:00       18.217       16.119       -3.211       25.546       16.304        9.800      652.575      265.814       96.047        0.081        0.051       24.324        9.321        0.147      334.298        4.178      866.226
03/07/2014  08:20:00       86.310       66.147       41.143       38.229       22.939       28.235     1461.439      526.200      797.195        0.815        0.139      108.742       22.093        0.041      334.309        4.196      866.234
03/07/2014  08:21:00       83.652       69.271        6.795       31.753       36.006       28.228     1008.252     1296.429      796.842        0.747        0.155      108.610       14.785        0.019      334.321        4.217      866.251
03/07/2014  08:22:00       55.486       51.164       15.676       42.028       28.263       29.877     1766.369      798.815      892.665        0.470        0.173       75.475       19.993        0.070      334.587        4.658      866.271
03/07/2014  08:23:00       65.905       21.391        9.288       33.108       30.352       23.909     1096.122      921.245      571.634        0.374        0.129       69.290        9.475        0.019      334.505        4.522      866.275
03/07/2014  08:24:00      137.575       94.128        6.762       47.400       42.493       39.016     2246.741     1805.686     1522.222        1.670        0.279      166.694       29.618        0.032      334.380        4.313      866.263
03/07/2014  08:25:00       35.315       29.486       45.398       34.877       57.818       32.826     1216.440     3342.905     1077.547        0.491        0.282       46.006       29.692        0.417      334.622        4.715      866.265
03/07/2014  08:26:00       56.809       60.754       65.948       64.176       43.772       36.917     4118.570     1915.985     1362.829        0.933        0.370       83.177       27.147        0.107      334.853        5.099      866.259
03/07/2014  08:27:00      132.874       73.819       38.007       49.251       43.266       35.487     2425.648     1871.943     1259.308        1.505        0.278      152.002       24.531        0.026      334.309        4.197      866.263
03/07/2014  08:28:00        4.437       26.885       52.230       24.557       38.825       20.792      603.040     1507.370      432.294        0.301        0.127       27.249       18.233        0.448      335.129        5.557      866.251
03/07/2014  08:29:00       38.082       90.148       58.480       47.347       49.859       42.901     2241.768     2485.940     1840.525        0.978        0.328       97.862       27.052        0.076      335.131        5.562      866.241
03/07/2014  08:30:00       75.374       90.661       -8.391       38.913       34.939       34.297     1514.186     1220.732     1176.311        0.894        0.196      117.901       16.230        0.019      334.603        4.683      866.237
03/07/2014  08:31:00      113.163       84.506       27.424       62.337       41.907       41.545     3885.847     1756.195     1725.990        1.403        0.368      141.235       37.293        0.070      334.587        4.657      866.222
03/07/2014  08:32:00      104.911       56.673       29.688       49.085       50.036       34.952     2409.308     2503.602     1221.640        1.062        0.307      119.240       23.984        0.040      334.651        4.765      866.222
03/07/2014  08:33:00       39.087       19.883       42.263       48.153       58.761       38.982     2318.751     3452.897     1519.599        0.550        0.365       43.853       36.637        0.698      335.152        5.596      866.212
03/07/2014  08:34:00       17.816       56.383       77.239       32.807       60.239       29.908     1076.271     3628.710      894.505        0.753        0.280       59.131       33.385        0.319      335.165        5.617      866.226
03/07/2014  08:35:00       79.020       35.662       37.763       61.232       45.002       43.676     3749.341     2025.200     1907.620        0.831        0.384       86.695       43.769        0.255      334.984        5.318      866.249
03/07/2014  08:36:00       35.495      105.973      101.808       70.474       61.164       68.417     4966.546     3740.980     4680.827        1.812        0.669      111.760       62.064        0.308      335.088        5.489      866.258
03/07/2014  08:37:00       57.031       77.006       67.828       77.481       43.228       38.472     6003.374     1868.654     1480.120        1.157        0.468       95.826       28.993        0.092      335.010        5.360      866.281
03/07/2014  08:38:00       96.315       43.362       18.125       53.888       36.111       38.570     2903.921     1304.006     1487.660        0.859        0.285      105.626       31.517        0.089      334.965        5.286      866.295
03/07/2014  08:39:00       33.818       44.591       55.658       45.926       59.951       54.667     2109.166     3594.066     2988.503        0.746        0.435       55.964       47.012        0.706      335.506        6.186      866.302
03/07/2014  08:40:00       64.480      103.992       97.662       68.003       53.750       38.423     4624.395     2889.079     1476.335        1.675        0.449      122.360       39.025        0.102      334.947        5.258      866.307
03/07/2014  08:41:00        1.301       33.622       60.321       41.737       62.104       37.694     1741.969     3856.935     1420.809        0.589        0.351       33.647       38.528        1.311      335.357        5.937      866.324
03/07/2014  08:42:00       45.893       40.862       15.052       41.738       55.624       42.889     1742.040     3094.019     1839.507        0.534        0.334       61.448       19.599        0.102      335.161        5.612      866.340
03/07/2014  08:43:00       59.104       80.358       61.697       32.325       30.750       32.313     1044.929      945.580     1044.119        0.840        0.152       99.753       18.865        0.036      335.316        5.869      866.334
03/07/2014  08:44:00       34.036       84.022       97.761       45.436       54.463       44.554     2064.411     2966.244     1985.082        1.239        0.351       90.654       39.068        0.186      334.993        5.333      866.329
03/07/2014  08:45:00      150.058       76.856       70.783       91.798       62.978       42.243     8426.823     3966.238     1784.506        2.380        0.709      168.595       40.709        0.058      334.926        5.218      866.331
03/07/2014  08:46:00      161.837       83.157       35.197       97.051       67.796       64.173     9418.970     4596.322     4118.162        2.624        0.907      181.951       63.073        0.120      334.977        5.304      866.342
03/07/2014  08:47:00      137.381      105.027        2.235       72.922       50.358       45.739     5317.550     2535.971     2092.066        1.993        0.497      172.928       23.469        0.018      335.019        5.372      866.356
03/07/2014  08:48:00      108.238       86.991       13.798       65.245       48.002       42.861     4256.937     2304.175     1837.063        1.393        0.420      138.863       25.995        0.035      335.082        5.480      866.354
03/07/2014  08:49:00      133.401      104.160        4.177       55.702       53.915       41.320     3102.744     2906.803     1707.320        1.819        0.386      169.249       24.407        0.021      334.969        5.292      866.347
03/07/2014  08:50:00      145.387       93.474       22.243       55.806       51.067       37.934     3114.348     2607.865     1438.953        1.876        0.358      172.843       29.878        0.030      335.036        5.402      866.337
03/07/2014  08:51:00       96.082      106.985       -0.871       64.804       59.233       55.747     4199.539     3508.550     3107.778        1.574        0.541      143.797       46.362        0.104      335.073        5.464      866.335
03/07/2014  08:52:00      127.158      100.899       16.187       78.064       65.990       57.224     6093.946     4354.741     3274.631        2.016        0.686      162.326       22.776        0.020      335.284        5.814      866.319
03/07/2014  08:53:00      180.025      112.777       29.272       52.634       39.548       47.114     2770.350     1564.030     2219.717        2.627        0.328      212.433       19.825        0.009      335.015        5.367      866.310
03/07/2014  08:54:00      119.929      122.576       73.673       85.746       57.857       58.751     7352.423     3347.418     3451.668        2.449        0.708      171.487       48.742        0.081      335.298        5.838      866.304
03/07/2014  08:55:00       49.733       83.030       81.978       76.976       56.725       41.692     5925.350     3217.767     1738.230        1.348        0.544       96.785       39.845        0.169      335.439        6.073      866.301
03/07/2014  08:56:00       -0.338       51.567      100.217       34.966       68.011       38.634     1222.640     4625.516     1492.568        1.002        0.367       51.568       37.994        0.543      335.820        6.709      866.298
03/07/2014  08:57:00       61.164       92.646       82.491       91.431       55.878       63.862     8359.624     3122.371     4078.331        1.734        0.778      111.015       61.879        0.311      335.369        5.957      866.292
03/07/2014  08:58:00      120.386       93.566        8.207       67.276       57.421       62.230     4526.110     3297.129     3872.597        1.750        0.585      152.470       39.431        0.067      335.179        5.641      866.305
03/07/2014  08:59:00      147.762      112.113        5.543       73.168       54.193       41.708     5353.628     2936.864     1739.541        2.223        0.502      185.481       24.236        0.017      335.244        5.748      866.296
03/07/2014  09:00:00       38.058       76.828        7.341       55.464       61.296       43.400     3076.237     3757.170     1883.541        0.806        0.436       85.738       36.223        0.178      335.468        6.121      866.292
03/07/2014  09:01:00       73.392      109.660        4.198       50.471       58.714       49.088     2547.290     3447.293     2409.615        1.292        0.420      131.953       41.152        0.097      335.318        5.872      866.298
03/07/2014  09:02:00       23.120       56.575       26.488       53.221       57.114       39.457     2832.490     3261.959     1556.893        0.604        0.383       61.116       33.320        0.297      335.745        6.583      866.288
03/07/2014  09:03:00       21.177       53.178        2.615       28.263       38.608       26.627      798.824     1490.602      708.975        0.314        0.150       57.240       22.998        0.161      335.800        6.674      866.295
03/07/2014  09:04:00      146.543       98.605       13.096       93.153       47.196       42.067     8677.397     2227.479     1769.614        2.202        0.634      176.629       38.438        0.047      335.619        6.371      866.294
03/07/2014  09:05:00       54.942       68.245       10.611       75.752       62.490       41.018     5738.407     3905.015     1682.452        0.955        0.566       87.613       38.040        0.189      335.543        6.247      866.295
03/07/2014  09:06:00       38.933      129.427      -10.266       44.986       57.738       34.986     2023.714     3333.695     1224.041        1.248        0.329      135.156       32.417        0.058      335.543        6.246      866.269
03/07/2014  09:07:00       32.594       96.505       15.371       50.526       63.786       49.488     2552.925     4068.645     2449.101        0.984        0.454      101.861       39.251        0.148      335.865        6.783      866.236
03/07/2014  09:08:00       16.833       98.179       97.927       46.942       52.176       51.505     2203.533     2722.364     2652.816        1.354        0.379       99.612       40.981        0.169      335.894        6.831      866.211
03/07/2014  09:09:00      216.205      108.962       26.723       70.155       61.306       61.950     4921.789     3758.412     3837.776        3.592        0.626      242.110       28.161        0.014      335.358        5.935      866.197
03/07/2014  09:10:00      152.891      101.618       16.341       52.042       41.105       41.958     2708.372     1689.608     1760.487        2.006        0.308      183.580       20.731        0.013      335.534        6.231      866.193
03/07/2014  09:11:00       75.891       91.154       -3.411       47.651       48.118       46.058     2270.623     2315.336     2121.301        1.039        0.335      118.610       31.449        0.070      335.625        6.385      866.177
03/07/2014  09:12:00       55.957       66.031       53.889       70.788       67.108       56.934     5010.943     4503.541     3241.443        1.157        0.638       86.552       37.543        0.188      335.811        6.692      866.160
03/07/2014  09:13:00       98.494      125.837      110.071       71.015       56.623       49.939     5043.172     3206.220     2493.942        2.420        0.537      159.800       41.801        0.068      335.622        6.376      866.157
03/07/2014  09:14:00       93.778       71.333       55.013       68.707       61.372       65.120     4720.710     3766.478     4240.673        1.482        0.636      117.825       44.976        0.146      335.874        6.798      866.158
03/07/2014  09:15:00       64.200       65.389       61.369       70.039       58.531       40.205     4905.392     3425.909     1616.477        1.105        0.497       91.637       32.340        0.125      336.268        7.456      866.172
03/07/2014  09:16:00      142.790       81.585       21.583       70.888       48.328       44.424     5025.153     2335.615     1973.494        1.842        0.467      164.454       28.975        0.031      335.952        6.927      866.179
03/07/2014  09:17:00      190.620      116.095       10.319       56.322       48.335       45.501     3172.133     2336.276     2070.311        2.875        0.379      223.191       17.719        0.006      335.562        6.274      866.178
03/07/2014  09:18:00       30.616        1.943       23.101       58.956       86.269       42.796     3475.769     7442.275     1831.503        0.711        0.637       30.678       38.367        1.564      336.121        7.211      866.152
03/07/2014  09:19:00       55.811        9.367       54.453       64.109       91.712       50.445     4109.948     8411.033     2544.653        1.061        0.753       56.591       52.627        0.865      336.205        7.352      866.150
03/07/2014  09:20:00       96.235      136.055       92.485       69.857       54.680       64.726     4880.012     2989.885     4189.501        2.419        0.603      166.650       45.971        0.076      336.188        7.319      866.141
03/07/2014  09:21:00       98.367      110.571       87.272      113.095       69.729       77.425    12790.497     4862.148     5994.580        2.658        1.182      147.993       79.681        0.290      336.167        7.284      866.144
03/07/2014  09:22:00       70.496       77.097       74.206       86.971       82.523       52.024     7564.001     6810.060     2706.482        1.675        0.854      104.468       25.848        0.061      336.215        7.365      866.113
03/07/2014  09:23:00       98.769     -105.244       27.269       62.243       97.956       50.432     3874.175     9595.403     2543.346        1.879        0.801      144.332       58.812        0.166      336.118        7.205      866.101
03/07/2014  09:24:00       41.204       29.351       65.748       50.332       74.844       51.499     2533.332     5601.692     2652.156        0.883        0.539       50.589       45.619        0.813      336.435        7.736      866.102
03/07/2014  09:25:00      102.523       77.652       94.488       84.291       73.088       62.336     7104.919     5341.841     3885.717        2.090        0.817      128.611       61.538        0.229      336.113        7.195      866.098
03/07/2014  09:26:00      124.524      123.057      131.060       95.514       79.760       71.569     9122.857     6361.718     5122.109        3.421        1.030      175.069       59.919        0.117      335.853        6.760      866.087
03/07/2014  09:27:00      158.287       93.132       38.117       50.876       43.068       40.740     2588.356     1854.867     1659.746        2.064        0.305      183.652       28.285        0.024      335.648        6.420      866.081
03/07/2014  09:28:00       76.189       43.548       22.726       66.179       58.520       34.078     4379.692     3424.610     1161.308        0.859        0.448       87.756       18.668        0.045      336.168        7.287      866.073
03/07/2014  09:29:00      121.829       79.096       27.500       91.412       68.011       46.789     8356.184     4625.518     2189.174        1.851        0.759      145.254       38.378        0.070      336.214        7.365      866.077
03/07/2014  09:30:00      193.914       80.297       30.761      105.686       77.401       59.196    11169.571     5990.939     3504.193        3.283        1.033      209.881       42.029        0.040      336.108        7.185      866.097
03/07/2014  09:31:00      115.706       81.665       30.958       92.133       69.455       43.707     8488.412     4824.043     1910.288        1.812        0.761      141.623       35.897        0.064      336.094        7.164      866.117
03/07/2014  09:32:00       46.832       49.785       39.829       47.709       33.133       39.072     2276.139     1097.773     1526.637        0.558        0.245       68.350       23.647        0.120      336.445        7.752      866.120
03/07/2014  09:33:00       52.394       80.888       89.322       75.191       48.715       42.806     5653.654     2373.130     1832.394        1.356        0.493       96.374       38.551        0.160      336.472        7.797      866.102
03/07/2014  09:34:00       88.284       68.561       82.448       99.299       85.757       67.773     9860.201     7354.265     4593.171        2.055        1.090      111.780       75.529        0.457      336.418        7.705      866.083
03/07/2014  09:35:00      177.475      133.453       16.513       79.824       57.490       61.002     6371.882     3305.083     3721.277        3.149        0.670      222.052       44.017        0.039      335.828        6.720      866.078
03/07/2014  09:36:00      107.890       62.390       17.127       51.931       40.979       33.091     2696.842     1679.246     1095.026        1.065        0.274      124.631       16.424        0.017      336.032        7.063      866.067
03/07/2014  09:37:00       28.146       64.545       55.718       41.246       32.951       43.037     1701.269     1085.747     1852.225        0.635        0.232       70.415       38.325        0.296      336.245        7.417      866.044
03/07/2014  09:38:00      134.271       96.250       72.296      107.232       54.876       50.884    11498.599     3011.375     2589.158        2.481        0.855      165.205       43.075        0.068      336.548        7.923      866.028
03/07/2014  09:39:00      168.518      157.720      147.858      108.911       86.449       83.396    11861.671     7473.344     6954.943        5.071        1.314      230.812       66.291        0.082      336.317        7.535      866.010
03/07/2014  09:40:00       64.541       96.498      115.210       79.889       68.569       52.288     6382.212     4701.776     2734.001        2.028        0.691      116.092       52.237        0.202      336.435        7.734      866.032
03/07/2014  09:41:00      123.964      126.790       55.203      130.793       79.593       68.398    17106.799     6334.985     4678.295        3.130        1.406      177.321       61.240        0.119      336.282        7.479      866.040
03/07/2014  09:42:00       63.422       53.397       88.482       82.492       73.689       40.452     6804.876     5430.118     1636.368        1.428        0.694       82.907       33.791        0.166      336.705        8.185      866.041
03/07/2014  09:43:00        0.435       55.821       76.570       37.965       68.663       42.832     1441.371     4714.630     1834.604        0.848        0.400       55.822       31.520        0.319      336.849        8.426      866.060
03/07/2014  09:44:00      177.185      140.945       69.947      133.613       72.559       65.026    17852.558     5264.859     4228.330        4.174        1.367      226.407       79.618        0.124      336.271        7.457      866.069
03/07/2014  09:45:00      148.436      113.969       40.013       63.486       53.082       41.214     4030.463     2817.738     1698.565        2.258        0.427      187.142       18.575        0.010      336.082        7.144      866.085
03/07/2014  09:46:00      122.430       91.402        5.418       33.155       40.176       26.957     1099.277     1614.131      726.679        1.341        0.172      152.786       16.687        0.012      336.202        7.345      866.086
03/07/2014  09:47:00      104.670       61.129       22.974       57.167       43.347       37.169     3268.066     1878.948     1381.569        1.087        0.326      121.213       19.059        0.025      336.490        7.825      866.090
03/07/2014  09:48:00       97.729       54.132       19.451       87.654       51.141       40.555     7683.172     2615.393     1644.738        1.240        0.597      111.719       37.142        0.111      336.775        8.303      866.081
03/07/2014  09:49:00      281.185      167.065       33.618       88.369       76.659       78.806     7809.045     5876.557     6210.315        6.400        0.995      327.072       38.628        0.014      336.612        8.028      866.063
03/07/2014  09:50:00      196.232      139.621       70.051       76.110       66.015       65.329     5792.805     4358.037     4267.847        3.866        0.721      240.834       24.476        0.010      336.837        8.402      866.085
03/07/2014  09:51:00      130.067      130.170       85.324       82.570       52.837       51.301     6817.811     2791.717     2631.823        2.669        0.612      184.016       40.986        0.050      336.871        8.461      866.100
03/07/2014  09:52:00       96.869       44.882       44.290       88.875       74.717       54.382     7898.829     5582.639     2957.452        1.490        0.822      106.761       46.689        0.191      337.121        8.881      866.113
03/07/2014  09:53:00       69.731       11.441       84.746       89.081      169.677       85.036     7935.409    28790.142     7231.148        2.806        2.198       70.663      106.544        2.273      336.978        8.641      866.124
03/07/2014  09:54:00       76.110       62.911       91.259       64.071      115.379       57.436     4105.093    13312.344     3298.918        1.939        1.036       98.745       70.888        0.515      336.561        7.944      866.139
03/07/2014  09:55:00       47.103       24.083       33.725       41.429      103.950       53.336     1716.383    10805.502     2844.746        0.965        0.768       52.903       24.287        0.211      336.894        8.504      866.115
03/07/2014  09:56:00      148.021      107.946        2.593       72.512       53.411       44.466     5257.964     2852.760     1977.199        2.183        0.504      183.201       19.078        0.011      336.506        7.851      866.121
03/07/2014  09:57:00      211.302      135.260       51.513      113.829       85.374       79.206    12956.981     7288.726     6273.637        4.605        1.326      250.886       62.932        0.063      336.852        8.429      866.116
03/07/2014  09:58:00       99.263      208.257      200.423      108.411       91.310       67.261    11752.852     8337.521     4524.079        5.900        1.231      230.703       59.099        0.066      336.857        8.437      866.096
03/07/2014  09:59:00      127.073      139.934       95.270       85.717       72.366       80.949     7347.459     5236.908     6552.821        3.197        0.957      189.022       52.717        0.078      336.597        8.004      866.100
03/07/2014  10:00:00      119.092      146.007       99.492      121.190       70.900       86.809    14687.046     5026.823     7535.857        3.632        1.362      188.417       69.530        0.136      337.092        8.830      866.080
03/07/2014  10:01:00      199.175      127.979       54.277       94.608       70.308       61.363     8950.646     4943.271     3765.366        3.832        0.883      236.748       13.950        0.003      336.680        8.144      866.080
03/07/2014  10:02:00      121.783      165.064      143.966       89.945       83.847       85.417     8090.171     7030.296     7296.029        4.261        1.121      205.128       84.373        0.169      336.589        7.989      866.077
03/07/2014  10:03:00      130.952      115.448       77.404       94.053       71.082       74.881     8845.965     5052.624     5607.147        2.798        0.975      174.576       68.396        0.153      336.937        8.571      866.092
03/07/2014  10:04:00      294.730      170.850       30.801      102.966       67.251       63.665    10601.984     4522.671     4053.191        6.809        0.959      340.669       42.776        0.016      336.544        7.915      866.103
03/07/2014  10:05:00      175.290      117.731       13.530       92.629       58.390       60.431     8580.087     3409.393     3651.933        3.020        0.782      211.157       34.114        0.026      336.815        8.368      866.124
03/07/2014  10:06:00      161.936      118.085       20.349       59.550       53.209       44.277     3546.158     2831.175     1960.413        2.446        0.417      200.418       11.017        0.003      336.901        8.512      866.108
03/07/2014  10:07:00      218.838      143.190       28.523      139.687      106.058       81.827    19512.583    11248.377     6695.721        5.332        1.873      261.521       46.765        0.032      337.003        8.681      866.105
03/07/2014  10:08:00      150.547       99.545       81.030      132.816       94.196       73.016    17640.195     8872.881     5331.347        3.549        1.592      180.481       76.081        0.178      337.114        8.867      866.104
03/07/2014  10:09:00       61.714      102.924      138.658       89.962      108.560       63.476     8093.139    11785.317     4029.197        2.876        1.195      120.008       65.291        0.296      337.040        8.745      866.108
03/07/2014  10:10:00      174.769      122.188       47.561      105.158       67.592       79.107    11058.163     4568.636     6257.922        3.481        1.094      213.247       50.441        0.056      336.985        8.651      866.111
03/07/2014  10:11:00      103.843       65.752       54.707       94.444       69.364       52.843     8919.576     4811.319     2792.336        1.731        0.826      122.909       40.677        0.110      337.201        9.014      866.101
03/07/2014  10:12:00      135.214      100.795       48.809      101.894       78.775       55.758    10382.487     6205.516     3108.966        2.526        0.985      168.649       31.360        0.035      337.218        9.043      866.077
03/07/2014  10:13:00      112.175      135.948      107.473       99.625       76.346       89.318     9925.107     5828.689     7977.762        3.317        1.187      176.252       79.108        0.201      337.155        8.935      866.084
03/07/2014  10:14:00       79.617      146.158      152.162       99.613       94.042       80.300     9922.832     8843.851     6448.120        3.803        1.261      166.436       66.446        0.159      336.988        8.657      866.069
03/07/2014  10:15:00       65.325      106.359      131.417       96.687      127.039       84.836     9348.409    16138.828     7197.148        3.276        1.634      124.818       81.074        0.422      337.023        8.715      866.059
03/07/2014  10:16:00      114.251      124.425       98.809      100.089       52.155       54.424    10017.824     2720.150     2961.935        2.700        0.785      168.922       59.167        0.123      336.947        8.588      866.065
03/07/2014  10:17:00      100.331      124.728      104.057       52.733       56.686       60.249     2780.769     3213.332     3629.941        2.304        0.481      160.073       41.179        0.066      336.774        8.298      866.050
03/07/2014  10:18:00      156.667      134.628      127.753      111.298       84.487       81.906    12387.289     7138.098     6708.566        4.261        1.312      206.566       81.650        0.156      337.091        8.827      866.026
03/07/2014  10:19:00      100.304      134.014      124.431      124.396       81.173       64.769    15474.273     6589.036     4195.032        3.488        1.313      167.393       72.778        0.189      337.540        9.580      866.029
03/07/2014  10:20:00      127.298      147.633       60.748      126.859       78.335       69.545    16093.328     6136.431     4836.517        3.437        1.353      194.936       70.750        0.132      337.179        8.976      866.052
03/07/2014  10:21:00      213.372      135.147       20.138       73.946       59.927       41.446     5467.990     3591.227     1717.783        3.749        0.539      252.571       17.812        0.005      336.767        8.286      866.071
03/07/2014  10:22:00       97.009       52.366       47.346      116.646       98.406       58.867    13606.196     9683.738     3465.370        2.057        1.338      110.241       24.311        0.049      337.261        9.114      866.052
03/07/2014  10:23:00      142.314      147.419       77.521       75.237       54.619       69.778     5660.573     2983.272     4868.907        3.075        0.676      204.904       58.314        0.081      337.204        9.017      866.057
03/07/2014  10:24:00       77.461       -4.092       55.174       74.297      113.719       61.839     5520.102    12931.952     3824.072        1.566        1.114       77.569       66.761        0.741      337.484        9.487      866.061
03/07/2014  10:25:00      123.689      131.366      117.620      119.189       98.596       81.174    14206.121     9721.149     6589.226        3.845        1.526      180.432       55.312        0.094      337.519        9.547      866.053
03/07/2014  10:26:00      136.799      127.907      135.947      143.019      111.291       94.638    20454.446    12385.730     8956.286        4.767        2.090      187.281       80.691        0.186      337.318        9.208      866.049
03/07/2014  10:27:00      114.524      123.330      121.392      135.108       91.699       94.010    18254.229     8408.682     8837.885        3.927        1.775      168.303       93.091        0.306      337.111        8.862      866.061
03/07/2014  10:28:00      286.843      190.595       41.592       84.881       71.479       66.869     7204.770     5109.232     4471.410        6.856        0.839      344.391       32.112        0.009      336.943        8.580      866.042
03/07/2014  10:29:00      314.161      168.105       17.590      143.798       91.950       67.728    20677.730     8454.715     4587.111        8.049        1.686      356.310       37.970        0.011      337.040        8.744      866.034
03/07/2014  10:30:00      248.020      144.391       33.526       97.596       93.648       76.596     9524.887     8769.944     5866.980        5.382        1.208      286.989       29.843        0.011      337.134        8.900      866.049
03/07/2014  10:31:00      186.792      123.168       90.030      111.477       87.766      102.739    12427.212     7702.882    10555.295        4.442        1.534      223.745       73.955        0.109      337.312        9.199      866.049
03/07/2014  10:32:00      182.335      118.521       75.919      174.021       91.518       73.925    30283.419     8375.472     5464.873        4.858        2.206      217.470       56.974        0.069      337.454        9.436      866.042
03/07/2014  10:33:00      153.474      175.305      125.091      112.673       86.508       88.558    12695.194     7483.562     7842.572        4.897        1.401      232.994       73.509        0.100      337.634        9.738      866.051
03/07/2014  10:34:00      226.754      160.138       58.456       79.969       73.178       75.416     6395.043     5355.029     5687.561        4.895        0.872      277.600       51.837        0.035      336.889        8.491      866.075
03/07/2014  10:35:00       29.943      -48.878       68.511       46.658      102.308       42.483     2176.982    10466.876     1804.791        1.121        0.722       57.321       40.314        0.495      337.531        9.568      866.068
03/07/2014  10:36:00      137.743       75.817       73.751      105.712       68.028       66.499    11174.986     4627.827     4422.156        2.519        1.011      157.230       58.779        0.140      337.410        9.364      866.079
03/07/2014  10:37:00      110.651      122.649       66.808       95.383       59.685       64.671     9097.877     3562.312     4182.297        2.429        0.842      165.186       32.937        0.040      337.408        9.362      866.073
03/07/2014  10:38:00       42.333       44.439       92.792       68.723       79.512       65.537     4722.813     6322.186     4295.130        1.386        0.767       61.375       65.638        1.144      337.484        9.489      866.078
03/07/2014  10:39:00       74.644       31.354        6.006       76.137       40.203       47.267     5796.831     1616.260     2234.140        0.812        0.482       80.962       21.389        0.070      336.990        8.662      866.089
03/07/2014  10:40:00       40.749       51.334       63.411       37.699       33.253       24.865     1421.206     1105.738      618.292        0.573        0.157       65.541       21.895        0.112      337.417        9.377      866.078
03/07/2014  10:41:00       75.652       81.257       40.865       39.253       33.955       27.030     1540.759     1152.975      730.628        0.871        0.171      111.023       12.146        0.012      337.093        8.834      866.055
03/07/2014  10:42:00       45.578       88.525       97.873       69.348       96.107       70.248     4809.167     9236.612     4934.741        1.923        0.949       99.569       79.127        0.632      337.629        9.732      866.031
03/07/2014  10:43:00      139.918      122.446      121.898      123.108      126.170      104.190    15155.655    15918.904    10855.469        4.567        2.097      185.930      103.353        0.309      337.176        8.972      866.029
03/07/2014  10:44:00      101.498      101.276       57.335       73.350       82.992       76.238     5380.279     6887.591     5812.156        2.096        0.904      143.383       48.020        0.112      337.256        9.106      866.002
03/07/2014  10:45:00       42.506       30.088       71.679       55.747       85.169       43.867     3107.773     7253.765     1924.289        1.007        0.614       52.077       39.081        0.563      338.002       10.358      865.981
03/07/2014  10:46:00       41.162       -0.896       48.467       59.093       76.459       49.635     3491.995     5845.975     2463.679        0.792        0.590       41.172       40.291        0.958      337.801       10.021      865.961
03/07/2014  10:47:00      132.231       78.755       85.977      134.278      138.491       89.161    18030.452    19179.822     7949.653        3.811        2.258      153.907       77.953        0.257      337.652        9.770      865.936
03/07/2014  10:48:00      164.492      140.938       98.374      128.089      103.679       96.735    16406.867    10749.246     9357.620        4.655        1.826      216.612       82.598        0.145      337.393        9.334      865.945
03/07/2014  10:49:00      144.961       69.093       43.282       94.979       87.542       72.504     9020.919     7663.651     5256.844        2.480        1.097      160.585       56.183        0.122      337.347        9.257      865.952
03/07/2014  10:50:00      159.350       26.760       38.362      113.862      109.196       53.474    12964.599    11923.774     2859.463        2.766        1.387      161.581       39.271        0.059      337.715        9.875      865.946
03/07/2014  10:51:00       61.999        0.576       79.753       95.246       73.847       51.669     9071.763     5453.355     2669.676        1.370        0.860       62.002       36.583        0.348      337.995       10.345      865.944
03/07/2014  10:52:00       71.583      -65.829       58.619       80.893      157.097       67.164     6543.624    24679.542     4510.970        2.431        1.787       97.250       71.510        0.541      338.258       10.786      865.945
03/07/2014  10:53:00       59.936       28.516       33.589      105.589       77.668       54.752    11148.993     6032.355     2997.743        1.285        1.009       66.374       22.586        0.116      338.331       10.909      865.970
03/07/2014  10:54:00       95.866      128.926      117.650      113.617       90.913       51.569    12908.844     8265.138     2659.399        3.174        1.192      160.662       44.473        0.077      337.700        9.848      865.996
03/07/2014  10:55:00       67.443       66.850       41.429       85.660       85.928       67.732     7337.557     7383.649     4587.577        1.502        0.965       94.960       41.474        0.191      337.536        9.576      865.997
03/07/2014  10:56:00        4.686      145.176      164.556       48.849       64.358       43.988     2386.213     4142.005     1934.922        2.832        0.423      145.251       42.532        0.086      337.498        9.510      865.981
03/07/2014  10:57:00       36.705       -5.077       40.387       62.418       75.512       55.803     3895.955     5702.095     3113.988        0.786        0.636       37.054       59.089        2.543      337.649        9.767      865.993
03/07/2014  10:58:00        3.426        7.813       49.415       29.858       74.331       53.749      891.475     5525.101     2888.975        0.591        0.465        8.532       59.957       49.386      337.747        9.930      866.002
03/07/2014  10:59:00      107.131       75.112       35.213       57.464       40.838       38.256     3302.169     1667.765     1463.502        1.239        0.322      130.839       11.421        0.008      337.677        9.813      865.999
03/07/2014  11:00:00       48.521       87.919       83.487       60.399       62.119       54.458     3648.034     3858.774     2965.625        1.376        0.524      100.419       43.203        0.185      338.232       10.743      865.982
03/07/2014  11:01:00        9.629       85.875      118.287       80.942      106.453       61.584     6551.533    11332.231     3792.627        2.156        1.084       86.413       68.910        0.636      338.067       10.465      865.964
03/07/2014  11:02:00       99.705       75.162       32.533       73.032       68.326       64.604     5333.618     4668.509     4173.694        1.541        0.709      124.862       13.695        0.012      337.836       10.077      865.976
03/07/2014  11:03:00      129.781       -7.294       90.319      130.338      165.175       96.811    16988.118    27282.887     9372.415        3.934        2.682      129.986      115.816        0.794      338.144       10.593      865.956
03/07/2014  11:04:00      184.484       73.315       47.431       93.564       68.337       55.838     8754.169     4669.930     3117.863        2.910        0.827      198.518       42.246        0.045      337.489        9.496      865.976
03/07/2014  11:05:00      148.597      108.468       66.971       90.422       80.110       66.530     8176.172     6417.545     4426.299        2.867        0.951      183.974       41.483        0.051      337.716        9.874      865.950
03/07/2014  11:06:00       77.890       62.981       64.365       85.863       68.396       65.337     7372.488     4678.036     4268.926        1.524        0.816      100.168       49.365        0.243      338.151       10.608      865.981
03/07/2014  11:07:00      189.789      140.001       10.310       87.384       77.796       72.282     7636.024     6052.224     5224.731        3.732        0.946      235.839       44.628        0.036      337.767        9.962      865.992
03/07/2014  11:08:00      198.953      114.254       32.967      113.680       68.064       66.095    12923.223     4632.651     4368.600        3.782        1.096      229.425       17.721        0.006      337.641        9.751      865.974
03/07/2014  11:09:00      109.175       72.883       92.311      107.872       91.486       73.802    11636.303     8369.640     5446.743        2.560        1.273      131.267       61.123        0.217      338.035       10.412      865.966
03/07/2014  11:10:00       89.657      -86.336       28.855       66.234      127.121       58.264     4386.960    16159.757     3394.726        2.013        1.197      124.468       71.969        0.334      337.680        9.817      866.001
03/07/2014  11:11:00       94.149       48.276       16.388       45.523       34.551       30.777     2072.352     1193.766      947.250        0.784        0.211      105.804       21.938        0.043      337.600        9.682      866.000
03/07/2014  11:12:00      255.899      167.662       52.647      134.467       92.328       72.901    18081.389     8524.418     5314.553        6.414        1.596      305.933       21.980        0.005      337.607        9.693      865.988
03/07/2014  11:13:00      107.921      118.558      117.865      100.847       69.623       49.274    10170.195     4847.426     2427.934        2.852        0.872      160.321       38.170        0.057      337.859       10.116      865.989
03/07/2014  11:14:00      119.692      121.625       99.382      138.270       86.040       70.027    19118.657     7402.863     4903.821        3.520        1.571      170.643       63.981        0.141      337.882       10.155      865.982
03/07/2014  11:15:00      238.893       97.781       39.398      101.581       85.169       74.072    10318.601     7253.771     5486.645        4.562        1.153      258.130       51.561        0.040      337.460        9.445      865.975
03/07/2014  11:16:00      148.945       86.466       91.178       81.227       71.945       79.416     6597.876     5176.027     6306.921        2.802        0.904      172.224       60.906        0.125      337.564        9.623      865.986
03/07/2014  11:17:00      129.984       46.731       59.086      127.789      112.057       79.126    16330.057    12556.733     6260.872        2.885        1.757      138.129       61.743        0.200      337.677        9.811      865.965
03/07/2014  11:18:00      214.827      155.720      119.702      132.154       76.873       81.376    17464.804     5909.448     6622.131        5.736        1.500      265.329       76.269        0.083      337.698        9.844      865.956
03/07/2014  11:19:00      109.038       70.144       82.915       70.141       59.466       53.667     4919.762     3536.155     2880.121        1.751        0.567      129.651       41.624        0.103      337.751        9.936      865.996
03/07/2014  11:20:00      104.320      103.555       14.238       74.523       77.072       52.748     5553.625     5940.119     2782.330        1.804        0.714      146.991       42.165        0.082      337.736        9.910      865.993
03/07/2014  11:21:00       60.235      127.338      -13.752       72.131       69.733       45.373     5202.931     4862.703     2058.754        1.608        0.606      140.866       36.279        0.066      337.659        9.783      865.983
03/07/2014  11:22:00       25.800      115.676      -15.770       43.066       61.438       34.847     1854.649     3774.617     1214.314        1.057        0.342      118.518       24.712        0.043      337.529        9.565      865.963
03/07/2014  11:23:00       -2.747      201.884      -26.050       31.636       42.111       20.317     1000.860     1773.339      412.776        2.231        0.159      201.903       17.387        0.007      337.420        9.380      865.948
03/07/2014  11:24:00      -12.342      144.140       -4.785       35.025       53.716       35.275     1226.775     2885.406     1244.348        1.315        0.268      144.667       32.225        0.050      337.958       10.285      865.935
03/07/2014  11:25:00       82.157       69.603       16.939       49.925       43.107       41.763     2492.538     1858.255     1744.179        0.899        0.305      107.677       26.179        0.059      338.148       10.602      865.924
03/07/2014  11:26:00      105.263       81.576       54.824      105.978       64.505       62.525    11231.394     4160.935     3909.403        2.002        0.965      133.173       25.233        0.036      338.490       11.177      865.937
03/07/2014  11:27:00       15.636      103.780      138.971       69.925       82.239       52.544     4889.575     6763.181     2760.860        2.237        0.721      104.952       48.977        0.218      338.756       11.623      865.933
03/07/2014  11:28:00       38.293       73.364      100.694       68.330       85.033       69.374     4669.025     7230.692     4812.766        1.685        0.836       82.757       61.353        0.550      338.647       11.439      865.940
03/07/2014  11:29:00       89.588      -49.119       39.025       75.480      150.508       82.538     5697.264    22652.539     6812.533        2.355        1.758      102.169       97.305        0.907      338.440       11.093      865.934
03/07/2014  11:30:00      118.971        9.609       78.979       80.447      157.643       98.820     6471.681    24851.193     9765.437        3.078        2.054      119.358      109.507        0.842      338.243       10.760      865.927
03/07/2014  11:31:00       85.742      -30.613       53.502       94.666       86.176       58.017     8961.668     7426.280     3365.948        1.545        0.988       91.043       59.429        0.426      338.474       11.148      865.934
03/07/2014  11:32:00       36.485       84.760      126.906       72.206       78.646       55.618     5213.718     6185.233     3093.406        1.955        0.725       92.279       52.311        0.321      338.894       11.853      865.936
03/07/2014  11:33:00      226.645      114.771       58.377      113.152       90.763       76.164    12803.317     8237.897     5800.966        4.739        1.342      254.048       47.103        0.034      338.227       10.731      865.928
03/07/2014  11:34:00      218.191      122.569       71.135      128.085      105.612       85.182    16405.766    11153.921     7255.919        5.125        1.741      250.261       58.019        0.054      338.105       10.528      865.961
03/07/2014  11:35:00       84.606       73.661       98.242       75.014       98.124       58.377     5627.074     9628.338     3407.849        2.045        0.933      112.179       56.168        0.251      338.274       10.812      866.005
03/07/2014  11:36:00      100.173       58.415       94.483       66.871       73.531       48.983     4471.776     5406.771     2399.300        1.732        0.614      115.961       36.530        0.099      337.958       10.284      866.012
03/07/2014  11:37:00      104.712      -26.675       44.469       60.364       85.614       51.525     3643.784     7329.726     2654.795        1.364        0.681      108.057       47.885        0.196      338.310       10.874      866.009
03/07/2014  11:38:00      127.794       59.662       56.773       80.384       75.641       48.678     6461.596     5721.547     2369.584        1.883        0.728      141.035       34.611        0.060      338.048       10.434      866.028
03/07/2014  11:39:00      107.279       95.340       14.507       68.897       63.940       47.871     4746.759     4088.260     2291.589        1.597        0.556      143.522       38.686        0.073      337.923       10.225      865.992
03/07/2014  11:40:00      102.194       89.787       23.978       69.416       55.861       56.800     4818.587     3120.417     3226.264        1.512        0.558      136.034       19.357        0.020      338.431       11.078      865.984
03/07/2014  11:41:00      167.875       81.957        7.805       70.507       44.984       43.920     4971.296     2023.572     1928.933        2.194        0.446      186.813       35.226        0.036      337.908       10.198      865.981
03/07/2014  11:42:00      168.600       84.873       31.265       94.238       62.587       57.160     8880.712     3917.107     3267.264        2.633        0.803      188.757       33.010        0.031      338.232       10.741      865.975
03/07/2014  11:43:00       86.355      111.795        0.513       73.773       78.573       47.365     5442.455     6173.794     2243.484        1.690        0.693      141.263       41.665        0.087      338.084       10.497      865.976
03/07/2014  11:44:00       40.922      145.744      -12.960       57.172       55.159       49.116     3268.649     3042.492     2412.377        1.590        0.436      151.380       39.083        0.067      337.862       10.121      865.972
03/07/2014  11:45:00       58.646      125.566       -3.111       61.493       67.833       42.933     3781.339     4601.251     1843.200        1.472        0.511      138.586       34.518        0.062      338.008       10.366      865.943
03/07/2014  11:46:00       27.178      -50.943        9.036       72.979      108.598       39.679     5325.979    11793.523     1574.425        1.105        0.935       57.739       34.530        0.358      338.156       10.617      865.936
03/07/2014  11:47:00       12.184       80.814      -19.018       37.120       74.481       35.614     1377.864     5547.395     1268.382        0.762        0.410       81.728       36.453        0.199      338.304       10.865      865.934
03/07/2014  11:48:00       -6.800       64.576       15.744       31.653       46.193       34.815     1001.911     2133.832     1212.071        0.441        0.217       64.933       22.551        0.121      338.701       11.533      865.924
03/07/2014  11:49:00       10.947       57.859        8.315       28.834       61.674       31.609      831.386     3803.729      999.118        0.458        0.282       58.885       35.752        0.369      338.496       11.186      865.936
03/07/2014  11:50:00       74.849     -111.276       -2.255       73.804       73.426       33.939     5447.057     5391.444     1151.839        1.499        0.600      134.107       44.502        0.110      338.262       10.793      865.940
03/07/2014  11:51:00       42.748      -55.941       46.219       92.734      100.926       63.294     8599.573    10186.111     4006.165        1.494        1.140       70.404       53.139        0.570      338.492       11.179      865.894
03/07/2014  11:52:00       36.233       69.761       79.977       74.434       65.501       91.304     5540.492     4290.425     8336.442        1.537        0.908       78.609       42.236        0.289      338.599       11.359      865.913
03/07/2014  11:53:00      -65.231      -26.646        2.789       50.786       69.124       30.960     2579.225     4778.091      958.549        0.664        0.416       70.464       10.455        0.022      338.448       11.106      865.922
03/07/2014  11:54:00      -78.468      -53.345        9.779       94.292       52.888       42.675     8890.948     2797.130     1821.145        1.130        0.675       94.884       43.559        0.211      338.150       10.606      865.913
03/07/2014  11:55:00      -86.210      -58.213        3.656       71.733       53.224       33.986     5145.591     2832.779     1155.068        0.998        0.457      104.023       27.742        0.071      338.253       10.779      865.904
03/07/2014  11:56:00      -78.482      -81.926        4.036       83.634       66.548       44.686     6994.606     4428.622     1996.818        1.315        0.671      113.452       27.781        0.060      338.345       10.932      865.890
03/07/2014  11:57:00      -91.260      -50.995       33.490      110.101       78.083       51.155    12122.309     6096.919     2616.845        1.644        1.042      104.541       54.767        0.274      338.371       10.977      865.897
03/07/2014  11:58:00      -14.142      -37.084        1.244       72.572       40.927       28.150     5266.650     1675.052      792.445        0.465        0.387       39.689       16.174        0.166      338.291       10.841      865.886
03/07/2014  11:59:00       31.910      -91.843       27.601       94.066       80.439       54.777     8848.365     6470.358     3000.556        1.426        0.916       97.228       36.284        0.139      338.333       10.912      865.878
03/07/2014  12:00:00       70.424       36.157      103.602       78.011      150.214      100.618     6085.767    22564.174    10123.916        2.788        1.939       79.164      115.612        2.133      338.247       10.766      865.850
03/07/2014  12:01:00      119.120     -133.738      -10.670       49.679       56.664       29.628     2467.982     3210.789      877.791        1.937        0.328      179.097       24.092        0.018      337.964       10.293      865.863
03/07/2014  12:02:00       19.799      -91.195       -4.864       22.426       41.248       29.305      502.929     1701.382      858.806        0.590        0.153       93.320       27.407        0.086      337.723        9.890      865.864
03/07/2014  12:03:00      -63.864       -4.522        6.224       38.034       51.786       23.475     1446.623     2681.782      551.060        0.441        0.234       64.024       15.173        0.056      338.320       10.893      865.818
03/07/2014  12:04:00      -55.353       29.895      -11.234       35.973       25.182       20.888     1294.052      634.145      436.316        0.322        0.118       62.910       14.127        0.050      338.063       10.458      865.804
03/07/2014  12:05:00      -58.307      -22.627       -1.663       44.450       32.552       22.261     1975.825     1059.601      495.539        0.372        0.177       62.543       23.983        0.147      338.065       10.463      865.768
03/07/2014  12:06:00        0.847      -79.122        7.636       47.807       98.670       39.852     2285.473     9735.691     1588.206        0.996        0.680       79.126       39.094        0.244      338.872       11.820      865.742
03/07/2014  12:07:00       28.875       30.745       66.104       55.767       97.524       59.731     3109.997     9510.838     3567.811        1.117        0.809       42.179       63.348        2.256      338.447       11.106      865.737
03/07/2014  12:08:00       17.345       54.281       16.221       27.931       38.210       27.597      780.127     1460.041      761.616        0.326        0.150       56.985       27.698        0.236      338.153       10.610      865.726
03/07/2014  12:09:00       21.545       45.970        4.823       40.006       41.391       38.648     1600.518     1713.221     1493.663        0.370        0.240       50.769       30.641        0.364      338.440       11.093      865.726
03/07/2014  12:10:00       -4.179       24.113       13.407       21.637       32.784       20.449      468.163     1074.805      418.165        0.137        0.098       24.472       17.837        0.531      338.981       12.003      865.713
03/07/2014  12:11:00       44.913       48.458       18.733       60.233       33.851       36.794     3627.958     1145.872     1353.803        0.542        0.306       66.070       31.858        0.233      338.709       11.544      865.727
03/07/2014  12:12:00      102.556       64.768       23.688       89.790       55.249       50.048     8062.177     3052.487     2504.795        1.444        0.681      121.295       24.679        0.041      338.797       11.693      865.715
03/07/2014  12:13:00      102.115      104.174       78.537      112.240       59.515       91.615    12597.906     3542.014     8393.323        2.599        1.227      145.876       83.968        0.331      338.680       11.494      865.690
03/07/2014  12:14:00       80.337       97.936        1.303       63.497       51.604       43.783     4031.903     2662.942     1916.933        1.233        0.431      126.670       24.805        0.038      338.435       11.084      865.699
03/07/2014  12:15:00        4.465      141.297      -18.355       43.638       76.399       30.447     1904.280     5836.864      926.995        1.449        0.433      141.367       32.996        0.054      338.144       10.596      865.687
03/07/2014  12:16:00        2.135      143.730      -11.876       30.135       72.676       31.022      908.139     5281.742      962.383        1.398        0.358      143.746       35.277        0.060      338.395       11.017      865.691
03/07/2014  12:17:00       -3.765       85.513        2.261       25.518       55.127       32.758      651.174     3039.017     1073.076        0.605        0.238       85.596       33.427        0.153      338.596       11.355      865.701
03/07/2014  12:18:00     -101.930       53.949       -2.354       47.612       61.692       37.742     2266.873     3805.925     1424.496        1.040        0.375      115.326       34.096        0.087      338.599       11.360      865.688
03/07/2014  12:19:00     -108.107      109.478      -15.293       52.719       49.663       36.912     2779.288     2466.375     1362.469        1.526        0.330      153.859       34.754        0.051      338.537       11.256      865.661
03/07/2014  12:20:00      -86.281       36.262      -18.366       33.862       33.164       19.201     1146.606     1099.874      368.673        0.586        0.131       93.592       11.927        0.016      338.056       10.449      865.643
03/07/2014  12:21:00       17.011        0.229        2.937       26.718       18.307       26.033      713.864      335.161      677.737        0.101        0.086       17.012       16.419        0.931      338.536       11.255      865.610
03/07/2014  12:22:00      -11.812      -73.372      -19.265       31.390       41.851       31.665      985.306     1751.526     1002.649        0.482        0.187       74.317       24.624        0.110      338.361       10.961      865.607
03/07/2014  12:23:00     -110.331      -19.356       -6.067       75.080       61.590       26.200     5637.068     3793.369      686.456        1.135        0.506      112.016       24.103        0.046      338.383       10.997      865.577
03/07/2014  12:24:00      -43.029     -106.004       14.844       83.476       56.023       56.817     6968.204     3138.623     3228.123        1.332        0.667      114.404       43.587        0.145      338.941       11.935      865.544
03/07/2014  12:25:00       22.462      -11.304       79.319       62.800       81.872       51.884     3943.839     6703.094     2691.905        1.013        0.667       25.146       36.919        2.156      339.418       12.738      865.540
03/07/2014  12:26:00       17.853     -106.501       11.717       93.008       80.199       58.843     8650.417     6431.924     3462.555        1.517        0.927      107.987       68.737        0.405      338.870       11.815      865.552
03/07/2014  12:27:00       22.498      -16.213       19.806       34.864       41.321       52.526     1215.493     1707.456     2758.958        0.342        0.284       27.731       27.956        1.016      338.850       11.781      865.538
03/07/2014  12:28:00     -106.783      -44.493       -3.161       89.250       69.781       31.436     7965.516     4869.450      988.214        1.360        0.691      115.682       33.193        0.082      338.570       11.310      865.493
03/07/2014  12:29:00      -93.745      -19.245       -3.079       40.294       27.825       18.202     1623.600      774.213      331.312        0.595        0.136       95.700       11.532        0.015      338.137       10.585      865.504
03/07/2014  12:30:00      132.270     -205.038       -9.322      134.243      105.357       66.806    18021.314    11100.091     4463.099        4.660        1.679      244.000       79.887        0.107      338.744       11.601      865.477
03/07/2014  12:31:00       41.313     -148.621      -12.674       62.413       90.897       54.311     3895.434     8262.283     2949.738        1.953        0.755      154.256       36.874        0.057      338.576       11.321      865.466
03/07/2014  12:32:00      107.640     -208.569      -28.130       86.582       82.373       44.687     7496.448     6785.268     1996.922        3.608        0.814      234.707       40.708        0.030      338.559       11.289      865.438
03/07/2014  12:33:00      121.257      -96.374       17.386       72.113      129.487       58.157     5200.264    16766.950     3382.184        2.482        1.267      154.891       75.980        0.241      338.510       11.209      865.440
03/07/2014  12:34:00      -48.825      -58.538      -13.316       61.100      129.587       34.814     3733.266    16792.786     1212.033        1.386        1.087       76.228       32.525        0.182      338.344       10.931      865.409
03/07/2014  12:35:00      -38.316      -12.913       16.978       55.830       41.490       29.015     3117.003     1721.461      841.872        0.380        0.284       40.433       27.633        0.467      338.907       11.878      865.400
03/07/2014  12:36:00      -61.947      -40.307       15.499       63.538       49.331       35.870     4037.083     2433.588     1286.639        0.673        0.388       73.906       33.930        0.211      338.705       11.538      865.382
03/07/2014  12:37:00      -79.373      -34.552        3.182       53.596       54.810       29.990     2872.585     3004.086      899.388        0.714        0.339       86.567       22.137        0.065      338.828       11.745      865.348
03/07/2014  12:38:00      -26.226        4.589       24.730       42.718       25.831       26.547     1824.788      667.250      704.750        0.226        0.160       26.624       24.242        0.829      339.374       12.663      865.313
03/07/2014  12:39:00        3.505       12.304       17.822       71.210       33.991       23.957     5070.863     1155.355      573.936        0.364        0.340       12.794       28.718        5.039      339.368       12.655      865.326
03/07/2014  12:40:00       39.351       16.834       57.784       67.056       63.563       45.938     4496.459     4040.225     2110.275        0.791        0.532       42.800       28.047        0.429      339.320       12.572      865.325
03/07/2014  12:41:00       89.848       29.495       66.160       67.711       64.743       48.659     4584.815     4191.663     2367.672        1.223        0.557       94.566       35.652        0.142      338.908       11.878      865.313
03/07/2014  12:42:00       25.193      -90.851       33.672       89.304       95.028       55.517     7975.135     9030.392     3082.106        1.505        1.004       94.279       49.560        0.276      339.229       12.419      865.297
03/07/2014  12:43:00      111.227       99.714       81.568       78.593       65.792       76.933     6176.796     4328.535     5918.719        2.269        0.821      149.380       57.332        0.147      338.697       11.523      865.296
03/07/2014  12:44:00      112.233       41.118       35.815       61.701       59.867       46.882     3806.955     3584.047     2197.946        1.258        0.479      119.528       27.926        0.055      338.730       11.580      865.277
03/07/2014  12:45:00      -14.694        2.687       43.093       32.005       46.359       38.975     1024.332     2149.178     1519.073        0.339        0.235       14.938       29.927        4.014      339.526       12.921      865.252
03/07/2014  12:46:00        9.526       31.074       40.026       46.942       47.504       41.002     2203.578     2256.626     1681.126        0.440        0.307       32.501       28.519        0.770      339.638       13.109      865.219
03/07/2014  12:47:00       19.245       -6.559        5.483       29.038       53.828       26.477      843.207     2897.492      701.053        0.244        0.222       20.332       23.271        1.310      338.773       11.652      865.191
03/07/2014  12:48:00       55.130      -81.491       13.934       97.973       80.229       56.512     9598.759     6436.694     3193.626        1.455        0.961       98.387       51.920        0.278      339.511       12.894      865.169
03/07/2014  12:49:00      102.874      -62.975       33.622       82.691      126.727       69.134     6837.748    16059.836     4779.449        2.167        1.384      120.619       87.681        0.528      339.029       12.081      865.163
03/07/2014  12:50:00      132.623       88.544       91.194       70.845       68.166       62.465     5019.053     4646.596     3901.920        2.365        0.678      159.464       38.074        0.057      338.928       11.910      865.154
03/07/2014  12:51:00      101.930      132.643      121.672       94.188       80.713       65.953     8871.356     6514.584     4349.814        3.126        0.987      167.284       59.225        0.125      339.078       12.163      865.148
03/07/2014  12:52:00      159.390      103.878       34.113       92.309       72.824       63.304     8521.027     5303.263     4007.367        2.759        0.892      190.252       37.768        0.039      338.963       11.971      865.140
03/07/2014  12:53:00      130.193       50.220       24.911       93.613       58.651       56.425     8763.406     3439.919     3183.785        1.774        0.769      139.543       31.626        0.051      339.370       12.657      865.127
03/07/2014  12:54:00      101.556      104.308       -3.048       66.021       66.316       56.497     4358.821     4397.840     3191.899        1.657        0.597      145.581       47.192        0.105      338.811       11.716      865.103
03/07/2014  12:55:00       18.568       84.574       72.614       58.156       49.847       57.246     3382.095     2484.757     3277.083        1.096        0.457       86.589       29.355        0.115      339.294       12.530      865.082
03/07/2014  12:56:00       71.293       66.155       30.578       65.939       46.771       50.514     4347.991     2187.564     2551.636        0.974        0.454       97.259       46.142        0.225      339.127       12.249      865.096
03/07/2014  12:57:00       -0.242       75.415       -1.192       77.967       42.047       43.489     6078.853     1767.941     1891.285        0.771        0.487       75.415       27.176        0.130      338.894       11.856      865.081
03/07/2014  12:58:00       55.230       60.257       39.276       94.812       69.759       40.353     8989.332     4866.348     1628.375        1.185        0.774       81.739       48.402        0.351      339.063       12.139      865.075
03/07/2014  12:59:00      100.453      105.562       86.415       74.257       43.334       40.590     5514.029     1877.827     1647.572        1.887        0.452      145.719       26.695        0.034      339.189       12.351      865.062
03/07/2014  13:00:00        4.859      -66.705        7.313       47.583       78.726       46.432     2264.154     6197.818     2155.940        0.757        0.531       66.882       46.875        0.491      339.582       13.016      865.052
03/07/2014  13:01:00       69.283     -117.605        4.023       58.037       95.341       49.556     3368.307     9089.823     2455.781        1.678        0.746      136.495       57.946        0.180      338.886       11.841      865.020
03/07/2014  13:02:00       -0.337     -121.218        0.963       95.032       94.366       59.874     9031.138     8904.939     3584.888        1.810        1.076      121.219       27.015        0.050      338.977       11.993      864.993
03/07/2014  13:03:00       27.536      -88.554        1.391       42.245       59.687       42.690     1784.614     3562.510     1822.457        0.788        0.358       92.736       35.659        0.148      339.242       12.441      864.992
03/07/2014  13:04:00       34.380      -60.097       32.184       69.446      106.671       61.295     4822.695    11378.640     3757.120        1.289        0.998       69.236       67.142        0.940      339.415       12.732      864.973
03/07/2014  13:05:00      -14.020     -168.260      -12.633       98.330       80.776       50.732     9668.874     6524.783     2573.772        2.371        0.938      168.843       14.638        0.008      339.270       12.486      864.995
03/07/2014  13:06:00       58.960     -133.970        5.615       69.246      107.052       54.072     4795.011    11460.194     2923.821        2.031        0.959      146.370       60.120        0.169      339.023       12.072      865.014
03/07/2014  13:07:00       52.871      -55.983       32.601       45.396       98.669       48.991     2060.808     9735.620     2400.158        1.059        0.710       77.003       64.394        0.699      338.999       12.032      865.020
03/07/2014  13:08:00       96.100       37.738       46.922       66.446       69.459       42.712     4415.112     4824.594     1824.316        1.196        0.553      103.244       28.149        0.074      338.873       11.820      864.997
03/07/2014  13:09:00       80.887       36.724       81.559       84.363       82.275       54.106     7117.038     6769.168     2927.504        1.568        0.841       88.833       49.143        0.306      339.169       12.318      864.952
03/07/2014  13:10:00       61.882       72.270       47.363       88.409       88.864       63.783     7816.142     7896.894     4068.265        1.553        0.989       95.144       54.740        0.331      339.468       12.821      864.930
03/07/2014  13:11:00      178.244       95.709       32.013       74.796       60.088       53.068     5594.440     3610.574     2816.234        2.699        0.601      202.315       17.008        0.007      339.007       12.041      864.925
03/07/2014  13:12:00      185.091      116.946      106.292      101.145       84.757       95.653    10230.395     7183.826     9149.581        4.289        1.328      218.941       74.668        0.116      338.931       11.916      864.905
03/07/2014  13:13:00      141.643       60.672      126.746      108.387      119.071       76.751    11747.704    14177.943     5890.766        3.581        1.591      154.091       86.054        0.312      338.918       11.894      864.901
03/07/2014  13:14:00      222.655      141.064      114.739      110.694      102.692       97.436    12253.130    10545.621     9493.707        5.746        1.615      263.580       79.271        0.090      338.907       11.874      864.892
03/07/2014  13:15:00      206.477       74.878       32.634      126.721       83.495       71.253    16058.226     6971.359     5077.055        3.870        1.405      219.634       55.730        0.064      338.949       11.945      864.902
03/07/2014  13:16:00      166.064      108.534       77.215      118.583      119.448       70.748    14061.848    14267.931     5005.275        3.932        1.667      198.386       59.720        0.091      338.981       11.999      864.916
03/07/2014  13:17:00      230.432      114.746       74.390      124.002       95.783       74.777    15376.509     9174.436     5591.601        5.097        1.507      257.421       61.718        0.057      338.873       11.817      864.927
03/07/2014  13:18:00      159.918      148.877      110.139      105.012       81.699      117.923    11027.524     6674.802    13905.897        4.573        1.580      218.491       74.783        0.117      338.722       11.564      864.944
03/07/2014  13:19:00       26.870       22.619        6.030       24.140       33.776       38.667      582.751     1140.801     1495.104        0.224        0.161       35.123       25.267        0.517      338.811       11.716      864.952
03/07/2014  13:20:00        2.427       34.572       51.873       20.208       46.162       27.871      408.381     2130.939      776.768        0.360        0.166       34.657       23.310        0.452      339.362       12.643      864.919
03/07/2014  13:21:00       30.129        8.068       19.083       49.664       66.069       28.696     2466.551     4365.055      823.473        0.449        0.383       31.190       30.043        0.928      339.193       12.359      864.897
03/07/2014  13:22:00      173.967      122.751       30.227       92.170       86.814       79.306     8495.329     7536.615     6289.433        3.428        1.116      212.914       12.249        0.003      338.817       11.724      864.872
03/07/2014  13:23:00      128.977       73.168       19.710      105.622      102.989       64.951    11155.995    10606.776     4218.629        2.417        1.299      148.286       31.508        0.045      339.006       12.043      864.837
03/07/2014  13:24:00      166.468      129.433       30.671      150.836      104.953       88.321    22751.379    11015.154     7800.538        4.348        2.078      210.866       63.299        0.090      339.324       12.578      864.828
03/07/2014  13:25:00      220.063      157.533       90.128      155.692      120.648      105.910    24240.118    14555.957    11217.024        6.568        2.501      270.637       76.317        0.080      339.403       12.710      864.797
03/07/2014  13:26:00      108.705      159.162      139.968      115.899       90.715       72.630    13432.481     8229.258     5275.155        4.183        1.347      192.741       63.573        0.109      339.402       12.708      864.821
03/07/2014  13:27:00      134.418      204.593      170.125      100.328       86.349       97.116    10065.758     7456.183     9431.491        5.791        1.348      244.799       86.265        0.124      339.014       12.054      864.829
03/07/2014  13:28:00      115.215      152.748      147.892       97.305      103.116       71.803     9468.169    10632.893     5155.711        4.186        1.263      191.328       71.914        0.141      339.003       12.036      864.839
03/07/2014  13:29:00       85.811      113.082      124.574       53.499       99.489       75.817     2862.098     9898.013     5748.144        2.709        0.925      141.954       75.570        0.283      338.884       11.838      864.850
03/07/2014  13:30:00       52.122       60.042       68.998       46.332       52.356       43.252     2146.636     2741.099     1870.727        0.892        0.338       79.509       35.299        0.197      338.960       11.965      864.853
03/07/2014  13:31:00       26.670       57.060       60.337       49.587       43.053       28.646     2458.847     1853.572      820.574        0.637        0.257       62.985       22.975        0.133      339.429       12.756      864.857
03/07/2014  13:32:00      253.674      125.281       26.742      110.753       71.012       58.666    12266.264     5042.671     3441.668        5.075        1.038      282.924       24.540        0.008      339.053       12.120      864.856
03/07/2014  13:33:00      223.765      111.681       72.098      122.819       97.862       74.559    15084.500     9576.919     5559.005        4.898        1.511      250.087       46.570        0.035      339.025       12.072      864.822
03/07/2014  13:34:00      151.267      105.593       29.278       73.221       71.828       56.282     5361.282     5159.193     3167.719        2.429        0.684      184.477       20.301        0.012      339.051       12.118      864.810
03/07/2014  13:35:00      136.732      139.370        9.115       95.641       84.255       72.657     9147.179     7098.886     5279.082        2.986        1.076      195.242       51.188        0.069      338.965       11.973      864.802
03/07/2014  13:36:00      116.185      168.918       -5.485      111.273       99.070       70.188    12381.639     9814.826     4926.316        3.459        1.356      205.018       55.634        0.074      339.129       12.250      864.799
03/07/2014  13:37:00      125.875      151.930       66.642      160.155      112.680       98.378    25649.523    12696.888     9678.221        4.569        2.401      197.299       68.927        0.122      339.098       12.197      864.799
03/07/2014  13:38:00       73.165       97.715       76.382       71.910       86.715       66.961     5171.038     7519.562     4483.774        1.895        0.859      122.072       50.071        0.168      339.250       12.454      864.800
03/07/2014  13:39:00      -41.308      244.976      -32.006       81.282       88.631       36.313     6606.726     7855.369     1318.624        3.926        0.789      248.435       40.647        0.027      339.071       12.150      864.810
03/07/2014  13:40:00      -16.366      176.446      -11.585       42.068       70.882       32.042     1769.684     5024.270     1026.659        1.968        0.391      177.204       36.369        0.042      339.157       12.297      864.817
03/07/2014  13:41:00       64.537      192.725       -6.041      125.549       89.696       67.124    15762.569     8045.309     4505.683        3.482        1.416      203.244       62.243        0.094      339.131       12.253      864.836
03/07/2014  13:42:00       83.793      156.452      -10.756      100.977       87.258       57.309    10196.286     7613.965     3284.307        2.635        1.055      177.478       44.849        0.064      339.350       12.620      864.841
03/07/2014  13:43:00      140.257       87.379       16.442       74.246       54.701       55.576     5512.396     2992.180     3088.640        1.958        0.580      165.249       37.411        0.051      339.350       12.622      864.843
03/07/2014  13:44:00      209.321      152.948       17.856      115.514       81.819       65.882    13343.509     6694.407     4340.427        4.595        1.219      259.245       51.273        0.039      339.045       12.106      864.836
03/07/2014  13:45:00      217.958      158.876       28.237      139.365       97.935       88.220    19422.653     9591.305     7782.684        5.516        1.840      269.717       46.829        0.030      339.033       12.087      864.807
03/07/2014  13:46:00       40.289      110.856        0.671       72.967       78.325       56.617     5324.254     6134.747     3205.452        1.429        0.733      117.950       53.231        0.204      339.164       12.310      864.806
03/07/2014  13:47:00       86.070       87.041       20.120      111.602       70.414       48.587    12454.980     4958.149     2360.695        1.758        0.989      122.410       31.398        0.066      339.335       12.597      864.790
03/07/2014  13:48:00      112.056      114.708       -1.268      118.696       88.665       76.198    14088.836     7861.420     5806.075        2.673        1.388      160.358       62.836        0.154      339.220       12.403      864.784
03/07/2014  13:49:00      139.937      122.953        7.104      112.531       82.528       61.701    12663.168     6810.913     3806.956        2.901        1.164      186.279       38.817        0.043      339.324       12.577      864.778
03/07/2014  13:50:00      289.043      201.282       41.679       68.486       73.242       55.399     4690.284     5364.426     3069.017        6.946        0.656      352.222       42.544        0.015      338.858       11.793      864.792
03/07/2014  13:51:00      259.708      175.576       24.926      106.497       73.923       83.031    11341.694     5464.679     6894.207        6.129        1.185      313.489       45.916        0.021      339.218       12.398      864.800
03/07/2014  13:52:00      144.130      118.033       10.293       99.252       65.670       51.118     9851.009     4312.573     2613.043        2.579        0.839      186.294       39.759        0.046      339.269       12.485      864.832
03/07/2014  13:53:00      167.374      131.765       28.158       89.509       76.809       68.329     8011.853     5899.554     4668.886        3.237        0.929      213.016       40.145        0.036      339.178       12.329      864.824
03/07/2014  13:54:00      130.075       51.455       41.550       82.912       44.834       46.749     6874.434     2010.064     2185.495        1.618        0.553      139.882       44.290        0.100      339.281       12.507      864.818
03/07/2014  13:55:00      147.366      123.127       59.111      105.905       76.762       72.979    11215.933     5892.469     5325.924        3.140        1.122      192.034       46.700        0.059      339.333       12.592      864.788
03/07/2014  13:56:00      129.289      108.278       85.106      135.475       88.335       64.600    18353.609     7803.143     4173.143        3.300        1.516      168.641       44.225        0.069      339.597       13.037      864.796
03/07/2014  13:57:00      184.086      180.025      151.743      138.698       94.318       93.430    19237.064     8895.959     8729.225        6.309        1.843      257.482       94.112        0.134      339.091       12.184      864.818
03/07/2014  13:58:00       83.061       99.537       66.582      117.459       70.294       61.859    13796.583     4941.245     3826.537        2.190        1.128      129.641       63.594        0.241      339.416       12.733      864.824
03/07/2014  13:59:00      146.531       73.924       23.652       54.696       48.122       39.452     2991.600     2315.766     1556.456        1.718        0.343      164.122       29.604        0.033      338.880       11.831      864.857
03/07/2014  14:00:00       92.969       45.814       41.009       35.856       45.658       42.083     1285.675     2084.692     1770.952        0.878        0.257      103.644       18.773        0.033      339.153       12.291      864.851
03/07/2014  14:01:00       97.377       86.635       37.789       99.072       81.296       61.932     9815.294     6609.106     3835.517        1.933        1.013      130.337       36.368        0.078      339.483       12.847      864.854
03/07/2014  14:02:00       77.754       95.845      130.588      107.293      121.621       73.159    11511.754    14791.748     5352.254        3.196        1.583      123.418       79.435        0.414      339.428       12.753      864.846
03/07/2014  14:03:00       -4.839      116.274      164.825       43.149       97.532       62.665     1861.826     9512.458     3926.922        2.800        0.765      116.375       59.371        0.260      339.244       12.443      864.862
03/07/2014  14:04:00      139.678      118.710       16.966       71.862       49.187       46.449     5164.200     2419.315     2157.553        2.181        0.487      183.308       16.415        0.008      338.913       11.887      864.879
03/07/2014  14:05:00       45.697      117.062       -7.691       63.758       59.537       49.272     4065.072     3544.600     2427.738        1.294        0.502      125.665       41.640        0.110      339.002       12.036      864.880
03/07/2014  14:06:00       63.385      198.987      -16.495       63.719      118.240       51.740     4060.159    13980.715     2676.977        3.230        1.036      208.839       66.466        0.101      339.022       12.069      864.870
03/07/2014  14:07:00       92.165       68.363       32.883       57.200       53.723       63.845     3271.846     2886.158     4076.167        1.224        0.512      114.751       32.378        0.080      339.217       12.399      864.893
03/07/2014  14:08:00       73.372       64.552       66.639       81.244       79.706       69.296     6600.525     6353.095     4801.948        1.587        0.888       97.726       54.148        0.307      339.373       12.661      864.892
03/07/2014  14:09:00       84.010       93.550       68.998       70.721       66.478       80.817     5001.402     4419.315     6531.365        1.826        0.798      125.735       49.486        0.155      339.635       13.103      864.898
03/07/2014  14:10:00      221.968      136.889       37.645      122.252       76.463       78.459    14945.642     5846.570     6155.870        4.818        1.347      260.784       48.807        0.035      339.237       12.430      864.895
03/07/2014  14:11:00      186.817      153.013      111.126      126.898      119.169       95.294    16103.044    14201.322     9080.904        5.502        1.969      241.482       98.960        0.168      339.305       12.543      864.879
03/07/2014  14:12:00      239.967      164.197       96.922       84.562       70.709       70.265     7150.804     4999.762     4937.130        5.551        0.854      290.766       43.096        0.022      339.356       12.630      864.882
03/07/2014  14:13:00       86.919      116.276       98.931      115.327       88.467       53.956    13300.361     7826.435     2911.227        2.745        1.202      145.172       41.040        0.080      339.463       12.812      864.904
03/07/2014  14:14:00       90.195       90.496       46.467       99.565       82.033       58.585     9913.127     6729.470     3432.240        1.928        1.004      127.768       50.090        0.154      339.555       12.968      864.905
03/07/2014  14:15:00      105.633       84.337      111.997      118.363      104.905       83.643    14009.710    11004.958     6996.077        3.141        1.601      135.171       83.985        0.386      339.474       12.829      864.884
03/07/2014  14:16:00       25.083       62.345       43.691       68.742      101.350       59.976     4725.430    10271.818     3597.096        1.251        0.930       67.201       48.684        0.525      339.776       13.341      864.892
03/07/2014  14:17:00       23.020      151.136       -7.250       58.625      129.422       55.213     3436.864    16750.089     3048.513        2.333        1.162      152.879       64.308        0.177      339.464       12.813      864.911
03/07/2014  14:18:00       84.737      164.753       -8.058       81.224      106.024       80.483     6597.397    11241.190     6477.590        2.935        1.216      185.267       65.312        0.124      339.351       12.622      864.915
03/07/2014  14:19:00      140.929      140.748       -4.186      137.726      100.776       79.869    18968.512    10155.839     6378.995        3.759        1.775      199.176       55.896        0.079      339.288       12.516      864.916
03/07/2014  14:20:00      241.384      171.115       22.155      127.306       85.888       63.479    16206.884     7376.735     4029.620        5.782        1.381      295.883       38.243        0.017      339.175       12.325      864.925
03/07/2014  14:21:00       27.838      255.388      -27.836       55.675      130.701       47.236     3099.676    17082.801     2231.202        4.459        1.121      256.901       59.248        0.053      339.124       12.241      864.946
03/07/2014  14:22:00       61.900      261.410        8.352      164.513      130.339       70.928    27064.410    16988.149     5030.814        6.065        2.454      268.639       79.376        0.087      339.224       12.407      864.963
03/07/2014  14:23:00      237.639      141.523       13.106      104.832       60.588       70.910    10989.767     3670.942     5028.206        4.818        0.984      276.588       51.837        0.035      339.156       12.294      864.984
03/07/2014  14:24:00      100.015      167.467      -14.234       88.764       96.229       62.876     7879.131     9260.002     3953.398        2.967        1.055      195.060       58.143        0.089      339.294       12.525      864.990
03/07/2014  14:25:00       13.702      301.933      -37.136       78.120      105.976       49.685     6102.693    11230.981     2468.607        5.626        0.990      302.244       55.036        0.033      339.341       12.605      865.000
03/07/2014  14:26:00      123.104      112.444       28.775      126.950       98.099       69.206    16116.297     9623.353     4789.416        2.957        1.526      166.728       56.886        0.116      339.319       12.569      865.003
03/07/2014  14:27:00       47.561      134.712        3.051       63.997       86.487       53.981     4095.596     7479.973     2913.947        1.745        0.724      142.862       56.231        0.155      339.619       13.076      865.015
03/07/2014  14:28:00      109.556      103.980       11.002       99.385       90.616       61.044     9877.311     8211.197     3726.352        2.237        1.091      151.045       53.198        0.124      339.313       12.558      865.034
03/07/2014  14:29:00       13.069       43.007       16.166       48.294       84.650       38.472     2332.287     7165.696     1480.082        0.663        0.549       44.949       35.730        0.632      339.542       12.948      865.052
03/07/2014  14:30:00       96.029       81.013        6.345       97.487       87.378       46.893     9503.755     7634.832     2198.956        1.758        0.967      125.637       25.849        0.042      339.241       12.438      865.047
03/07/2014  14:31:00       63.418       99.138       -0.141       66.814       64.007       48.635     4464.120     4096.867     2365.338        1.239        0.546      117.687       41.584        0.125      339.132       12.255      865.062
03/07/2014  14:32:00       98.538       62.308       -6.480       68.059       54.572       37.530     4632.030     2978.144     1408.482        1.132        0.451      116.585       31.495        0.073      339.001       12.036      865.047
03/07/2014  14:33:00       -3.779        7.657      -18.309       46.244      106.358       35.786     2138.514    11312.008     1280.666        0.757        0.737        8.538       20.116        5.550      339.318       12.568      865.019
03/07/2014  14:34:00      -44.967      180.297      -30.389       63.362       91.695       34.097     4014.751     8407.950     1162.603        2.452        0.679      185.820        9.963        0.003      339.117       12.230      865.046
03/07/2014  14:35:00        7.124       41.032       10.168       44.095       38.003       42.118     1944.357     1444.265     1773.901        0.350        0.258       41.646       33.120        0.632      339.277       12.501      865.038
03/07/2014  14:36:00      -14.341      -44.650      -15.392       23.823       49.267       31.225      567.538     2427.202      975.024        0.320        0.198       46.896       10.319        0.048      339.385       12.684      865.018
03/07/2014  14:37:00      -37.916      123.125       -1.648       59.087       80.375       40.779     3491.247     6460.120     1662.963        1.410        0.581      128.831       38.071        0.087      339.608       13.056      865.016
03/07/2014  14:38:00       86.264      102.352       22.714       73.645       91.523       61.418     5423.632     8376.478     3772.193        1.800        0.879      133.856       41.739        0.097      339.806       13.391      865.002
03/07/2014  14:39:00      156.432      124.227       21.973      124.004       99.940       82.614    15377.045     9987.948     6825.112        3.628        1.610      199.758       60.022        0.090      339.566       12.985      865.010
03/07/2014  14:40:00      231.432      124.036       16.862      111.864       76.011       58.713    12513.476     5777.644     3447.172        4.548        1.087      262.575       22.395        0.007      339.341       12.606      865.045
03/07/2014  14:41:00      115.951      119.237        6.956       91.229       64.137       44.878     8322.648     4113.492     2014.066        2.108        0.723      166.320       29.698        0.032      339.496       12.867      865.045
03/07/2014  14:42:00       -2.489      156.784      -22.417       60.648      124.605       52.901     3678.231    15526.503     2798.543        2.354        1.100      156.804       54.974        0.123      339.301       12.540      865.065
03/07/2014  14:43:00      -19.568      247.244      -37.434       38.808       63.413       21.485     1506.041     4021.219      461.626        3.445        0.299      248.017       25.809        0.011      339.064       12.139      865.046
03/07/2014  14:44:00       19.077      188.794      -27.970       39.654       77.289       31.358     1572.430     5973.553      983.346        2.266        0.426      189.755       40.064        0.045      339.057       12.129      865.048
03/07/2014  14:45:00       50.412       46.229       11.911       77.354       43.008       30.651     5983.571     1849.648      939.504        0.679        0.439       68.399       23.407        0.117      339.573       12.998      865.048
03/07/2014  14:46:00       98.922      160.454       -0.356       92.402       97.032       62.799     8538.081     9415.138     3943.663        2.871        1.095      188.497       44.444        0.056      339.357       12.633      865.045
03/07/2014  14:47:00       36.613      160.147       -6.178       67.803      116.768       65.146     4597.301    13634.793     4243.962        2.475        1.124      164.278       64.745        0.155      339.180       12.334      865.013
03/07/2014  14:48:00      299.384      175.321       23.881      121.021       82.755       81.475    14646.067     6848.371     6638.130        7.453        1.407      346.941       45.377        0.017      339.339       12.602      864.997
03/07/2014  14:49:00      193.334      107.689       16.174       94.560       61.485       51.281     8941.542     3780.412     2629.741        3.229        0.768      221.303       46.027        0.043      339.266       12.478      865.028
03/07/2014  14:50:00      245.308      137.882       25.171      114.042       64.856       51.153    13005.501     4206.242     2616.590        4.982        0.991      281.402       34.442        0.015      339.387       12.683      865.037
03/07/2014  14:51:00      163.913      120.146       24.089      108.413       92.235       63.901    11753.463     8507.346     4083.331        3.311        1.217      203.230       34.940        0.030      339.454       12.796      865.047
03/07/2014  14:52:00       71.869      135.828      -11.168       89.822       83.095       59.674     8068.081     6904.764     3560.948        2.113        0.927      153.670       47.062        0.094      339.239       12.435      865.048
03/07/2014  14:53:00       32.902      163.773      -11.203       66.541      104.007       50.602     4427.664    10817.499     2560.551        2.291        0.890      167.045       53.511        0.103      339.156       12.295      865.057
03/07/2014  14:54:00      -23.440       74.465       -3.703       33.239       37.602       28.744     1104.810     1413.925      826.206        0.473        0.167       78.067       23.730        0.092      339.435       12.767      865.036
03/07/2014  14:55:00       44.574       98.580        3.068       71.275       58.790       39.285     5080.173     3456.233     1543.277        1.089        0.504      108.189       38.175        0.125      339.458       12.806      865.014
03/07/2014  14:56:00       37.376       74.930       13.925       96.889       80.215       49.738     9387.399     6434.487     2473.881        1.275        0.915       83.734       39.736        0.225      339.833       13.438      865.013
03/07/2014  14:57:00       18.785       92.196       -3.647       61.587       76.675       40.737     3792.945     5879.033     1659.487        1.010        0.567       94.090       41.730        0.197      339.770       13.332      865.028
03/07/2014  14:58:00      130.852      113.459       25.355      119.824       88.976       70.418    14357.723     7916.684     4958.651        2.893        1.362      173.191       32.578        0.035      339.661       13.146      865.023
03/07/2014  14:59:00       19.195      351.744      -50.557       82.188      110.260       46.657     6754.857    12157.373     2176.899        7.386        1.054      352.267       44.546        0.016      339.164       12.307      865.050
03/07/2014  15:00:00       62.806       64.146       -0.464       67.452       58.697       36.740     4549.773     3445.388     1349.799        0.870        0.467       89.774       24.035        0.072      339.701       13.215      865.049
03/07/2014  15:01:00      137.447       87.378       38.201       87.169       66.759       64.262     7598.392     4456.706     4129.559        2.208        0.809      162.870       56.773        0.122      339.751       13.298      865.036
03/07/2014  15:02:00       44.807       87.715       69.631       78.344       84.039       61.404     6137.855     7062.549     3770.447        1.576        0.849       98.496       48.116        0.239      339.723       13.251      865.027
03/07/2014  15:03:00       32.041       40.406       23.440       75.582       55.450       43.130     5712.630     3074.704     1860.219        0.693        0.532       51.569       18.611        0.130      339.864       13.490      865.035
03/07/2014  15:04:00       83.446       80.388        9.548       72.574       45.905       49.089     5266.939     2107.246     2409.741        1.165        0.489      115.868       38.598        0.111      339.695       13.203      865.030
03/07/2014  15:05:00       42.298       81.653       57.488       86.528       79.106       66.671     7487.017     6257.758     4445.021        1.497        0.909       91.958       43.650        0.225      339.948       13.629      865.016
03/07/2014  15:06:00      178.713      123.674       54.386      116.103       95.763       75.177    13479.907     9170.550     5651.646        3.924        1.415      217.333       65.543        0.091      339.460       12.806      864.999
03/07/2014  15:07:00      161.524       89.211       33.260      127.633       90.538       65.386    16290.291     8197.185     4275.348        3.195        1.438      184.523       54.046        0.086      339.693       13.199      865.000
03/07/2014  15:08:00      150.827      115.708       22.319       83.640       63.477       57.893     6995.607     4029.275     3351.576        2.550        0.719      190.098       36.251        0.036      339.561       12.976      865.001
03/07/2014  15:09:00       57.125       91.236       78.751       76.983       63.140       60.846     5926.440     3986.611     3702.220        1.570        0.681      107.644       50.952        0.224      339.959       13.650      865.005
03/07/2014  15:10:00      155.157       66.316       19.254      116.929       93.294       69.231    13672.285     8703.758     4792.907        2.800        1.358      168.735       44.974        0.071      339.753       13.300      865.019
03/07/2014  15:11:00       84.164       63.644       31.704      102.779       64.398       50.127    10563.623     4147.083     2512.717        1.468        0.861      105.519       37.999        0.130      339.759       13.311      865.025
03/07/2014  15:12:00      105.948       69.747       33.431       85.327       56.913       58.006     7280.620     3239.041     3364.712        1.554        0.694      126.845       35.906        0.080      339.617       13.071      865.036
03/07/2014  15:13:00      161.186      116.115       25.982       80.302       69.628       52.787     6448.453     4848.016     2786.433        2.711        0.704      198.654       34.942        0.031      339.423       12.744      865.037
03/07/2014  15:14:00      122.446      104.340        8.776       97.521       79.696       70.376     9510.432     6351.505     4952.768        2.338        1.041      160.873       48.306        0.090      339.316       12.563      865.027
03/07/2014  15:15:00      249.412      160.334       38.671      105.146       78.447       66.651    11055.593     6153.976     4442.342        5.553        1.083      296.502       32.567        0.012      339.317       12.565      865.029
03/07/2014  15:16:00      282.171      138.537       71.620      132.609       97.667       83.415    17585.100     9538.927     6958.096        6.901        1.704      314.345       63.622        0.041      339.461       12.808      865.025
03/07/2014  15:17:00      223.798      102.335       63.829      153.776       93.742       75.471    23647.087     8787.474     5695.813        5.137        1.907      246.085       67.401        0.075      339.355       12.629      865.040
03/07/2014  15:18:00      266.244      144.834       44.391      154.347      108.156       76.566    23822.867    11697.665     5862.386        6.760        2.069      303.088       60.118        0.039      339.322       12.574      865.082
03/07/2014  15:19:00      260.656      189.978       22.262      136.434       85.845       75.276    18614.250     7369.300     5666.521        6.808        1.583      322.541       42.788        0.018      339.120       12.232      865.108
03/07/2014  15:20:00      240.908      122.756       72.447      117.069      100.454       77.869    13705.260    10091.007     6063.640        5.410        1.493      270.381       77.153        0.081      339.334       12.592      865.105
03/07/2014  15:21:00       50.262       35.080       45.259       79.725       61.318       44.001     6356.109     3759.907     1936.122        0.893        0.603       61.294       36.020        0.345      339.675       13.171      865.089
03/07/2014  15:22:00      111.715       97.255       55.965       97.338       62.285       53.888     9474.691     3879.404     2903.884        2.066        0.813      148.117       46.356        0.098      339.893       13.538      865.094
03/07/2014  15:23:00      158.253      116.770       29.436      131.868       92.834       76.137    17389.135     8618.085     5796.872        3.567        1.590      196.670       42.735        0.047      339.553       12.963      865.112
03/07/2014  15:24:00      198.932      118.442       32.269       80.123       59.799       50.247     6419.684     3575.875     2524.719        3.358        0.626      231.522        6.183        0.001      339.784       13.351      865.120
03/07/2014  15:25:00      230.830      111.388       25.313      121.192      113.514       92.661    14687.437    12885.470     8586.087        5.124        1.808      256.300       49.157        0.037      339.695       13.201      865.120
03/07/2014  15:26:00      351.336      172.969       46.028      146.073      111.253       89.169    21337.378    12377.291     7951.192        9.856        2.083      391.606       67.560        0.030      339.461       12.808      865.120
03/07/2014  15:27:00      149.420      158.219       17.931      128.621      107.824       97.155    16543.258    11626.096     9439.136        4.264        1.880      217.622       81.153        0.139      339.355       12.629      865.167
03/07/2014  15:28:00      119.119      132.263       -8.517      104.501      105.375       91.115    10920.417    11103.984     8301.967        3.103        1.516      177.997       71.125        0.160      339.318       12.566      865.189
03/07/2014  15:29:00      183.843      105.330       44.490       81.946       62.277       59.416     6715.098     3878.484     3530.283        3.050        0.706      211.879       44.421        0.044      339.199       12.366      865.198
03/07/2014  15:30:00      155.579      113.052       63.137       79.743       62.812       61.608     6358.904     3945.285     3795.570        2.753        0.705      192.316       47.430        0.061      339.362       12.639      865.213
03/07/2014  15:31:00      123.475       77.986       79.200       86.685       90.843       54.127     7514.289     8252.390     2929.739        2.314        0.935      146.041       44.541        0.093      339.311       12.555      865.214
03/07/2014  15:32:00       70.820       46.460       40.675       69.337       53.004       55.010     4807.555     2809.461     3026.051        0.973        0.532       84.699       48.385        0.326      339.539       12.940      865.221
03/07/2014  15:33:00      106.655       52.668       20.861       56.749       43.460       32.179     3220.428     1888.774     1035.494        1.036        0.307      118.950       16.950        0.020      339.598       13.040      865.239
03/07/2014  15:34:00      107.876       95.756       10.301       89.430       68.444       53.188     7997.667     4684.615     2828.925        1.821        0.776      144.244       40.716        0.080      339.477       12.837      865.233
03/07/2014  15:35:00       87.304      176.957       -3.500       93.971       66.939       67.691     8830.459     4480.775     4582.096        2.842        0.895      197.321       65.135        0.109      339.157       12.296      865.260
03/07/2014  15:36:00      199.441      130.877       12.808      129.356       77.421       65.165    16732.971     5994.023     4246.508        4.202        1.349      238.549       51.628        0.047      339.372       12.657      865.244
03/07/2014  15:37:00      105.623      103.757        7.010       80.182       67.356       62.582     6429.161     4536.773     3916.489        1.842        0.744      148.060       42.287        0.082      339.195       12.360      865.270
03/07/2014  15:38:00       83.719      202.391      -14.153       72.561      104.076       73.459     5265.126    10831.835     5396.294        3.483        1.075      219.023       66.610        0.092      339.146       12.278      865.285
03/07/2014  15:39:00       14.678      164.847      -20.073       45.592      110.112       41.240     2078.586    12124.681     1700.700        2.185        0.795      165.499       52.846        0.102      339.388       12.686      865.289
03/07/2014  15:40:00       76.964      131.544        6.517       72.080       72.497       48.050     5195.512     5255.766     2308.826        1.801        0.638      152.405       41.265        0.073      339.559       12.973      865.295
03/07/2014  15:41:00       93.644      211.071      -17.826       84.140      114.767       78.826     7079.502    13171.441     6213.554        4.005        1.323      230.912       73.529        0.101      339.231       12.418      865.316
03/07/2014  15:42:00       53.236      209.955       -8.460       79.357      114.422       75.588     6297.502    13092.328     5713.531        3.604        1.255      216.599       79.330        0.134      339.203       12.373      865.330
03/07/2014  15:43:00       92.412      162.342       -9.130       69.514       90.755       62.915     4832.158     8236.422     3958.275        2.600        0.851      186.801       56.586        0.092      339.210       12.384      865.330
03/07/2014  15:44:00       58.536      268.722      -23.961       87.053      121.183       61.694     7578.284    14685.434     3806.122        5.114        1.303      275.024       68.805        0.063      339.360       12.637      865.331
03/07/2014  15:45:00      -56.627      245.814      -45.890       62.316      103.323       40.264     3883.339    10675.588     1621.173        4.096        0.809      252.252       36.260        0.021      339.206       12.379      865.336
03/07/2014  15:46:00        1.221      185.311      -11.168      164.164      134.600       88.680    26949.828    18117.032     7864.079        4.369        2.647      185.315       81.576        0.194      339.374       12.661      865.311
03/07/2014  15:47:00      257.791      201.553       24.797       96.593       76.930       67.575     9330.293     5918.209     4566.345        6.375        0.991      327.230       44.703        0.019      339.265       12.475      865.351
03/07/2014  15:48:00      278.525      175.007       19.618      100.175       80.303       67.962    10035.084     6448.521     4618.875        6.484        1.055      328.943       47.023        0.020      339.167       12.312      865.357
03/07/2014  15:49:00      208.697      122.244       29.022       83.567       86.687       65.958     6983.496     7514.670     4350.398        3.909        0.942      241.864       37.733        0.024      339.437       12.766      865.356
03/07/2014  15:50:00      157.926      124.290        4.066      104.423       86.607       71.145    10904.167     7500.756     5061.632        3.193        1.173      200.970       47.565        0.056      339.406       12.714      865.394
03/07/2014  15:51:00      217.247      131.826       36.053      130.804       74.645       82.124    17109.650     5571.915     6744.270        4.764        1.471      254.115       54.032        0.045      339.410       12.722      865.420
03/07/2014  15:52:00      120.952       95.316       43.350       70.449       51.989       63.673     4963.049     2702.884     4054.192        1.865        0.586      153.995       42.004        0.074      339.411       12.724      865.438
03/07/2014  15:53:00       81.775      101.247      107.953       76.724       65.147       59.814     5886.608     4244.162     3577.671        2.115        0.685      130.146       47.636        0.134      339.276       12.497      865.418
03/07/2014  15:54:00       98.020       75.020       51.270       58.662       63.288       60.295     3441.192     4005.409     3635.456        1.447        0.554      123.433       46.878        0.144      339.331       12.590      865.427
03/07/2014  15:55:00       54.764      112.121       -2.694       65.767       75.757       47.226     4325.262     5739.124     2230.272        1.393        0.615      124.781       44.497        0.127      339.408       12.721      865.438
03/07/2014  15:56:00      178.526      138.066        4.314      128.533       77.711       62.247    16520.640     6039.033     3874.721        3.869        1.322      225.685       32.073        0.020      339.229       12.417      865.403
03/07/2014  15:57:00       46.967      205.794      -14.659       77.666      135.880       61.269     6031.977    18463.338     3753.880        3.650        1.412      211.085       70.112        0.110      339.367       12.650      865.392
03/07/2014  15:58:00        8.538      370.629      -40.293       78.804      122.881       53.392     6210.143    15099.794     2850.727        8.161        1.208      370.728       63.243        0.029      339.203       12.371      865.380
03/07/2014  15:59:00       -9.878      212.156      -19.015       88.263       98.371       49.444     7790.289     9676.933     2444.711        3.269        0.996      212.386       58.537        0.076      339.302       12.541      865.373
03/07/2014  16:00:00      -63.182      182.979      -20.486       47.717       72.515       33.201     2276.956     5258.441     1102.330        2.326        0.432      193.580       39.171        0.041      339.463       12.811      865.370
03/07/2014  16:01:00      -77.299      156.437      -19.314       53.089       74.972       43.757     2818.416     5620.767     1914.710        2.059        0.518      174.493       42.119        0.058      339.411       12.724      865.361
03/07/2014  16:02:00       -8.782       89.749        5.558       70.192       57.273       34.404     4926.904     3280.168     1183.603        0.877        0.470       90.178       26.985        0.090      339.508       12.890      865.361
03/07/2014  16:03:00       76.468      155.273       -5.313       90.460       91.905       52.067     8183.048     8446.479     2711.021        2.466        0.967      173.082       49.583        0.082      339.420       12.738      865.364
03/07/2014  16:04:00       43.809      161.752        5.104       82.359      119.531       63.014     6783.051    14287.582     3970.764        2.657        1.252      167.580       70.009        0.175      339.423       12.744      865.380
03/07/2014  16:05:00       26.810      215.490      -16.722       81.139      166.531       72.457     6583.464    27732.643     5250.078        4.349        1.978      217.151       88.511        0.166      339.436       12.766      865.380
03/07/2014  16:06:00       36.420      297.561      -33.770       92.859      144.058       68.114     8622.738    20752.762     4639.507        6.251        1.701      299.782       67.910        0.051      339.287       12.514      865.369
03/07/2014  16:07:00      115.394      114.434       40.400      126.979       90.036       71.836    16123.555     8106.480     5160.400        2.871        1.470      162.515       51.956        0.102      339.484       12.847      865.359
03/07/2014  16:08:00      240.462      179.730       12.990      149.114      123.991       90.731    22234.840    15373.708     8232.156        6.806        2.292      300.208       60.587        0.041      339.314       12.559      865.350
03/07/2014  16:09:00      288.843      193.842       38.118      115.133      117.810      102.956    13255.691    13879.125    10599.867        8.009        1.887      347.857       68.453        0.039      339.319       12.567      865.370
03/07/2014  16:10:00      244.120      145.860       25.672      128.379      103.143       78.271    16481.188    10638.578     6126.412        5.738        1.662      284.376       45.393        0.025      339.188       12.348      865.377
03/07/2014  16:11:00      240.719      150.686       46.313      137.210      105.123       79.730    18826.674    11050.815     6356.883        5.951        1.812      283.992       43.406        0.023      339.107       12.212      865.389
03/07/2014  16:12:00      133.375      101.297       44.580       60.120       60.208       68.320     3614.439     3625.063     4667.612        2.097        0.595      167.481       24.521        0.021      339.159       12.299      865.386
03/07/2014  16:13:00      134.930      111.038       35.053       96.247       48.958       60.871     9263.436     2396.855     3705.334        2.356        0.768      174.744       53.026        0.092      339.337       12.599      865.384
03/07/2014  16:14:00      229.190      123.890       47.897      142.344       67.270       59.390    20261.698     4525.214     3527.227        4.924        1.416      260.532       39.438        0.023      339.149       12.281      865.375
03/07/2014  16:15:00       73.020       59.513       34.493       94.583       52.617       48.100     8945.885     2768.597     2313.629        1.204        0.701       94.200       18.046        0.037      339.436       12.768      865.387
03/07/2014  16:16:00      276.092      183.614       20.928      140.802      116.767       74.304    19825.155    13634.490     5521.119        7.467        1.949      331.573       53.796        0.026      339.180       12.333      865.397
03/07/2014  16:17:00      258.535      196.472       40.257      128.288       83.596       88.125    16457.927     6988.374     7766.045        6.913        1.561      324.718       43.912        0.018      339.001       12.032      865.410
03/07/2014  16:18:00      217.143      160.323       44.880      141.055      105.510       73.927    19896.591    11132.343     5465.264        5.567        1.825      269.916       72.759        0.073      339.068       12.146      865.404
03/07/2014  16:19:00      339.256      231.498       34.898      124.000       96.441       90.278    15375.880     9300.928     8150.138       10.136        1.641      410.714       54.187        0.017      339.060       12.133      865.408
03/07/2014  16:20:00      139.067      262.642      -11.735      144.772      146.011       97.990    20959.064    21319.290     9602.129        7.016        2.594      297.188       84.778        0.081      339.081       12.167      865.432
03/07/2014  16:21:00      169.584      209.405        6.473      138.619      133.876      102.897    19215.309    17922.809    10587.756        6.018        2.386      269.461       87.848        0.106      338.974       11.987      865.455
03/07/2014  16:22:00      198.880      161.137       23.342      105.037       72.415       64.040    11032.815     5243.969     4101.169        4.322        1.019      255.966       48.018        0.035      339.042       12.101      865.465
03/07/2014  16:23:00      215.504      108.654       41.727      102.169       71.170       70.025    10438.426     5065.105     4903.485        4.019        1.020      241.346       45.635        0.036      339.036       12.090      865.463
03/07/2014  16:24:00      111.374      122.980        9.566      106.085       64.692       68.641    11254.032     4185.100     4711.572        2.388        1.008      165.917       37.228        0.050      339.111       12.219      865.485
03/07/2014  16:25:00      153.924      139.308        8.923      111.204       80.617       72.166    12366.254     6499.176     5207.921        3.362        1.204      207.604       55.914        0.073      339.014       12.056      865.518
03/07/2014  16:26:00       50.444      185.631       -7.109       92.843      156.061       78.813     8619.798    24355.096     6211.450        3.811        1.959      192.363       88.909        0.214      339.017       12.061      865.532
03/07/2014  16:27:00      152.013      208.197        5.490      116.687      119.766       80.759    13615.778    14343.898     6522.065        5.048        1.724      257.787       78.092        0.092      338.997       12.025      865.540
03/07/2014  16:28:00      134.251       99.845       22.753       97.144       68.438       46.650     9437.042     4683.771     2176.198        2.240        0.815      167.309       18.566        0.012      339.175       12.327      865.539
03/07/2014  16:29:00       28.563      185.352      -22.537       67.488       99.296       41.907     4554.669     9859.697     1756.236        2.592        0.809      187.539       44.980        0.058      339.241       12.436      865.533
03/07/2014  16:30:00       98.022      165.155       -2.035       77.700      108.798       74.438     6037.255    11837.052     5541.087        3.015        1.171      192.053       67.678        0.124      339.188       12.349      865.546
03/07/2014  16:31:00      151.605      123.422       22.477      111.316       74.786       58.045    12391.192     5592.987     3369.169        3.003        1.068      195.492       35.176        0.032      339.123       12.239      865.551
03/07/2014  16:32:00       83.903      136.303       -3.426      101.380       95.326       71.559    10277.960     9087.070     5120.693        2.505        1.224      160.057       57.941        0.131      339.089       12.182      865.569
03/07/2014  16:33:00       85.040      154.713        0.166       85.319       94.585       76.994     7279.353     8946.398     5928.053        2.666        1.108      176.545       67.596        0.147      338.891       11.848      865.574
03/07/2014  16:34:00       83.577      138.814       -9.452       84.647       69.939       61.768     7165.143     4891.486     3815.305        2.110        0.794      162.032       48.884        0.091      338.934       11.921      865.574
03/07/2014  16:35:00      109.499      134.735       -1.843      113.115       75.125       61.296    12794.993     5643.806     3757.212        2.617        1.110      173.619       43.123        0.062      339.001       12.034      865.546
03/07/2014  16:36:00      141.884      151.249       21.755      128.905       98.411       77.115    16616.377     9684.741     5946.655        3.786        1.612      207.382       66.842        0.104      339.020       12.065      865.535
03/07/2014  16:37:00      188.778      150.002       31.268      121.636       82.704       58.864    14795.315     6839.922     3464.966        4.210        1.255      241.117       25.980        0.012      339.006       12.042      865.515
03/07/2014  16:38:00       53.949      177.114        0.368       94.630      100.501       74.499     8954.754    10100.447     5550.098        2.944        1.230      185.148       63.358        0.117      339.017       12.060      865.511
03/07/2014  16:39:00       90.851      151.798       -1.507       84.360      104.536       74.945     7116.647    10927.824     5616.793        2.748        1.183      176.909       65.393        0.137      339.111       12.219      865.508
03/07/2014  16:40:00      117.154       95.114       15.154       70.299       56.382       51.452     4941.935     3178.984     2647.283        1.688        0.538      150.903       29.027        0.037      339.230       12.420      865.513
03/07/2014  16:41:00      190.986      119.666       15.965      111.631       58.660       56.901    12461.401     3441.030     3237.690        3.509        0.957      225.379       32.193        0.020      339.131       12.252      865.505
03/07/2014  16:42:00      195.982      147.490       40.318      105.844       96.644       86.195    11202.892     9340.037     7429.554        4.487        1.399      245.280       56.168        0.052      339.167       12.312      865.492
03/07/2014  16:43:00      188.844      144.612       23.411      101.387       77.218       64.385    10279.321     5962.649     4145.431        3.875        1.019      237.854       49.915        0.044      339.133       12.256      865.505
03/07/2014  16:44:00      123.986      114.731        5.939      100.461       78.577       69.771    10092.452     6174.306     4867.982        2.485        1.057      168.926       44.557        0.070      339.135       12.259      865.502
03/07/2014  16:45:00      143.729      137.921       13.776      111.932      114.177       74.019    12528.839    13036.275     5478.856        3.545        1.552      199.199       64.105        0.104      339.050       12.116      865.508
03/07/2014  16:46:00      182.487      136.973       -7.791      135.646       90.043       67.942    18399.841     8107.790     4616.096        4.162        1.556      228.173       46.325        0.041      339.066       12.142      865.489
03/07/2014  16:47:00      180.827      134.335       17.810      144.426       93.498       68.475    20858.902     8741.846     4688.763        4.267        1.714      225.264       57.677        0.066      338.939       11.928      865.508
03/07/2014  16:48:00       79.313      187.753      -18.746       74.192      137.398       63.180     5504.494    18878.281     3991.746        3.513        1.419      203.818       70.708        0.120      338.920       11.898      865.517
03/07/2014  16:49:00       49.800      148.956       -2.884       83.633      112.634       70.344     6994.501    12686.361     4948.273        2.465        1.231      157.060       70.164        0.200      338.919       11.895      865.531
03/07/2014  16:50:00       80.231      126.335       -7.054       76.552       82.205       55.025     5860.134     6757.724     3027.795        1.904        0.782      149.658       53.329        0.127      338.996       12.024      865.514
03/07/2014  16:51:00      146.109       80.919       27.538      138.100       75.479       59.817    19071.495     5697.053     3578.102        2.849        1.417      167.020       41.976        0.063      339.108       12.214      865.516
03/07/2014  16:52:00      190.093      164.305       20.100      118.282       81.613       60.149    13990.738     6660.691     3617.937        4.390        1.213      251.260       49.535        0.039      338.925       11.904      865.553
03/07/2014  16:53:00      119.124       79.239        7.791       70.238       58.132       48.262     4933.419     3379.366     2329.244        1.558        0.532      143.071       32.829        0.053      338.984       12.005      865.565
03/07/2014  16:54:00      124.802       74.149       32.014       80.019       56.482       43.290     6403.014     3190.259     1874.025        1.678        0.573      145.167       41.801        0.083      338.995       12.024      865.560
03/07/2014  16:55:00       55.193       37.165        8.190       77.276       57.612       43.097     5971.614     3319.130     1857.383        0.782        0.557       66.539       30.137        0.205      339.133       12.257      865.572
03/07/2014  16:56:00      212.436       95.775       24.863      116.361       79.140       57.110    13539.910     6263.068     3261.541        3.899        1.153      233.028       35.512        0.023      339.081       12.167      865.597
03/07/2014  16:57:00      142.338      152.043       10.834      136.260       90.013       57.927    18566.719     8102.370     3355.570        3.675        1.501      208.272       40.701        0.038      338.978       11.994      865.622
03/07/2014  16:58:00      262.401      188.019       33.195       94.703       87.085       59.352     8968.748     7583.841     3522.660        6.269        1.004      322.808       35.472        0.012      338.846       11.771      865.629
03/07/2014  16:59:00       91.157      244.308      -17.797       77.374      141.519       71.177     5986.660    20027.556     5066.112        4.969        1.554      260.761       77.617        0.089      338.820       11.729      865.640
03/07/2014  17:00:00        6.161      110.826        1.369       55.633      116.649       43.311     3095.037    13607.018     1875.864        1.545        0.929      110.998       57.039        0.264      338.981       12.001      865.646
03/07/2014  17:01:00       50.869      253.187      -40.679       68.344       73.952       43.986     4670.861     5468.886     1934.767        4.021        0.604      258.246       37.007        0.021      338.850       11.778      865.654
03/07/2014  17:02:00       22.407      230.244      -14.221       71.070       91.318       50.149     5050.970     8339.053     2514.946        3.481        0.795      231.332       48.371        0.044      338.877       11.824      865.655
03/07/2014  17:03:00        9.119      260.183      -23.351       88.191      129.825       59.440     7777.595    16854.542     3533.122        4.824        1.408      260.342       68.267        0.069      338.886       11.839      865.649
03/07/2014  17:04:00       -6.036      190.238       -6.741       53.730       95.837       46.103     2886.885     9184.799     2125.490        2.523        0.710      190.334       48.721        0.066      338.990       12.014      865.648
03/07/2014  17:05:00       81.352      107.650       -7.592       90.190       81.186       52.038     8134.244     6591.101     2707.926        1.785        0.872      134.932       47.354        0.123      339.019       12.065      865.652
03/07/2014  17:06:00       54.914      105.867       -1.927       72.027       81.779       49.617     5187.845     6687.804     2461.853        1.428        0.717      119.262       44.088        0.137      339.044       12.106      865.660
03/07/2014  17:07:00       58.490      188.652       -7.394       89.613       86.708       60.872     8030.446     7518.246     3705.422        2.916        0.963      197.511       54.066        0.075      338.948       11.944      865.657
03/07/2014  17:08:00       31.378      232.859      -25.324       72.329       84.921       58.830     5231.435     7211.523     3461.014        3.587        0.795      234.963       54.460        0.054      338.824       11.736      865.675
03/07/2014  17:09:00       -6.858      224.767      -21.799       57.210       95.657       44.380     3272.970     9150.171     1969.544        3.271        0.720      224.872       54.466        0.059      338.862       11.799      865.687
03/07/2014  17:10:00       73.824       96.684        6.863       64.136       80.128       53.169     4113.425     6420.489     2826.947        1.410        0.668      121.647       46.069        0.143      338.891       11.849      865.687
03/07/2014  17:11:00       64.477       80.193        1.743       75.472       66.785       49.936     5696.024     4460.288     2493.576        1.162        0.632      102.899       37.571        0.133      338.876       11.825      865.696
03/07/2014  17:12:00       56.112      178.354      -27.205       55.250       89.096       44.127     3052.570     7938.165     1947.150        2.432        0.647      186.973       40.829        0.048      338.869       11.811      865.702
03/07/2014  17:13:00        5.479      175.042      -36.497       40.777       88.423       33.692     1662.738     7818.631     1135.135        2.131        0.531      175.128       41.986        0.057      338.957       11.960      865.700
03/07/2014  17:14:00      -15.717      170.905      -21.887       65.867       60.039       34.080     4338.528     3604.632     1161.439        1.952        0.455      171.626       24.413        0.020      338.948       11.945      865.698
03/07/2014  17:15:00       50.717      272.170      -34.520       83.443      138.916       66.260     6962.771    19297.621     4390.373        5.424        1.533      276.855       75.713        0.075      338.767       11.639      865.700
03/07/2014  17:16:00       52.006      161.007      -15.697       59.890       98.544       48.548     3586.840     9710.978     2356.881        2.226        0.783      169.198       48.910        0.084      338.760       11.629      865.707
03/07/2014  17:17:00       61.450      247.096      -35.214       52.125      116.455       47.421     2716.979    13561.749     2248.741        4.230        0.926      254.622       57.564        0.051      338.723       11.564      865.711
03/07/2014  17:18:00       55.258      163.736      -21.703       60.430       85.932       39.627     3651.820     7384.254     1570.282        2.147        0.630      172.809       41.907        0.059      338.739       11.593      865.718
03/07/2014  17:19:00        4.591      259.718      -41.776       58.260       68.429       33.234     3394.252     4682.476     1104.485        3.920        0.459      259.758       36.756        0.020      338.708       11.540      865.729
03/07/2014  17:20:00       -6.892      266.784      -46.477       54.905       49.199       29.159     3014.604     2420.585      850.222        3.983        0.314      266.873       24.287        0.008      338.766       11.637      865.741
03/07/2014  17:21:00       -7.671      121.319      -13.203       68.921       74.116       39.381     4750.086     5493.125     1550.890        1.337        0.590      121.562       42.725        0.124      338.837       11.759      865.761
03/07/2014  17:22:00       55.823      140.402       -9.465       60.257       74.778       48.318     3630.853     5591.779     2334.629        1.724        0.578      151.093       44.444        0.087      338.780       11.663      865.781
03/07/2014  17:23:00       70.133       64.138        8.095       69.848       49.890       48.039     4878.759     2489.005     2307.709        0.938        0.484       95.038       27.972        0.087      338.804       11.704      865.791
03/07/2014  17:24:00       43.717      235.067      -32.537       53.216      100.062       45.139     2831.975    10012.320     2037.513        3.655        0.744      239.098       57.696        0.058      338.758       11.624      865.792
03/07/2014  17:25:00       28.563      234.917      -32.956       64.973       87.379       51.775     4221.546     7635.164     2680.671        3.581        0.727      236.647       52.349        0.049      338.688       11.506      865.799
03/07/2014  17:26:00      -15.468      240.260      -48.723       61.065       52.002       24.213     3728.923     2704.161      586.278        3.368        0.351      240.757       24.673        0.011      338.677       11.486      865.811
03/07/2014  17:27:00      -11.890      243.248      -48.647       56.739       44.869       24.537     3219.339     2013.188      602.066        3.375        0.292      243.539       22.889        0.009      338.663       11.463      865.817
03/07/2014  17:28:00       29.038      130.823      -16.221       60.334       83.167       37.946     3640.168     6916.711     1439.865        1.511        0.600      134.007       39.630        0.087      338.703       11.534      865.816
03/07/2014  17:29:00        5.524      211.318      -34.420       59.777       59.132       29.022     3573.342     3496.588      842.271        2.689        0.396      211.390       29.552        0.020      338.659       11.457      865.836
03/07/2014  17:30:00       29.976      181.751      -10.377       62.992       98.157       60.267     3968.018     9634.874     3632.064        2.563        0.862      184.207       64.404        0.122      338.657       11.454      865.844
03/07/2014  17:31:00       27.530      242.280      -41.791       50.878       72.511       28.316     2588.565     5257.830      801.801        3.492        0.432      243.839       31.496        0.017      338.630       11.408      865.837
03/07/2014  17:32:00       45.419      151.000      -21.730       70.129       64.141       40.218     4918.008     4114.039     1617.468        1.799        0.532      157.683       31.729        0.040      338.636       11.422      865.851
03/07/2014  17:33:00       36.775      167.067      -30.213       49.200       46.935       28.848     2420.599     2202.893      832.230        1.781        0.273      171.066       22.458        0.017      338.645       11.438      865.850
03/07/2014  17:34:00       17.730       85.319       -1.785       43.144       77.758       39.660     1861.374     6046.334     1572.888        0.854        0.474       87.142       45.236        0.269      338.660       11.463      865.863
03/07/2014  17:35:00       36.841      150.827       -6.803       64.292       98.196       58.606     4133.422     9642.441     3434.645        2.068        0.861      155.261       65.529        0.178      338.633       11.415      865.867
03/07/2014  17:36:00      -51.835      219.628      -40.756       50.003       63.406       26.923     2500.284     4020.345      724.865        2.991        0.362      225.662       28.684        0.016      338.651       11.445      865.869
03/07/2014  17:37:00      -17.310      228.694      -41.965       46.534       69.824       26.051     2165.390     4875.361      678.632        3.104        0.386      229.348       30.668        0.018      338.631       11.412      865.878
03/07/2014  17:38:00      -34.136      230.590      -40.051       55.206      102.879       39.334     3047.737    10584.072     1547.195        3.556        0.759      233.103       50.357        0.047      338.679       11.493      865.882
03/07/2014  17:39:00      -32.668      214.897      -35.935       43.993       80.769       30.041     1935.421     6523.682      902.464        2.895        0.468      217.366       39.759        0.033      338.631       11.411      865.873
03/07/2014  17:40:00      -14.208      260.312      -44.812       51.346       60.456       26.797     2636.430     3654.919      718.064        3.849        0.350      260.700       29.413        0.013      338.596       11.351      865.879
03/07/2014  17:41:00      -15.104      193.331      -31.017       58.423       51.962       25.022     3413.268     2700.023      626.077        2.265        0.337      193.920       21.116        0.012      338.610       11.376      865.879
03/07/2014  17:42:00       -1.396      189.416      -36.442       37.134       33.235       20.391     1378.958     1104.546      415.812        2.005        0.145      189.421       15.671        0.007      338.588       11.340      865.872
03/07/2014  17:43:00      -16.772      241.078      -43.519       43.350       45.570       25.363     1879.202     2076.649      643.290        3.245        0.230      241.660       22.083        0.008      338.606       11.367      865.874
03/07/2014  17:44:00        4.441      179.111      -26.365       67.891       76.367       38.731     4609.158     5831.964     1500.115        2.237        0.597      179.166       46.056        0.066      338.635       11.419      865.868
03/07/2014  17:45:00       20.142      214.083      -43.747       36.058       49.349       20.594     1300.211     2435.313      424.121        2.615        0.208      215.028       16.286        0.006      338.570       11.310      865.879
03/07/2014  17:46:00       30.806      132.045      -21.512       34.003       90.636       35.847     1156.220     8214.936     1285.012        1.475        0.533      135.591       46.117        0.116      338.548       11.274      865.875
03/07/2014  17:47:00       52.114       60.597        7.175       46.747       43.935       32.347     2185.278     1930.307     1046.345        0.580        0.258       79.924       23.503        0.086      338.524       11.234      865.883
03/07/2014  17:48:00       56.475       94.693       -6.346       46.434       62.236       34.323     2156.143     3873.357     1178.057        0.970        0.360      110.255       29.243        0.070      338.519       11.226      865.872
03/07/2014  17:49:00       40.353       72.249        5.416       50.142       61.916       35.326     2514.252     3833.635     1247.895        0.724        0.380       82.755       34.145        0.170      338.499       11.192      865.864
03/07/2014  17:50:00       62.369       62.340       -6.887       33.401       37.708       35.706     1115.615     1421.928     1274.952        0.582        0.191       88.183       28.646        0.106      338.509       11.210      865.854
03/07/2014  17:51:00        7.255       74.672      -11.014       40.579       40.559       24.464     1646.682     1644.994      598.467        0.482        0.195       75.023       25.951        0.120      338.494       11.184      865.846
03/07/2014  17:52:00       27.644      135.014      -20.641       47.534       43.786       20.797     2259.445     1917.220      432.534        1.201        0.230      137.815       22.411        0.026      338.531       11.246      865.830
03/07/2014  17:53:00       44.939      208.529      -31.278       46.742       66.059       35.450     2184.809     4363.842     1256.719        2.714        0.390      213.317       39.802        0.035      338.528       11.238      865.823
03/07/2014  17:54:00       12.984      184.142      -38.952       31.956       59.683       17.725     1021.177     3562.012      314.179        2.024        0.245      184.600       19.302        0.011      338.511       11.211      865.814
03/07/2014  17:55:00       28.527       97.423      -16.495       27.264       37.018       23.730      743.298     1370.360      563.135        0.663        0.134      101.514       18.522        0.033      338.479       11.158      865.813
03/07/2014  17:56:00        9.482      156.699      -24.510       36.916       60.753       26.765     1362.758     3690.931      716.372        1.551        0.289      156.986       35.625        0.051      338.481       11.163      865.808
03/07/2014  17:57:00       27.464       97.496      -19.291       32.807       62.914       24.404     1076.286     3958.128      595.563        0.813        0.281      101.290       34.132        0.114      338.443       11.097      865.801
03/07/2014  17:58:00       38.013      115.893      -18.333       44.735       59.054       38.609     2001.255     3487.376     1490.684        1.109        0.349      121.968       40.004        0.108      338.441       11.095      865.803
03/07/2014  17:59:00       23.874      146.124      -26.217       27.497       43.153       17.637      756.112     1862.138      311.076        1.277        0.146      148.062       18.962        0.016      338.464       11.132      865.807
03/07/2014  18:00:00        1.094      112.293      -29.109       30.394       28.605       14.566      923.786      818.259      212.171        0.771        0.098      112.298        8.203        0.005      338.466       11.135      865.809
03/07/2014  18:01:00      -15.968      175.378      -26.147       40.464       41.813       24.112     1637.348     1748.356      581.392        1.783        0.198      176.103       23.855        0.018      338.508       11.205      865.818
03/07/2014  18:02:00      -26.418      196.326      -28.878       55.271       49.384       27.820     3054.893     2438.741      773.969        2.317        0.313      198.095       28.870        0.021      338.476       11.151      865.826
03/07/2014  18:03:00      -32.112      143.635      -29.996       40.929       57.311       23.129     1675.200     3284.513      534.937        1.403        0.275      147.181       25.442        0.030      338.494       11.183      865.839
03/07/2014  18:04:00      -45.410      161.318      -22.479       31.349       33.652       22.758      982.760     1132.489      517.916        1.561        0.132      167.587       19.152        0.013      338.493       11.182      865.850
03/07/2014  18:05:00      -28.301      146.106      -23.830       42.174       43.389       22.698     1778.684     1882.644      515.191        1.345        0.209      148.822       21.504        0.021      338.455       11.117      865.863
03/07/2014  18:06:00      -18.879      199.818      -35.827       24.545       28.645       15.789      602.444      820.541      249.296        2.162        0.084      200.708       11.735        0.003      338.426       11.068      865.871
03/07/2014  18:07:00       26.353       95.880      -15.170       33.860       45.312       20.522     1146.480     2053.137      421.136        0.687        0.181       99.436       20.653        0.043      338.360       10.959      865.878
03/07/2014  18:08:00       22.139       80.960      -20.165       29.941       45.625       20.671      896.444     2081.646      427.288        0.543        0.170       83.933       23.990        0.082      338.340       10.923      865.896
03/07/2014  18:09:00       31.729       87.191       -9.849       24.038       33.167       22.820      577.831     1100.021      520.763        0.545        0.110       92.785       15.921        0.029      338.309       10.873      865.898
03/07/2014  18:10:00       29.316       35.626       -0.026       36.617       38.094       21.126     1340.794     1451.122      446.317        0.268        0.162       46.137       14.700        0.102      338.260       10.789      865.911
03/07/2014  18:11:00       13.632       75.830      -13.800       27.814       59.487       19.139      773.633     3538.680      366.295        0.540        0.234       77.046       30.479        0.156      338.254       10.781      865.907
03/07/2014  18:12:00        1.585       82.426      -13.980       25.043       39.837       15.522      627.170     1587.003      240.924        0.472        0.123       82.441       17.952        0.047      338.285       10.833      865.907
03/07/2014  18:13:00       29.886      100.124      -16.778       25.291       45.656       19.295      639.649     2084.432      372.286        0.715        0.155      104.489       20.481        0.038      338.218       10.721      865.909
03/07/2014  18:14:00       17.539       40.035      -13.391       32.787       33.101       18.701     1074.968     1095.696      349.715        0.230        0.126       43.708       17.188        0.155      338.174       10.646      865.919
03/07/2014  18:15:00       -9.113       83.589      -15.435       28.488       38.287       20.169      811.576     1465.861      406.788        0.500        0.134       84.085       21.628        0.066      338.315       10.883      865.923
03/07/2014  18:16:00       28.958       73.411       -8.455       39.130       53.450       21.794     1531.159     2856.871      474.990        0.558        0.243       78.916       18.745        0.056      338.133       10.577      865.931
03/07/2014  18:17:00       22.937      152.691      -18.525       34.436       82.432       40.423     1185.810     6794.988     1633.982        1.690        0.481      154.404       46.004        0.089      338.120       10.554      865.936
03/07/2014  18:18:00       53.494      149.857      -19.807       51.797       55.237       35.634     2682.892     3051.176     1269.779        1.636        0.350      159.118       33.399        0.044      338.103       10.527      865.933
03/07/2014  18:19:00      -12.224      189.011      -32.020       40.370       47.348       21.664     1629.721     2241.811      469.341        2.062        0.217      189.406       24.730        0.017      338.145       10.596      865.932
03/07/2014  18:20:00       -9.198      180.696      -34.083       37.306       37.495       16.887     1391.748     1405.855      285.167        1.849        0.154      180.930       19.294        0.011      338.122       10.558      865.921
03/07/2014  18:21:00        1.644      193.778      -38.990       41.669       42.247       19.795     1736.318     1784.806      391.836        2.149        0.196      193.785       23.392        0.015      338.147       10.600      865.908
03/07/2014  18:22:00       -6.996      166.773      -32.922       29.555       27.462       14.523      873.491      754.172      210.921        1.539        0.092      166.920       11.230        0.005      338.160       10.624      865.905
03/07/2014  18:23:00      -15.620      145.966      -26.655       30.556       25.096       15.012      933.670      629.829      225.357        1.202        0.089      146.800       11.758        0.006      338.112       10.542      865.916
03/07/2014  18:24:00      -15.190      149.885      -25.796       22.335       36.902       18.930      498.847     1361.774      358.343        1.279        0.111      150.653       21.439        0.020      338.102       10.526      865.916
03/07/2014  18:25:00      -18.248      128.314      -19.171       30.768       38.158       19.390      946.647     1456.050      375.956        0.997        0.139      129.605       20.887        0.026      338.087       10.501      865.919
03/07/2014  18:26:00      -37.889      176.055      -33.535       29.986       48.085       21.224      899.162     2312.213      450.441        1.861        0.183      180.086       21.552        0.014      338.049       10.434      865.926
03/07/2014  18:27:00      -62.459      169.605      -30.474       36.874       41.235       20.795     1359.680     1700.324      432.451        1.854        0.175      180.740       14.212        0.006      338.005       10.361      865.922
03/07/2014  18:28:00      -91.705      125.933      -20.887       49.517       61.428       35.766     2451.897     3773.372     1279.205        1.610        0.375      155.785       37.225        0.057      337.990       10.338      865.923
03/07/2014  18:29:00      -77.705      114.977      -20.824       43.293       57.630       28.776     1874.293     3321.222      828.037        1.286        0.301      138.772       28.049        0.041      337.937       10.248      865.926
03/07/2014  18:30:00     -105.460       96.432      -18.945       40.876       56.646       29.414     1670.860     3208.731      865.188        1.326        0.287      142.902       31.090        0.047      338.051       10.440      865.922
03/07/2014  18:31:00     -106.856      121.814      -26.240       54.650       51.762       35.487     2986.646     2679.260     1259.319        1.693        0.346      162.040       35.767        0.049      337.951       10.271      865.936
03/07/2014  18:32:00      -96.237      145.728      -35.100       34.160       52.968       26.525     1166.879     2805.632      703.579        1.820        0.234      174.638       26.738        0.023      337.832       10.072      865.951
03/07/2014  18:33:00      -72.070       97.404      -20.102       44.920       45.816       26.595     2017.768     2099.115      707.271        0.995        0.241      121.168       27.366        0.051      337.845       10.094      865.961
03/07/2014  18:34:00      -32.787       60.557       -2.270       37.067       29.935       27.551     1373.968      896.126      759.037        0.389        0.151       68.864       17.419        0.064      337.910       10.202      865.964
03/07/2014  18:35:00      -72.611       61.681      -16.696       39.825       38.276       23.618     1586.007     1465.021      557.807        0.648        0.180       95.272       17.481        0.034      338.050       10.440      865.970
03/07/2014  18:36:00      -93.754      112.477      -19.694       41.013       45.569       30.279     1682.052     2076.521      916.805        1.325        0.234      146.428       25.284        0.030      337.872       10.139      865.982
03/07/2014  18:37:00      -34.888       46.034        3.459       33.022       33.202       20.905     1090.455     1102.377      437.011        0.299        0.131       57.761       12.389        0.046      337.880       10.151      865.988
03/07/2014  18:38:00      -80.418       75.697      -15.736       38.308       34.467       26.769     1467.490     1187.960      716.598        0.791        0.169      110.441       24.631        0.050      337.922       10.223      866.001
03/07/2014  18:39:00     -143.014       77.800      -12.822       35.793       41.591       34.057     1281.131     1729.816     1159.893        1.542        0.209      162.807       26.592        0.027      338.074       10.478      866.019
03/07/2014  18:40:00      -56.877       71.439      -13.815       51.329       44.625       24.936     2634.664     1991.377      621.785        0.689        0.262       91.316       15.909        0.030      337.884       10.159      866.027
03/07/2014  18:41:00      -54.122       79.036      -10.027       43.567       40.725       24.553     1898.048     1658.542      602.841        0.672        0.208       95.790       27.402        0.082      337.826       10.062      866.036
03/07/2014  18:42:00      -92.528       72.852      -22.491       29.312       32.687       23.273      859.203     1068.438      541.645        0.842        0.123      117.766       14.985        0.016      337.861       10.122      866.041
03/07/2014  18:43:00      -79.428      100.530      -23.090       42.541       63.947       32.589     1809.741     4089.258     1062.038        1.195        0.348      128.122       33.445        0.068      337.896       10.180      866.047
03/07/2014  18:44:00      -89.897      140.453      -24.441       33.501       41.931       26.426     1122.303     1758.176      698.351        1.599        0.179      166.759       17.999        0.012      337.766        9.961      866.051
03/07/2014  18:45:00      -54.128       99.421      -23.314       34.912       43.812       24.649     1218.850     1919.529      607.597        0.855        0.187      113.200       24.538        0.047      337.866       10.129      866.063
03/07/2014  18:46:00      -28.751       30.649       -1.862       26.046       22.499       21.043      678.385      506.226      442.789        0.170        0.081       42.024       18.215        0.188      337.824       10.059      866.068
03/07/2014  18:47:00      -71.779       91.587      -31.285       48.143       45.880       27.114     2317.757     2104.952      735.174        0.984        0.258      116.363       29.369        0.064      337.874       10.143      866.089
03/07/2014  18:48:00      -57.196       38.581       -8.143       31.786       31.459       23.186     1010.341      989.680      537.610        0.368        0.127       68.992       19.009        0.076      337.972       10.307      866.098
03/07/2014  18:49:00      -58.560       74.506      -22.555       36.161       33.960       19.848     1307.631     1153.307      393.962        0.617        0.143       94.765       19.631        0.043      337.921       10.222      866.111
03/07/2014  18:50:00        7.111       86.923       -9.832       33.089       30.404       17.459     1094.912      924.415      304.807        0.501        0.116       87.213       12.449        0.020      337.842       10.088      866.121
03/07/2014  18:51:00       27.496       76.380      -15.221       23.398       35.104       18.651      547.469     1232.302      347.857        0.447        0.106       81.178       11.801        0.021      337.790       10.002      866.114
03/07/2014  18:52:00      -11.644      116.698      -14.242       31.596       34.630       19.841      998.285     1199.241      393.662        0.827        0.130      117.278       21.089        0.032      337.879       10.150      866.116
03/07/2014  18:53:00      -31.499      103.176      -20.092       31.836       47.036       25.053     1013.520     2212.344      627.646        0.795        0.193      107.877       27.833        0.067      337.887       10.164      866.123
03/07/2014  18:54:00        8.030      155.472      -23.514       27.291       28.931       16.602      744.825      836.993      275.638        1.332        0.093      155.679       12.995        0.007      337.724        9.891      866.156
03/07/2014  18:55:00       34.422      105.738      -17.137       39.503       60.679       25.734     1560.517     3681.901      662.259        0.928        0.295      111.200       31.662        0.081      337.642        9.753      866.194
03/07/2014  18:56:00       38.572      116.148      -19.270       33.992       38.396       25.499     1155.448     1474.269      650.180        0.931        0.164      122.385       21.901        0.032      337.651        9.770      866.242
03/07/2014  18:57:00       38.888       99.972      -19.246       33.472       62.099       26.364     1120.392     3856.228      695.060        0.877        0.284      107.269       23.135        0.047      337.660        9.784      866.255
03/07/2014  18:58:00       39.019      137.550      -11.389       44.649       83.242       39.582     1993.540     6929.238     1566.711        1.553        0.524      142.978       44.186        0.096      337.709        9.864      866.279
03/07/2014  18:59:00       51.110      112.084       -3.579       33.871       56.568       39.068     1147.248     3199.930     1526.285        1.053        0.294      123.187       33.289        0.073      337.736        9.913      866.271
03/07/2014  19:00:00       22.119      105.708      -11.519       34.640       36.107       26.064     1199.901     1303.687      679.314        0.749        0.159      107.997       19.959        0.034      337.800       10.017      866.264
03/07/2014  19:01:00       11.495      135.292      -25.403       37.087       43.277       17.636     1375.434     1872.912      311.018        1.132        0.178      135.780       20.930        0.024      337.759        9.952      866.256
03/07/2014  19:02:00       27.555      123.511      -26.150       33.244       28.293       14.885     1105.178      800.507      221.565        0.941        0.106      126.547       12.308        0.009      337.737        9.913      866.247
03/07/2014  19:03:00       22.657      140.862      -22.871       33.081       29.415       16.549     1094.364      865.238      273.858        1.156        0.112      142.673       14.433        0.010      337.748        9.932      866.265
03/07/2014  19:04:00       24.491      109.154      -20.201       23.296       26.185       16.699      542.709      685.629      278.869        0.721        0.075      111.868       13.981        0.016      337.723        9.889      866.272
03/07/2014  19:05:00       17.860      133.590      -26.318       23.269       26.666       14.654      541.440      711.071      214.750        1.016        0.073      134.779       12.748        0.009      337.776        9.978      866.284
03/07/2014  19:06:00        9.581      141.128      -21.926       20.126       25.955       12.193      405.056      673.680      148.662        1.086        0.061      141.453       15.048        0.011      337.803       10.023      866.294
03/07/2014  19:07:00       18.403       95.780      -19.585       28.380       42.014       13.695      805.434     1765.141      187.541        0.633        0.138       97.532       13.290        0.019      337.762        9.955      866.305
03/07/2014  19:08:00       21.625       71.814      -12.519       24.760       42.067       17.703      613.059     1769.629      313.391        0.424        0.135       74.999       21.860        0.085      337.704        9.858      866.333
03/07/2014  19:09:00        3.225       38.025       -7.324       20.512       32.642       16.354      420.737     1065.510      267.452        0.163        0.088       38.162        9.643        0.064      337.661        9.786      866.336
03/07/2014  19:10:00       -3.076       96.038      -22.205       15.315       23.693        9.257      234.538      561.368       85.691        0.530        0.044       96.088       11.707        0.015      337.714        9.874      866.346
03/07/2014  19:11:00       -2.319      101.510      -23.727       18.780       23.939        9.295      352.704      573.054       86.400        0.594        0.051      101.536        5.814        0.003      337.763        9.956      866.360
03/07/2014  19:12:00       -3.576       91.219      -10.535       35.240       41.248       22.479     1241.856     1701.406      505.303        0.595        0.172       91.289       23.975        0.069      337.754        9.941      866.378
03/07/2014  19:13:00      -20.404       54.958       -6.072       29.268       25.886       15.827      856.612      670.078      250.484        0.263        0.089       58.623       15.375        0.069      337.962       10.291      866.383
03/07/2014  19:14:00       -5.103      102.996      -12.186       24.397       34.582       23.076      595.219     1195.906      532.498        0.655        0.116      103.122       23.056        0.050      337.808       10.032      866.388
03/07/2014  19:15:00       10.362       87.284      -14.099       21.582       31.656       14.369      465.784     1002.130      206.482        0.480        0.084       87.897       15.401        0.031      337.800       10.018      866.378
03/07/2014  19:16:00       -0.987       51.473       -0.406       28.036       26.994       17.579      786.034      728.653      309.008        0.224        0.091       51.483       11.853        0.053      337.732        9.903      866.375
03/07/2014  19:17:00       -2.982       84.608      -14.145       25.616       22.741       12.487      656.160      517.164      155.918        0.435        0.066       84.661       11.070        0.017      337.784        9.992      866.369
03/07/2014  19:18:00       -4.544      104.794      -19.404       14.298       19.962       10.070      204.425      398.465      101.405        0.604        0.035      104.893        7.730        0.005      337.734        9.909      866.363
03/07/2014  19:19:00      -63.683       47.222      -14.186       23.907       26.491       18.721      571.564      701.767      350.473        0.405        0.081       79.280       14.904        0.035      337.855       10.111      866.349
03/07/2014  19:20:00      -46.884       51.101      -16.502       24.665       22.569       19.207      608.372      509.353      368.917        0.328        0.074       69.350       19.874        0.082      337.700        9.849      866.351
03/07/2014  19:21:00      -17.811       58.797      -12.287       22.823       31.628       15.718      520.890     1000.351      247.048        0.285        0.088       61.435       13.716        0.050      337.801       10.020      866.369
03/07/2014  19:22:00      -11.899       85.057      -16.593       20.973       29.703       19.225      439.853      882.265      369.588        0.467        0.085       85.885       12.611        0.022      337.812       10.041      866.387
03/07/2014  19:23:00      -46.603       43.960      -12.583       41.156       29.500       18.430     1693.804      870.236      339.666        0.358        0.145       64.065       17.424        0.074      337.833       10.073      866.400
03/07/2014  19:24:00      -59.820        9.465      -10.080       23.697       35.115       16.201      561.561     1233.034      262.476        0.291        0.103       60.564       12.399        0.042      337.870       10.137      866.436
03/07/2014  19:25:00      -58.408      -25.771       -8.551       18.923       24.079       11.763      358.096      579.800      138.379        0.261        0.054       63.841        8.485        0.018      337.606        9.694      866.472
03/07/2014  19:26:00      -64.215      -15.659       -8.902       26.045       28.520       14.873      678.361      813.370      221.203        0.308        0.086       66.096       12.218        0.034      337.732        9.903      866.493
03/07/2014  19:27:00      -43.214        0.734       -3.861       39.411       23.479       11.279     1553.201      551.266      127.216        0.206        0.112       43.221        8.882        0.042      337.551        9.602      866.514
03/07/2014  19:28:00      -38.827       -9.390       -3.157       26.345       32.121       15.276      694.064     1031.783      233.342        0.178        0.098       39.946        9.390        0.055      337.574        9.639      866.531
03/07/2014  19:29:00      -47.031        1.609        0.633       22.429       36.438       15.732      503.075     1327.752      247.485        0.215        0.104       47.058        9.424        0.040      337.716        9.878      866.549
03/07/2014  19:30:00      -71.417      -24.722      -11.959       15.405       23.730       14.037      237.306      563.115      197.040        0.343        0.050       75.575        7.927        0.011      337.527        9.562      866.549
03/07/2014  19:31:00      -53.467       26.174      -11.243       23.749       20.042       16.733      563.994      401.666      279.978        0.246        0.062       59.530       13.552        0.052      337.702        9.855      866.553
03/07/2014  19:32:00      -33.203       24.505       -4.479       20.550       17.804       15.962      422.307      316.985      254.794        0.136        0.050       41.267        9.163        0.049      337.730        9.901      866.559
03/07/2014  19:33:00      -33.656       43.379       -9.752       21.437       21.722       14.737      459.539      471.837      217.176        0.213        0.057       54.904        9.807        0.032      337.588        9.663      866.588
03/07/2014  19:34:00      -14.572       24.999       -2.575       26.105       22.657       15.465      681.453      513.357      239.181        0.114        0.072       28.936       13.086        0.205      337.617        9.713      866.611
03/07/2014  19:35:00      -47.409        6.639       -6.375       23.800       24.119       14.882      566.445      581.708      221.467        0.185        0.068       47.871        6.677        0.019      337.702        9.854      866.618
03/07/2014  19:36:00      -42.634      -20.662       -5.847       28.243       15.958       11.978      797.651      254.656      143.481        0.174        0.060       47.377        7.722        0.027      337.577        9.645      866.624
03/07/2014  19:37:00      -75.727      -29.291      -10.144       27.332       21.869       11.307      747.018      478.239      127.853        0.402        0.068       81.195        2.847        0.001      337.520        9.549      866.633
03/07/2014  19:38:00      -70.790      -34.763       -8.301       23.188       19.033       14.602      537.703      362.259      213.218        0.370        0.056       78.865       11.341        0.021      337.410        9.364      866.640
03/07/2014  19:39:00      -50.043      -31.679       -6.319       38.447       19.751       16.866     1478.196      390.094      284.477        0.285        0.108       59.227       11.826        0.040      337.390        9.332      866.645
03/07/2014  19:40:00      -47.097      -47.868        5.582       40.737       22.696       22.494     1659.499      515.089      506.002        0.361        0.134       67.153       25.124        0.140      337.315        9.206      866.657
03/07/2014  19:41:00      -55.469      -28.377       -1.968       25.231       33.591       14.307      636.593     1128.325      204.703        0.293        0.098       62.306        9.796        0.025      337.432        9.401      866.674
03/07/2014  19:42:00      -68.422      -36.410       -3.021       19.325       16.097       14.741      373.448      259.110      217.296        0.343        0.042       77.507       12.409        0.026      337.339        9.247      866.686
03/07/2014  19:43:00      -75.940       -7.827       -5.484       23.438       36.042       19.332      549.331     1298.996      373.726        0.404        0.111       76.342       17.359        0.052      337.460        9.450      866.708
03/07/2014  19:44:00     -108.870      -20.326      -13.669       21.769       25.597       16.514      473.869      655.231      272.699        0.693        0.070      110.751       10.882        0.010      337.379        9.313      866.724
03/07/2014  19:45:00      -85.877      -16.385      -10.918       37.879       29.641       17.581     1434.832      878.568      309.081        0.519        0.131       87.426       12.704        0.021      337.380        9.317      866.736
03/07/2014  19:46:00      -65.667      -18.829       -5.592       42.917       27.916       15.845     1841.884      779.311      251.062        0.378        0.144       68.314       10.413        0.023      337.349        9.265      866.748
03/07/2014  19:47:00      -63.707       -6.797       -3.043       37.645       29.010       17.530     1417.180      841.577      307.310        0.334        0.128       64.069       17.590        0.075      337.312        9.202      866.755
03/07/2014  19:48:00      -84.477      -11.159       -7.469       23.384       19.031       15.041      546.789      362.186      226.224        0.423        0.057       85.211       13.776        0.026      337.242        9.084      866.753
03/07/2014  19:49:00      -94.099      -22.106      -16.214       18.604       15.479       11.769      346.097      239.585      138.505        0.517        0.036       96.660        9.167        0.009      337.231        9.065      866.758
03/07/2014  19:50:00      -70.050      -34.890      -10.954       25.276       21.358       13.236      638.898      456.172      175.198        0.376        0.064       78.258       11.353        0.021      337.097        8.840      866.778
03/07/2014  19:51:00      -45.378      -23.298      -12.218       41.401       16.899        8.798     1714.038      285.564       77.396        0.241        0.104       51.009        7.095        0.019      337.072        8.799      866.797
03/07/2014  19:52:00      -77.855      -17.912       -7.434       25.676       21.746       14.708      659.260      472.874      216.338        0.389        0.067       79.889       11.488        0.021      336.989        8.661      866.825
03/07/2014  19:53:00      -75.599      -23.861       -7.977       16.352       20.735       14.721      267.401      429.950      216.718        0.363        0.046       79.276        6.779        0.007      337.061        8.780      866.851
03/07/2014  19:54:00      -65.458      -12.343       -1.740       29.833       16.829       16.147      890.036      283.219      260.728        0.294        0.072       66.611       16.092        0.058      337.044        8.751      866.876
03/07/2014  19:55:00      -45.581       18.004       -3.726       27.868       28.961       14.862      776.652      838.712      220.891        0.213        0.092       49.008       11.829        0.058      336.998        8.676      866.892
03/07/2014  19:56:00      -29.139        6.045       -6.971       17.102       16.838       13.412      292.474      283.528      179.874        0.084        0.038       29.759        7.737        0.068      337.097        8.840      866.911
03/07/2014  19:57:00      -52.015       63.061      -16.899       29.051       19.236       15.230      843.980      370.017      231.955        0.421        0.072       81.745       13.567        0.028      337.237        9.075      866.922
03/07/2014  19:58:00      -55.693       60.338      -15.458       19.685       27.442       19.542      387.516      753.083      381.907        0.425        0.076       82.112       13.889        0.029      337.269        9.129      866.932
03/07/2014  19:59:00      -40.972       75.872      -16.945       21.137       14.575        8.598      446.761      212.438       73.918        0.423        0.037       86.228        4.242        0.002      337.208        9.028      866.936
03/07/2014  20:00:00        7.907       79.816      -15.543       19.435       25.504       12.038      377.706      650.446      144.909        0.392        0.059       80.207       13.677        0.029      337.207        9.027      866.937
03/07/2014  20:01:00       -7.655       88.385      -17.467       12.686       14.379        7.907      160.944      206.765       62.513        0.430        0.022       88.716        5.764        0.004      337.196        9.007      866.925
03/07/2014  20:02:00       -9.003       64.085      -10.576       19.859       28.403       15.183      394.379      806.718      230.519        0.287        0.072       64.715       17.820        0.076      337.283        9.151      866.918
03/07/2014  20:03:00      -24.510       50.074       -7.867       31.298       25.540       17.447      979.546      652.285      304.411        0.255        0.097       55.751       16.539        0.088      337.260        9.112      866.924
03/07/2014  20:04:00      -55.571       77.594      -20.610       21.668       27.444       18.555      469.496      753.150      344.284        0.555        0.078       95.441       17.624        0.034      337.241        9.082      866.927
03/07/2014  20:05:00      -51.175       62.672      -16.351       22.731       24.275       15.879      516.700      589.294      252.130        0.409        0.068       80.911        5.184        0.004      337.302        9.186      866.939
03/07/2014  20:06:00      -39.338       24.203      -10.361       18.620       24.348       17.720      346.694      592.821      313.988        0.175        0.063       46.187        9.594        0.043      337.324        9.222      866.944
03/07/2014  20:07:00      -46.107       72.749      -14.318       19.646       33.997       16.451      385.954     1155.819      270.650        0.472        0.091       86.129       16.699        0.038      337.178        8.977      866.960
03/07/2014  20:08:00      -16.622       93.047      -18.174       34.795       23.301       13.165     1210.665      542.959      173.304        0.560        0.096       94.520        7.472        0.006      337.271        9.132      866.971
03/07/2014  20:09:00      -39.028      102.161      -22.783       33.495       24.729       17.076     1121.935      611.521      291.594        0.725        0.101      109.362       15.689        0.021      337.176        8.973      866.986
03/07/2014  20:10:00      -46.305      111.990      -24.976       40.180       26.911       15.975     1614.440      724.223      255.188        0.895        0.130      121.186        9.885        0.007      337.206        9.025      866.989
03/07/2014  20:11:00      -59.491       94.715      -19.852       26.516       30.963       21.057      703.124      958.678      443.408        0.750        0.105      111.848       15.659        0.020      337.203        9.019      866.991
03/07/2014  20:12:00      -40.327       66.495      -17.318       37.443       31.915       19.308     1401.964     1018.567      372.816        0.457        0.140       77.768       18.794        0.058      337.289        9.162      866.994
03/07/2014  20:13:00      -44.442       78.745      -14.814       37.178       36.797       21.068     1382.211     1354.033      443.873        0.579        0.159       90.421       17.778        0.039      337.323        9.221      866.998
03/07/2014  20:14:00       -8.286      110.677      -15.034       27.060       28.457       17.816      732.252      809.790      317.410        0.720        0.093      110.987       18.183        0.027      337.360        9.282      867.006
03/07/2014  20:15:00       -8.451      102.745      -18.693       30.163       40.799       15.983      909.831     1664.570      255.451        0.690        0.141      103.092       16.904        0.027      337.345        9.256      867.005
03/07/2014  20:16:00       10.957       77.239      -14.006       24.061       18.677       10.557      578.932      348.836      111.458        0.366        0.052       78.012        7.818        0.010      337.260        9.115      867.009
03/07/2014  20:17:00       -1.207      123.185      -23.921       29.476       32.764       15.196      868.822     1073.488      230.924        0.896        0.109      123.191       14.219        0.013      337.209        9.030      867.013
03/07/2014  20:18:00      -10.350      143.723      -25.551       34.969       22.516       11.476     1222.812      506.964      131.707        1.164        0.093      144.095        5.576        0.001      337.174        8.971      867.012
03/07/2014  20:19:00      -29.227      137.020      -25.746       27.865       31.800       16.733      776.443     1011.266      279.982        1.118        0.103      140.103       13.389        0.009      337.357        9.276      867.000
03/07/2014  20:20:00       -0.817       84.654      -20.823       23.848       25.227       15.939      568.745      636.389      254.049        0.453        0.073       84.658       16.534        0.038      337.354        9.272      867.002
03/07/2014  20:21:00        2.095       50.425       -6.412       29.041       28.035       17.997      843.355      785.945      323.905        0.227        0.098       50.469       16.664        0.109      337.223        9.054      867.002
03/07/2014  20:22:00       10.573       55.989      -11.677       12.520       12.829        7.269      156.747      164.579       52.845        0.188        0.019       56.978        7.350        0.017      337.074        8.802      867.020
03/07/2014  20:23:00        6.498       63.222      -15.563       15.701       16.559        7.145      246.534      274.186       51.052        0.243        0.029       63.555        7.197        0.013      337.074        8.801      867.037
03/07/2014  20:24:00        3.848       60.395      -11.676       13.488       14.325       12.142      181.929      205.214      147.438        0.217        0.027       60.518       10.647        0.031      337.162        8.950      867.049
03/07/2014  20:25:00      -10.406       65.549      -10.221       18.785       22.096       18.890      352.873      488.222      356.819        0.285        0.060       66.370       15.549        0.055      337.139        8.912      867.055
03/07/2014  20:26:00      -22.437       76.357      -15.480       18.335       23.525       13.500      336.162      553.438      182.239        0.382        0.054       79.585        9.688        0.015      337.217        9.041      867.064
03/07/2014  20:27:00      -16.279       40.953       -5.260       26.424       22.946       17.933      698.249      526.519      321.598        0.176        0.077       44.070        9.767        0.049      337.184        8.987      867.072
03/07/2014  20:28:00      -10.302       52.868      -10.049       37.435       22.286       19.423     1401.368      496.682      377.259        0.264        0.114       53.863        7.929        0.022      337.135        8.904      867.068
03/07/2014  20:29:00      -31.945       13.553       -4.822       29.990       26.646       12.713      899.426      709.985      161.621        0.150        0.089       34.701        9.541        0.076      336.925        8.555      867.062
03/07/2014  20:30:00        0.315       11.361       -4.013       26.932       21.228       17.813      725.321      450.622      317.298        0.082        0.075       11.365       12.869        1.282      336.945        8.588      867.063
03/07/2014  20:31:00       -6.506       37.263       -5.115       36.567       36.420       16.283     1337.124     1326.388      265.125        0.219        0.146       37.827       12.988        0.118      336.900        8.511      867.078
03/07/2014  20:32:00        0.088        8.464       -4.034       25.338       25.782       19.606      642.029      664.710      384.414        0.089        0.085        8.465       12.751        2.269      336.879        8.477      867.092
03/07/2014  20:33:00      -16.519       24.988       -3.570       17.631       31.284       13.837      310.863      978.715      191.457        0.120        0.074       29.954       12.489        0.174      336.758        8.276      867.101
03/07/2014  20:34:00       14.471       66.104      -10.002       19.017       22.820        9.762      361.633      520.772       95.306        0.283        0.049       67.669        8.605        0.016      337.157        8.942      867.102
03/07/2014  20:35:00       20.650       53.295       -9.991       17.555       21.788       13.164      308.188      474.714      173.292        0.216        0.048       57.156        8.860        0.024      337.124        8.886      867.110
03/07/2014  20:36:00       23.937       24.595        0.832       18.249       18.374       16.046      333.024      337.590      257.482        0.105        0.046       34.320       11.645        0.115      337.073        8.800      867.106
03/07/2014  20:37:00       30.977       44.036      -10.966       20.056       26.344       16.859      402.224      693.986      284.228        0.220        0.069       53.840       10.816        0.040      337.043        8.750      867.100
03/07/2014  20:38:00       29.596       56.603      -11.904       19.184       30.644       17.701      368.009      939.058      313.329        0.292        0.081       63.873       19.090        0.089      337.067        8.790      867.097
03/07/2014  20:39:00       20.011       70.592      -14.542       12.825       12.251        7.225      164.474      150.079       52.202        0.298        0.018       73.374        6.755        0.008      337.095        8.839      867.101
03/07/2014  20:40:00        6.609       58.876      -12.742       12.190       11.915        6.947      148.590      141.974       48.264        0.201        0.017       59.245        3.325        0.003      337.091        8.832      867.114
03/07/2014  20:41:00       -4.184       62.311       -8.379       14.312       11.739        8.669      204.826      137.802       75.147        0.219        0.021       62.452        5.862        0.009      337.158        8.943      867.133
03/07/2014  20:42:00       18.962       68.672      -12.891       17.385       21.788        7.928      302.247      474.705       62.859        0.304        0.042       71.242        9.679        0.018      337.181        8.983      867.160
03/07/2014  20:43:00      -12.866        7.310        5.243       20.594       22.428       15.324      424.113      502.994      234.822        0.070        0.058       14.798       11.193        0.572      337.012        8.700      867.185
03/07/2014  20:44:00      -66.946      -18.853      -18.855       16.792       11.706        9.846      281.963      137.042       96.938        0.285        0.026       69.550        3.845        0.003      336.349        7.591      867.205
03/07/2014  20:45:00      -74.662      -38.191      -15.872       17.355       13.108        8.544      301.191      171.807       72.996        0.392        0.027       83.863        4.939        0.003      336.353        7.597      867.213
03/07/2014  20:46:00     -101.619      -34.800      -13.324        8.333       12.731        8.291       69.434      162.079       68.734        0.601        0.015      107.412        7.047        0.004      336.394        7.666      867.228
03/07/2014  20:47:00      -80.653      -46.993      -10.670       12.280       11.292       11.508      150.807      127.520      132.444        0.462        0.021       93.345        7.511        0.006      336.391        7.662      867.240
03/07/2014  20:48:00      -81.529      -35.148      -11.334       12.378       14.917       10.059      153.210      222.516      101.177        0.424        0.024       88.782        3.937        0.002      336.453        7.766      867.252
03/07/2014  20:49:00      -89.962      -21.768      -11.419       10.116        7.380        6.745      102.342       54.471       45.498        0.445        0.010       92.558        3.894        0.002      336.507        7.854      867.277
03/07/2014  20:50:00      -75.164      -15.465       -8.173       15.999       13.088       10.383      255.981      171.288      107.797        0.325        0.027       76.739        8.939        0.014      336.615        8.036      867.283
03/07/2014  20:51:00      -54.165       -7.051      -10.514       22.117       12.688        8.452      489.158      160.975       71.436        0.191        0.036       54.622        4.854        0.008      336.638        8.076      867.285
03/07/2014  20:52:00       -8.591       26.888       -1.570       30.609       15.537        7.620      936.896      241.411       58.065        0.102        0.062       28.227        9.991        0.125      337.002        8.682      867.281
03/07/2014  20:53:00        3.881       -4.560        5.939        8.789        7.556        8.749       77.248       57.093       76.554        0.014        0.011        5.988        7.473        1.558      336.983        8.648      867.296
03/07/2014  20:54:00       23.512       10.093        8.203       11.691       14.636       10.794      136.672      214.226      116.519        0.059        0.023       25.587        6.650        0.068      336.990        8.661      867.320
03/07/2014  20:55:00       21.180       19.551        3.262       14.192        8.668       11.120      201.422       75.143      123.651        0.062        0.020       28.824        5.751        0.040      336.997        8.674      867.340
03/07/2014  20:56:00       36.776       23.411        1.395       14.422       12.008        9.405      207.988      144.186       88.445        0.117        0.022       43.595        3.547        0.007      336.999        8.676      867.353
03/07/2014  20:57:00       44.864       31.600       14.685       11.251       10.285        8.730      126.583      105.789       76.208        0.177        0.015       54.876        4.905        0.008      336.943        8.582      867.362
03/07/2014  20:58:00       33.981       34.871        1.538       15.321       13.881       15.124      234.743      192.679      228.742        0.151        0.033       48.690       12.562        0.067      336.916        8.537      867.369
03/07/2014  20:59:00       23.210       11.463        0.254       12.540       15.847       12.640      157.245      251.129      159.770        0.062        0.028       25.886        7.766        0.090      336.828        8.392      867.384
03/07/2014  21:00:00      -23.619      -11.623       -3.795       23.883       11.995        7.452      570.405      143.870       55.532        0.074        0.038       26.324        9.266        0.124      336.510        7.860      867.401
03/07/2014  21:01:00      -63.528       -3.209      -10.468        7.881        8.804        8.780       62.107       77.505       77.088        0.219        0.011       63.609        1.224        0.000      336.176        7.302      867.434
03/07/2014  21:02:00      -48.219       -3.424       -9.335       11.706        6.851        6.304      137.027       46.935       39.739        0.132        0.011       48.341        3.981        0.007      336.190        7.325      867.452
03/07/2014  21:03:00      -44.388       -3.431      -13.666        8.985        8.815        7.169       80.725       77.703       51.399        0.119        0.010       44.521        4.929        0.012      336.300        7.510      867.457
03/07/2014  21:04:00      -52.042      -14.988       -7.223       16.046       15.346        9.307      257.483      235.492       86.622        0.178        0.029       54.157        7.038        0.017      336.235        7.400      867.457
03/07/2014  21:05:00      -48.654       -9.464      -16.161       11.906       16.710        8.780      141.742      279.212       77.094        0.161        0.025       49.566        6.449        0.017      336.187        7.320      867.447
03/07/2014  21:06:00       -3.597        4.597      -11.418       16.553       17.851        6.849      274.009      318.652       46.907        0.040        0.032        5.838        2.822        0.234      336.391        7.661      867.443
03/07/2014  21:07:00       11.367       30.746       -5.500       18.312       10.157        7.039      335.316      103.159       49.549        0.080        0.024       32.780        7.277        0.049      336.818        8.375      867.446
03/07/2014  21:08:00       35.257       67.348      -15.858       23.676       19.765       13.164      560.558      390.666      173.292        0.358        0.056       76.018        7.298        0.009      336.927        8.554      867.447
03/07/2014  21:09:00       21.485       24.418        3.611       21.635       23.611       20.388      468.084      557.478      415.663        0.126        0.072       32.525       14.538        0.200      336.756        8.274      867.455
03/07/2014  21:10:00       12.384       25.693       -2.621       16.976       12.865        5.916      288.196      165.499       35.002        0.065        0.024       28.522        7.240        0.064      336.815        8.371      867.466
03/07/2014  21:11:00       -1.616       27.183       -2.159        6.003        7.172        4.530       36.038       51.436       20.525        0.043        0.005       27.231        3.122        0.013      336.831        8.399      867.486
03/07/2014  21:12:00       -8.083       14.169       -2.122        9.763        8.572        5.444       95.311       73.478       29.638        0.023        0.010       16.312        4.500        0.076      336.757        8.273      867.500
03/07/2014  21:13:00      -20.509        4.013       -2.415       16.210        9.401        7.020      262.775       88.373       49.285        0.042        0.020       20.898        6.893        0.109      336.468        7.790      867.512
03/07/2014  21:14:00       -0.369       35.651       -2.415       15.302       15.579        7.487      234.149      242.711       56.051        0.090        0.027       35.653        9.783        0.075      336.727        8.222      867.515
03/07/2014  21:15:00       27.747       52.391      -14.416       13.803       12.511        7.429      190.514      156.528       55.188        0.206        0.020       59.285        6.156        0.011      336.725        8.222      867.504
03/07/2014  21:16:00       31.211       41.521      -10.420       14.795       12.379        9.422      218.894      153.238       88.775        0.163        0.023       51.944        8.217        0.025      336.666        8.123      867.506
03/07/2014  21:17:00       -8.283       48.156       -8.975        9.742       12.628        5.529       94.915      159.471       30.573        0.138        0.014       48.863        4.871        0.010      336.653        8.101      867.520
03/07/2014  21:18:00       -5.977       69.330      -14.742       15.544       11.333        7.653      241.602      128.436       58.571        0.274        0.021       69.587        7.082        0.010      336.704        8.185      867.533
03/07/2014  21:19:00       16.528       71.617      -11.227       13.489       18.317       13.244      181.949      335.500      175.393        0.311        0.035       73.499       10.372        0.020      336.679        8.143      867.548
03/07/2014  21:20:00       10.062       41.376       -7.682       11.689       14.830        7.533      136.635      219.940       56.752        0.114        0.021       42.582        6.853        0.026      336.621        8.047      867.560
03/07/2014  21:21:00       10.519       30.751       -4.926       11.667       13.883        8.920      136.120      192.741       79.566        0.074        0.020       32.501        7.314        0.051      336.623        8.051      867.578
03/07/2014  21:22:00        2.794       41.726      -11.204        9.048        9.543        4.287       81.871       91.076       18.376        0.103        0.010       41.820        3.580        0.007      336.638        8.075      867.578
03/07/2014  21:23:00       -1.569       49.413       -9.062        7.842        9.147        6.500       61.498       83.667       42.254        0.136        0.009       49.438        5.151        0.011      336.623        8.051      867.573
03/07/2014  21:24:00        0.963       40.679       -8.878        5.463       13.308        3.897       29.845      177.102       15.188        0.098        0.011       40.690        2.185        0.003      336.660        8.112      867.557
03/07/2014  21:25:00      -25.643       15.321       -3.788       17.603       13.218        7.542      309.869      174.710       56.889        0.072        0.027       29.872        7.036        0.055      336.330        7.560      867.548
03/07/2014  21:26:00      -35.837       -0.387       -6.717       13.662       14.430       11.122      186.649      208.223      123.692        0.092        0.026       35.839        8.043        0.050      335.938        6.907      867.544
03/07/2014  21:27:00      -48.326      -18.204      -11.278       19.724       14.581       11.185      389.039      212.594      125.094        0.176        0.036       51.641        8.904        0.030      335.838        6.740      867.539
03/07/2014  21:28:00      -44.458      -10.802      -12.575       12.399       10.395        7.115      153.727      108.058       50.620        0.128        0.016       45.752        4.812        0.011      335.875        6.801      867.544
03/07/2014  21:29:00      -39.144      -12.825      -14.512       18.936       22.350       13.736      358.558      499.535      188.680        0.148        0.052       41.192        7.266        0.031      335.830        6.725      867.558
03/07/2014  21:30:00      -23.602      -15.505      -12.247       21.798       18.862       11.611      475.138      355.789      134.824        0.096        0.048       28.239        5.770        0.042      336.027        7.055      867.578
03/07/2014  21:31:00      -42.805       -5.419       -7.634       19.803       16.772       12.567      392.174      281.306      157.935        0.138        0.042       43.147       10.545        0.060      335.931        6.894      867.596
03/07/2014  21:32:00      -52.538      -22.900      -13.352       15.986        9.732        8.788      255.555       94.703       77.223        0.195        0.021       57.312        4.280        0.006      335.752        6.596      867.594
03/07/2014  21:33:00      -78.801      -17.973      -11.319       15.087       19.136       12.655      227.614      366.183      160.150        0.371        0.038       80.825        5.055        0.004      335.636        6.403      867.592
03/07/2014  21:34:00      -85.043      -40.035      -10.987       28.250       25.171       17.968      798.061      633.577      322.846        0.535        0.088       93.995       11.418        0.015      335.661        6.445      867.594
03/07/2014  21:35:00     -102.840      -25.755      -17.124       18.740       18.762       13.135      351.205      352.020      172.525        0.620        0.044      106.017        7.787        0.005      335.564        6.280      867.600
03/07/2014  21:36:00      -78.600      -33.746      -17.839       11.778       13.394       11.578      138.731      179.408      134.042        0.404        0.023       85.539        7.568        0.008      335.674        6.465      867.601
03/07/2014  21:37:00      -67.206      -20.803       -9.148       15.624       23.127       18.654      244.125      534.865      347.960        0.308        0.056       70.352       10.187        0.021      335.775        6.634      867.590
03/07/2014  21:38:00      -71.379      -16.006      -10.425       18.398       17.872       14.210      338.495      319.409      201.910        0.316        0.043       73.152        9.040        0.015      335.714        6.533      867.586
03/07/2014  21:39:00      -81.107      -11.156       -9.980       17.604       19.717       13.502      309.916      388.777      182.306        0.384        0.044       81.871       10.585        0.017      335.710        6.527      867.580
03/07/2014  21:40:00      -73.310       -9.077       -9.196       16.621       12.593       10.154      276.266      158.590      103.108        0.304        0.027       73.870        9.469        0.016      335.801        6.677      867.571
03/07/2014  21:41:00      -63.134      -17.415      -19.653       13.056       12.802        9.980      170.448      163.887       99.610        0.255        0.022       65.492        5.062        0.006      335.829        6.725      867.566
03/07/2014  21:42:00      -58.609      -13.509      -15.405        9.572        7.054        5.829       91.627       49.763       33.973        0.202        0.009       60.146        4.130        0.005      335.775        6.637      867.562
03/07/2014  21:43:00      -22.960      -12.372      -12.616       17.996       10.465        7.034      323.867      109.511       49.483        0.066        0.024       26.081        8.168        0.098      336.020        7.040      867.577
03/07/2014  21:44:00      -35.562        3.066       -9.305       13.193       11.655        8.031      174.053      135.843       64.496        0.087        0.019       35.694        7.409        0.043      336.012        7.027      867.589
03/07/2014  21:45:00        4.494       18.757       -1.273        8.562       11.142        8.141       73.300      124.145       66.270        0.032        0.013       19.288        6.298        0.107      336.337        7.572      867.602
03/07/2014  21:46:00      -13.046       -5.465       -0.450        8.829       12.275        9.276       77.947      150.673       86.044        0.026        0.016       14.145        6.651        0.221      336.012        7.029      867.604
03/07/2014  21:47:00      -11.418       -9.049       -5.214        9.178        7.658        5.320       84.242       58.639       28.308        0.021        0.009       14.569        3.162        0.047      336.070        7.125      867.599
03/07/2014  21:48:00      -42.132       -7.939       -2.504        8.723        7.785        5.843       76.089       60.600       34.136        0.101        0.009       42.874        3.611        0.007      335.967        6.955      867.590
03/07/2014  21:49:00      -15.566       -5.287       -0.001       11.468        5.992        4.222      131.512       35.901       17.822        0.023        0.009       16.439        3.540        0.046      335.853        6.763      867.604
03/07/2014  21:50:00      -10.937      -16.632       -8.431        9.714        9.797        7.644       94.357       95.976       58.434        0.036        0.012       19.905        5.682        0.081      336.014        7.032      867.604
03/07/2014  21:51:00      -10.626      -13.676        1.651       11.754       14.831        8.331      138.146      219.967       69.398        0.037        0.021       17.319        6.963        0.162      336.162        7.278      867.604
03/07/2014  21:52:00       -8.365       -5.587        0.185        5.464        9.963        6.355       29.852       99.271       40.388        0.014        0.008       10.059        4.985        0.246      336.107        7.187      867.604
03/07/2014  21:53:00       -6.794      -14.726        6.612        9.315       20.830       11.741       86.767      433.882      137.848        0.048        0.033       16.218        8.470        0.273      336.137        7.236      867.622
03/07/2014  21:54:00        8.757       -5.515        6.726       13.301        7.113        7.266      176.908       50.597       52.789        0.022        0.014       10.348        4.234        0.167      336.142        7.247      867.633
03/07/2014  21:55:00       52.724        4.807        9.190       32.379       23.325       12.883     1048.412      544.069      165.975        0.232        0.088       52.943       13.259        0.063      336.413        7.698      867.642
03/07/2014  21:56:00       12.151       11.586       11.343       13.684       11.739       11.653      187.242      137.809      135.796        0.044        0.023       16.790        7.278        0.188      336.169        7.290      867.648
03/07/2014  21:57:00       27.062       17.654       14.812       12.464        9.580        9.156      155.362       91.772       83.841        0.080        0.017       32.311        6.427        0.040      336.269        7.458      867.646
03/07/2014  21:58:00        8.624        5.848        6.472       12.712       16.387       14.927      161.603      268.547      222.810        0.040        0.033       10.420        8.745        0.704      336.246        7.419      867.660
03/07/2014  21:59:00       20.654        7.754        5.442       17.704       17.495       12.209      313.433      306.088      149.067        0.064        0.038       22.061        8.383        0.144      336.276        7.470      867.671
03/07/2014  22:00:00       23.540        5.961       10.737       19.675        9.652        7.315      387.088       93.164       53.503        0.062        0.027       24.283        5.100        0.044      336.126        7.219      867.683
03/07/2014  22:01:00       27.388       13.095        4.844       18.103        9.268        8.500      327.735       85.892       72.253        0.072        0.024       30.357        4.377        0.021      336.327        7.553      867.687
03/07/2014  22:02:00       -6.805       -3.092        8.359        8.033       14.707        4.896       64.535      216.296       23.973        0.022        0.015        7.474        5.552        0.552      335.936        6.901      867.697
03/07/2014  22:03:00       -4.767      -32.193        0.796       16.856       17.614       13.476      284.126      310.240      181.615        0.092        0.039       32.544        6.930        0.045      335.991        6.995      867.694
03/07/2014  22:04:00      -13.711      -34.852       -4.429       24.034       16.844       17.784      577.616      283.722      316.255        0.130        0.059       37.452       11.814        0.100      335.842        6.747      867.686
03/07/2014  22:05:00      -33.795      -20.210       -6.144       14.584       15.600       11.806      212.698      243.368      139.383        0.109        0.030       39.377        8.040        0.042      335.752        6.597      867.683
03/07/2014  22:06:00      -21.799        1.334        2.444       18.825       16.118       11.737      354.394      259.788      137.764        0.062        0.038       21.840        9.680        0.196      335.909        6.856      867.680
03/07/2014  22:07:00      -23.568      -19.131        0.753       21.318       11.971        9.789      454.459      143.294       95.833        0.081        0.035       30.355        8.605        0.080      335.878        6.803      867.672
03/07/2014  22:08:00        4.893      -31.514       -1.123       22.277       26.673       13.112      496.250      711.441      171.924        0.120        0.069       31.891       11.384        0.127      336.242        7.412      867.664
03/07/2014  22:09:00      -13.787      -25.068        6.562       32.141       24.657       16.153     1033.040      607.967      260.913        0.138        0.095       28.609       16.807        0.345      336.062        7.111      867.663
03/07/2014  22:10:00       36.804       16.725       32.573       42.375       26.222       16.090     1795.615      687.567      258.900        0.272        0.137       40.426       11.599        0.082      336.087        7.153      867.655
03/07/2014  22:11:00       50.505       12.262       15.322       53.046       34.726       27.615     2813.926     1205.891      762.612        0.386        0.239       51.973       22.165        0.182      336.360        7.609      867.654
03/07/2014  22:12:00       -2.594        0.906       24.929       12.972       23.662       15.548      168.260      559.875      241.732        0.080        0.048        2.748       16.456       35.868      336.206        7.353      867.669
03/07/2014  22:13:00       10.356       23.834       35.770       20.948       19.777       18.654      438.809      391.123      347.956        0.157        0.059       25.986       10.351        0.159      336.193        7.330      867.682
03/07/2014  22:14:00      -17.201      -12.161       10.677       12.374       11.764       12.199      153.112      138.385      148.819        0.050        0.022       21.066        8.451        0.161      335.940        6.907      867.684
03/07/2014  22:15:00        1.772       -2.212        1.556       11.480        8.959        9.050      131.799       80.258       81.905        0.015        0.015        2.834        7.581        7.157      336.054        7.098      867.678
03/07/2014  22:16:00       18.296       11.234       23.660       29.915       28.541       20.784      894.894      814.593      431.992        0.158        0.107       21.470       22.997        1.147      336.248        7.423      867.677
03/07/2014  22:17:00      -18.037       -4.815       12.423       13.752       12.690       12.308      189.124      161.043      151.497        0.050        0.025       18.668        9.010        0.233      335.775        6.634      867.686
03/07/2014  22:18:00       -8.537      -16.881        3.549       14.717       10.775       12.258      216.603      116.092      150.260        0.043        0.024       18.917        5.176        0.075      335.552        6.260      867.690
03/07/2014  22:19:00      -31.802      -12.474       -6.407        8.575       10.157        6.691       73.534      103.172       44.766        0.071        0.011       34.161        5.577        0.027      335.648        6.422      867.682
03/07/2014  22:20:00      -23.828        8.468       -1.702       15.424       13.184       10.365      237.886      173.806      107.436        0.058        0.026       25.288        9.848        0.152      335.878        6.805      867.668
03/07/2014  22:21:00      -18.302       11.928        1.872       12.250       15.186       10.340      150.072      230.611      106.919        0.048        0.024       21.845        8.240        0.142      335.972        6.960      867.670
03/07/2014  22:22:00       -8.927       43.000       -1.722       16.055       16.257        7.700      257.758      264.297       59.285        0.126        0.029       43.917        6.686        0.023      336.180        7.309      867.679
03/07/2014  22:23:00       10.417       51.442       -5.498       16.866       15.492        9.106      284.458      239.995       82.923        0.170        0.030       52.486        4.807        0.008      336.290        7.493      867.668
03/07/2014  22:24:00        1.204       42.261       -6.304       11.654        9.844        6.935      135.820       96.907       48.100        0.105        0.014       42.278        7.306        0.030      336.359        7.606      867.668
03/07/2014  22:25:00      -19.126       23.661       -5.688       22.492       15.092        7.315      505.901      227.765       53.503        0.087        0.039       30.425        6.320        0.043      336.208        7.354      867.693
03/07/2014  22:26:00      -49.942       -3.505       -8.994        9.393       12.785        6.343       88.238      163.466       40.234        0.144        0.015       50.065        4.955        0.010      335.606        6.353      867.708
03/07/2014  22:27:00      -60.568       -2.656      -15.111       11.318        8.147        5.874      128.106       66.370       34.501        0.207        0.011       60.627        3.865        0.004      335.606        6.352      867.716
03/07/2014  22:28:00      -45.385       -1.089       -7.451       12.392        8.182        9.531      153.553       66.946       90.837        0.121        0.016       45.398        5.442        0.014      335.513        6.196      867.721
03/07/2014  22:29:00      -38.501       -6.440       -7.104       11.581        8.219        8.066      134.113       67.546       65.063        0.092        0.013       39.036        1.721        0.002      335.453        6.097      867.737
03/07/2014  22:30:00      -58.019       -4.003      -10.891       21.094       12.296        8.146      444.950      151.188       66.352        0.208        0.033       58.157        8.523        0.021      335.302        5.844      867.741
03/07/2014  22:31:00      -87.660      -11.079      -13.971       12.597       19.449       11.268      158.682      378.256      126.961        0.433        0.033       88.358       11.137        0.016      335.187        5.653      867.745
03/07/2014  22:32:00      -62.918      -16.888       -9.960       14.828       16.187       14.609      219.867      262.022      213.436        0.252        0.035       65.145        6.041        0.009      335.159        5.608      867.736
03/07/2014  22:33:00     -109.000       -3.965      -11.625       23.328       21.599       16.416      544.182      466.498      269.501        0.666        0.064      109.073       11.185        0.011      335.306        5.851      867.718
03/07/2014  22:34:00      -81.633       -5.350      -13.459       32.966       22.484       15.846     1086.737      505.533      251.082        0.436        0.092       81.808       13.250        0.026      335.293        5.829      867.704
03/07/2014  22:35:00      -84.840       -7.011      -10.456       17.219       15.133       16.521      296.494      229.018      272.944        0.408        0.040       85.130       11.945        0.020      335.366        5.951      867.705
03/07/2014  22:36:00      -57.640      -26.424       -6.161       28.689       17.998       11.789      823.062      323.928      138.973        0.267        0.064       63.408        8.515        0.018      335.254        5.766      867.707
03/07/2014  22:37:00      -50.497      -36.029      -10.562       15.364       13.732       11.857      236.064      188.575      140.577        0.226        0.028       62.032        6.426        0.011      335.298        5.839      867.707
03/07/2014  22:38:00      -97.751      -17.052      -21.008       18.291       15.340       13.351      334.567      235.327      178.261        0.552        0.037       99.227        6.085        0.004      335.282        5.811      867.715
03/07/2014  22:39:00      -90.032      -30.808      -17.698       15.839       12.675       11.021      250.865      160.654      121.466        0.495        0.027       95.157        6.184        0.004      335.177        5.637      867.721
03/07/2014  22:40:00      -74.463      -21.870      -13.782       11.030       18.728        8.974      121.666      350.727       80.540        0.338        0.028       77.608        7.365        0.009      335.196        5.669      867.712
03/07/2014  22:41:00      -39.656      -11.358      -10.382       19.212       10.386       15.149      369.092      107.863      229.488        0.126        0.035       41.250       14.409        0.122      335.218        5.706      867.698
03/07/2014  22:42:00      -39.059       -1.529       -8.543       18.009       17.259       10.028      324.321      297.857      100.564        0.116        0.036       39.089       10.548        0.073      335.472        6.128      867.683
03/07/2014  22:43:00      -18.678       14.427       -3.713       15.170       16.844       10.562      230.114      283.736      111.560        0.060        0.031       23.601       10.610        0.202      335.832        6.728      867.680
03/07/2014  22:44:00        8.504       67.206        1.325       19.218       14.228       12.405      369.343      202.440      153.891        0.266        0.036       67.742        7.803        0.013      336.295        7.500      867.665
03/07/2014  22:45:00       -2.486       38.587        0.087       27.422       20.350       13.708      751.967      414.103      187.913        0.142        0.068       38.667       14.579        0.142      336.134        7.233      867.653
03/07/2014  22:46:00      -78.699      -26.233       -7.925       32.442       15.648       13.333     1052.487      244.859      177.756        0.421        0.074       82.956        5.955        0.005      335.261        5.778      867.642
03/07/2014  22:47:00     -107.484      -45.420      -18.929       16.787       21.398       13.785      281.787      457.871      190.017        0.745        0.046      116.686        8.463        0.005      335.045        5.419      867.643
03/07/2014  22:48:00     -105.164      -20.903      -18.116       28.536       18.854       12.969      814.307      355.465      168.193        0.658        0.067      107.221       11.330        0.011      334.944        5.251      867.634
03/07/2014  22:49:00     -102.538      -16.993       -9.728       24.254       24.034       17.298      588.247      577.636      299.227        0.618        0.073      103.936       13.892        0.018      334.960        5.277      867.622
03/07/2014  22:50:00      -54.641       10.565       -7.731       17.655       10.889       10.068      311.698      118.575      101.355        0.184        0.027       55.653        9.526        0.029      335.275        5.800      867.621
03/07/2014  22:51:00      -54.977        0.613       -8.806        8.508       10.607        7.689       72.394      112.498       59.125        0.167        0.012       54.980        5.330        0.009      335.344        5.915      867.630
03/07/2014  22:52:00      -52.514      -36.440      -12.332       19.955       25.317       12.832      398.220      640.970      164.657        0.272        0.060       63.919       13.030        0.042      335.432        6.062      867.634
03/07/2014  22:53:00      -94.768      -58.073      -16.052       24.678       18.587       12.989      609.011      345.475      168.715        0.687        0.056      111.146        6.567        0.003      335.038        5.406      867.652
03/07/2014  22:54:00      -99.919      -45.876      -17.560       48.230       29.601       24.890     2326.135      876.218      619.493        0.811        0.191      109.948       20.512        0.035      334.873        5.133      867.686
03/07/2014  22:55:00     -110.585       -9.771       -9.502       33.288       22.040       23.436     1108.081      485.764      549.249        0.728        0.107      111.016       21.280        0.037      334.904        5.184      867.700
03/07/2014  22:56:00      -91.901      -19.583      -13.941       14.168       16.447       11.850      200.732      270.515      140.430        0.482        0.031       93.965        8.759        0.009      334.856        5.105      867.699
03/07/2014  22:57:00      -89.326        0.759       -6.636       21.947       17.355       16.900      481.686      301.202      285.594        0.455        0.053       89.329       13.312        0.022      334.833        5.066      867.708
03/07/2014  22:58:00      -54.303        7.874      -10.830       14.628       23.513       12.595      213.982      552.866      158.644        0.203        0.046       54.871       10.523        0.037      335.069        5.459      867.712
03/07/2014  22:59:00      -27.876       -0.574       -9.190       14.300       10.773        9.484      204.495      116.057       89.946        0.064        0.021       27.882        6.733        0.058      335.220        5.710      867.701
03/07/2014  23:00:00      -55.227      -21.801      -10.774       23.239       15.266       10.076      540.038      233.040      101.524        0.226        0.044       59.374        5.233        0.008      335.074        5.467      867.712
03/07/2014  23:01:00      -76.069      -35.593       -9.445       22.967       17.960       14.612      527.469      322.570      213.514        0.410        0.053       83.984        7.497        0.008      334.911        5.197      867.699
03/07/2014  23:02:00      -94.978      -20.827       -6.296       21.592       17.781       16.411      466.211      316.160      269.316        0.527        0.053       97.235        9.176        0.009      334.878        5.140      867.682
03/07/2014  23:03:00      -84.966      -20.950      -16.956       15.469       19.300       10.872      239.302      372.495      118.190        0.434        0.036       87.510        6.693        0.006      334.871        5.130      867.673
03/07/2014  23:04:00      -59.032      -20.327      -15.595       16.106       15.648       12.116      259.400      244.855      146.809        0.240        0.033       62.433        7.230        0.013      335.160        5.610      867.652
03/07/2014  23:05:00      -46.004       18.475       -8.717       13.164       12.470        8.027      173.302      155.497       64.441        0.146        0.020       49.575        4.756        0.009      335.058        5.441      867.634
03/07/2014  23:06:00        4.913       53.990       -4.472       29.783       32.326        9.507      887.048     1044.965       90.386        0.249        0.101       54.213        8.914        0.027      335.728        6.554      867.626
03/07/2014  23:07:00       19.931       58.515       -0.489       18.274       32.423       11.586      333.956     1051.219      134.228        0.267        0.076       61.817       12.884        0.043      335.891        6.826      867.620
03/07/2014  23:08:00       40.082       14.628        2.869       29.295       26.356       13.984      858.218      694.653      195.550        0.179        0.087       42.668       10.392        0.059      335.883        6.813      867.625
03/07/2014  23:09:00        5.367       17.521       -0.639       19.913       19.685       10.313      396.541      387.508      106.364        0.061        0.045       18.325        5.833        0.101      335.899        6.840      867.632
03/07/2014  23:10:00       -3.562       -6.145        9.127        9.380       17.491       10.741       87.975      305.937      115.360        0.032        0.025        7.102       10.201        2.063      335.359        5.941      867.622
03/07/2014  23:11:00        0.559      -11.998        1.658       10.080       16.504        7.301      101.601      272.380       53.299        0.029        0.021       12.011        7.948        0.438      335.468        6.121      867.613
03/07/2014  23:12:00      -23.629       -4.520       -1.598       11.393        5.725        6.771      129.796       32.771       45.852        0.039        0.010       24.058        6.295        0.068      335.316        5.867      867.608
03/07/2014  23:13:00       16.944       15.543       14.288       21.614       11.619        8.419      467.170      134.990       70.881        0.070        0.034       22.993        7.089        0.095      335.388        5.989      867.591
03/07/2014  23:14:00       43.879       30.922       24.162       42.923       29.031       23.052     1842.375      842.798      531.389        0.334        0.161       53.680       12.119        0.051      335.699        6.507      867.576
03/07/2014  23:15:00       39.830       20.713       23.891       31.748       23.506       15.348     1007.927      552.528      235.564        0.219        0.090       44.893       14.119        0.099      335.719        6.540      867.568
03/07/2014  23:16:00       42.754       17.986       22.067       30.402       22.936       24.552      924.287      526.082      602.808        0.235        0.103       46.383       21.412        0.213      335.757        6.605      867.576
03/07/2014  23:17:00       22.344       20.800       32.244       22.024       18.955       18.445      485.068      359.294      340.228        0.158        0.059       30.527        7.715        0.064      335.686        6.486      867.565
03/07/2014  23:18:00       37.176       21.438       46.219       34.716       23.511       17.568     1205.170      552.758      308.634        0.302        0.103       42.914       16.515        0.148      335.666        6.453      867.553
03/07/2014  23:19:00       33.405       28.076       27.639       26.992       22.497       21.634      728.560      506.128      468.032        0.219        0.085       43.637       19.696        0.204      335.706        6.520      867.537
03/07/2014  23:20:00       22.856       51.017       46.240       34.864       15.943       24.455     1215.505      254.187      598.064        0.367        0.103       55.902       24.246        0.188      335.715        6.533      867.537
03/07/2014  23:21:00       36.651       43.463       32.858       31.607       20.293       24.419      998.999      411.823      596.288        0.316        0.100       56.854       22.858        0.162      335.668        6.456      867.539
03/07/2014  23:22:00       31.153       32.398       26.600       15.815       11.496       12.435      250.105      132.168      154.619        0.163        0.027       44.946        6.436        0.021      335.656        6.435      867.522
03/07/2014  23:23:00       25.358        7.002        7.675       15.355       13.309       11.013      235.774      177.124      121.291        0.064        0.027       26.307        6.478        0.061      335.682        6.479      867.513
03/07/2014  23:24:00        7.646       12.511       13.752       11.210       10.767        9.017      125.656      115.935       81.315        0.036        0.016       14.663        7.999        0.298      335.546        6.252      867.510
03/07/2014  23:25:00       13.634       22.184        9.589       10.127       10.105        7.639      102.553      102.103       58.356        0.052        0.013       26.038        4.961        0.036      335.611        6.360      867.513
03/07/2014  23:26:00        5.994       43.114       -1.987        9.517       14.755        5.480       90.575      217.698       30.032        0.112        0.017       43.529        7.439        0.029      335.685        6.484      867.519
03/07/2014  23:27:00       15.803       28.191        4.299       15.688       17.007       16.346      246.101      289.235      267.183        0.093        0.040       32.318       12.954        0.161      335.642        6.411      867.525
03/07/2014  23:28:00       12.326       25.938       -5.261       15.027       20.126        8.281      225.799      405.042       68.573        0.078        0.035       28.718        3.717        0.017      335.638        6.405      867.527
03/07/2014  23:29:00       15.619       20.263       -5.103       11.165       14.399        9.621      124.668      207.319       92.570        0.055        0.021       25.584        9.282        0.132      335.644        6.415      867.524
03/07/2014  23:30:00        2.659       35.463       -7.450       10.012       10.413        7.071      100.230      108.435       49.997        0.079        0.013       35.562        4.746        0.018      335.655        6.433      867.517
03/07/2014  23:31:00       -1.478       43.234       -3.583        7.689        7.101        4.868       59.126       50.427       23.695        0.101        0.007       43.260        3.979        0.008      335.685        6.483      867.508
03/07/2014  23:32:00      -20.131       12.402        1.024       18.502       20.639       12.551      342.324      425.967      157.519        0.074        0.046       23.644        9.319        0.155      335.262        5.780      867.511
03/07/2014  23:33:00      -58.133      -10.705      -16.778       14.256       12.298       10.441      203.225      151.231      109.015        0.212        0.023       59.111        6.661        0.013      334.852        5.098      867.511
03/07/2014  23:34:00      -86.713       -6.069      -15.030       16.343       15.677       13.296      267.088      245.755      176.787        0.424        0.034       86.925        9.353        0.012      334.709        4.861      867.507
03/07/2014  23:35:00      -87.976      -18.014      -11.929       26.541       25.562       14.351      704.431      653.426      205.947        0.488        0.078       89.802       12.039        0.018      334.560        4.614      867.499
03/07/2014  23:36:00      -87.930      -22.634      -15.772       20.081       19.691       12.920      403.256      387.725      166.936        0.473        0.048       90.797        8.374        0.009      334.521        4.548      867.488
03/07/2014  23:37:00     -100.836      -16.142      -16.638       13.914       16.261       13.209      193.612      264.426      174.466        0.567        0.032      102.119        9.149        0.008      334.471        4.466      867.486
03/07/2014  23:38:00      -86.876      -12.333      -14.903       18.933       19.410       15.155      358.469      376.748      229.667        0.444        0.048       87.747       11.330        0.017      334.482        4.484      867.476
03/07/2014  23:39:00     -100.691       -6.199      -17.919       32.890       18.350       14.857     1081.733      336.705      220.733        0.607        0.082      100.882       14.040        0.019      334.533        4.567      867.470
03/07/2014  23:40:00     -103.845       -0.016      -16.417       18.055       13.906       14.863      325.978      193.391      220.901        0.590        0.037      103.845       10.161        0.010      334.475        4.472      867.470
03/07/2014  23:41:00      -96.796       -9.591      -19.196       11.138       13.509       10.289      124.063      182.500      105.867        0.512        0.021       97.270        4.890        0.003      334.528        4.560      867.456
03/07/2014  23:42:00      -88.833       -8.380      -17.777        7.640       13.223        8.229       58.370      174.839       67.720        0.429        0.015       89.228        7.232        0.007      334.562        4.617      867.448
03/07/2014  23:43:00      -59.708      -24.283       -6.887       17.704       16.562       14.689      313.441      274.301      215.756        0.250        0.040       64.457       11.786        0.033      334.610        4.695      867.428
03/07/2014  23:44:00      -53.760      -19.000      -12.836       18.373       17.933       18.686      337.580      321.608      349.172        0.221        0.050       57.019       10.072        0.031      334.645        4.756      867.403
03/07/2014  23:45:00      -37.799      -21.286      -14.643       20.310       13.651       10.194      412.499      186.355      103.915        0.140        0.035       43.381        7.276        0.028      334.782        4.980      867.379
03/07/2014  23:46:00      -23.466       -7.125       -6.894       18.987       10.543       10.670      360.509      111.149      113.842        0.062        0.029       24.524        7.464        0.093      334.946        5.254      867.361
03/07/2014  23:47:00       -5.797       59.695       -9.683       29.499       44.563       13.456      870.200     1985.902      181.057        0.336        0.152       59.975       15.007        0.063      335.352        5.928      867.342
03/07/2014  23:48:00       18.875       60.852       -7.901       12.721       26.181        9.771      161.817      685.421       95.465        0.253        0.047       63.712       10.203        0.026      335.570        6.290      867.320
03/07/2014  23:49:00        2.292       91.325       -6.986       23.632       21.059       10.519      558.478      443.483      110.649        0.475        0.056       91.354        6.726        0.005      335.533        6.230      867.328
03/07/2014  23:50:00        4.750       66.335       -6.331       16.365       23.610        8.813      267.810      557.412       77.668        0.268        0.045       66.505       10.790        0.026      335.625        6.384      867.321
03/07/2014  23:51:00        6.225       41.458       -3.030       29.173       25.724       12.772      851.084      661.730      163.115        0.172        0.084       41.923       13.252        0.100      335.328        5.891      867.316
03/07/2014  23:52:00       -6.684       15.260        0.124       32.600       23.708       19.935     1062.761      562.055      397.411        0.115        0.101       16.659       16.720        1.007      335.126        5.555      867.309
03/07/2014  23:53:00      -23.864       17.315       -9.539       28.210       33.149       19.259      795.806     1098.842      370.914        0.161        0.113       29.484       14.839        0.253      334.926        5.220      867.291
03/07/2014  23:54:00       -2.153       65.742      -11.171       22.312       34.645       11.988      497.835     1200.299      143.707        0.315        0.092       65.778       13.601        0.043      335.429        6.057      867.267
03/07/2014  23:55:00       14.945       76.177       -5.943       17.800       34.146       15.151      316.857     1165.966      229.550        0.389        0.086       77.629       15.755        0.041      335.474        6.131      867.258
03/07/2014  23:56:00       18.539       61.799       -5.127       17.158       28.190       12.510      294.403      794.649      156.489        0.272        0.062       64.520        9.112        0.020      335.424        6.047      867.249
03/07/2014  23:57:00       29.302       63.484        1.067       36.710       38.985       21.914     1347.643     1519.840      480.203        0.412        0.167       69.920       17.529        0.063      335.439        6.073      867.244
03/07/2014  23:58:00       15.279       46.102       -0.972       17.272       30.976       14.498      298.339      959.486      210.194        0.191        0.073       48.568        8.250        0.029      335.542        6.245      867.237
03/07/2014  23:59:00       18.125       24.889        0.671       22.950       19.889       12.545      526.711      395.565      157.369        0.101        0.054       30.789       15.517        0.254      335.364        5.947      867.229
